[[{"header":{"parameterUnit":"m.s-1","parameterCategory":1,"la1":30.6,"la2":28.766,"lo1":-90.7593,"lo2":-88.6598,"dx":0.0162,"dy":0.0183,"nx":116,"ny":114,"refTime":"2022-11-14T06:00:00:Z","depth":0,"parameterNumber":2,"parameterNumberName":"U-component_of_WINDS"},"data":[0.0,0.0,0.0,0.0,0.0,0.0,0.0,0.0,0.0,0.0,0.0,0.0,0.0,0.0,0.0,0.0,0.0,0.0,0.0,0.0,0.0,0.0,0.0,0.0,0.0,0.0,0.0,0.0,0.0,0.0,0.0,0.0,0.0,0.0,0.0,0.0,0.0,0.0,0.0,0.0,0.0,0.0,0.0,0.0,0.0,0.0,0.0,0.0,0.0,0.0,0.0,0.0,0.0,0.0,0.0,0.0,0.0,0.0,0.0,0.0,0.0,0.0,0.0,0.0,0.0,0.0,0.0,0.0,0.0,0.0,0.0,0.0,0.0,0.0,0.0,0.0,0.0,0.0,0.0,0.0,0.0,0.0,0.0,0.0,0.0,0.0,0.0,0.0,0.0,0.0,0.0,0.0,0.0,0.0,0.0,0.0,0.0,0.0,0.0,0.0,0.0,0.0,0.0,0.0,0.0,0.0,0.0,0.0,0.0,0.0,0.0,0.0,0.0,0.0,0.0,0.0,0.0,0.0,0.0,0.0,0.0,0.0,0.0,0.0,0.0,0.0,0.0,0.0,0.0,0.0,0.0,0.0,0.0,0.0,0.0,0.0,0.0,0.0,0.0,0.0,0.0,0.0,0.0,0.0,0.0,0.0,0.0,0.0,0.0,0.0,0.0,0.0,0.0,0.0,0.0,0.0,0.0,0.0,0.0,0.0,0.0,0.0,0.0,0.0,0.0,0.0,0.0,0.0,0.0,0.0,0.0,0.0,0.0,0.0,0.0,0.0,0.0,0.0,0.0,0.0,0.0,0.0,0.0,0.0,0.0,0.0,0.0,0.0,0.0,0.0,0.0,0.0,0.0,0.0,0.0,0.0,0.0,0.0,0.0,0.0,0.0,0.0,0.0,0.0,0.0,0.0,0.0,0.0,0.0,0.0,0.0,0.0,0.0,0.0,0.0,0.0,0.0,0.0,0.0,0.0,0.0,0.0,0.0,0.0,0.0,0.0,0.0,0.0,0.0,0.0,0.0,0.0,0.0,0.0,0.0,0.0,0.0,0.0,0.0,0.0,0.0,0.0,0.0,0.0,0.0,0.0,0.0,0.0,0.0,0.0,0.0,0.0,0.0,0.0,0.0,0.0,0.0,0.0,0.0,0.0,0.0,0.0,0.0,0.0,0.0,0.0,0.0,0.0,0.0,0.0,0.0,0.0,0.0,0.0,0.0,0.0,0.0,0.0,0.0,0.0,0.0,0.0,0.0,0.0,0.0,0.0,0.0,0.0,0.0,0.0,0.0,0.0,0.0,0.0,0.0,0.0,0.0,0.0,0.0,0.0,0.0,0.0,0.0,0.0,0.0,0.0,0.0,0.0,0.0,0.0,0.0,0.0,0.0,0.0,0.0,0.0,0.0,0.0,0.0,0.0,0.0,0.0,0.0,0.0,0.0,0.0,0.0,0.0,0.0,0.0,0.0,0.0,0.0,0.0,0.0,0.0,0.0,0.0,0.0,0.0,0.0,0.0,0.0,0.0,0.0,0.0,0.0,0.0,0.0,0.0,0.0,0.0,0.0,0.0,0.0,0.0,0.0,0.0,0.0,0.0,0.0,0.0,0.0,0.0,0.0,0.0,0.0,0.0,0.0,0.0,0.0,0.0,0.0,0.0,0.0,0.0,0.0,0.0,0.0,0.0,0.0,0.0,0.0,0.0,0.0,0.0,0.0,0.0,0.0,0.0,0.0,0.0,0.0,0.0,0.0,0.0,0.0,0.0,0.0,0.0,0.0,0.0,0.0,0.0,0.0,0.0,0.0,0.0,0.0,0.0,0.0,0.0,0.0,0.0,0.0,0.0,0.0,0.0,0.0,0.0,0.0,0.0,0.0,0.0,0.0,0.0,0.0,0.0,0.0,0.0,0.0,0.0,0.0,0.0,0.0,0.0,0.0,0.0,0.0,0.0,0.0,0.0,0.0,0.0,0.0,0.0,0.0,0.0,0.0,0.0,0.0,0.0,0.0,0.0,0.0,0.0,0.0,0.0,0.0,0.0,0.0,0.0,0.0,0.0,0.0,0.0,0.0,0.0,0.0,0.0,0.0,0.0,0.0,0.0,0.0,0.0,0.0,0.0,0.0,0.0,0.0,0.0,0.0,0.0,0.0,0.0,0.0,0.0,0.0,0.0,0.0,0.0,0.0,0.0,0.0,0.0,0.0,0.0,0.0,0.0,0.0,0.0,0.0,0.0,0.0,0.0,0.0,0.0,0.0,0.0,0.0,0.0,0.0,0.0,0.0,0.0,0.0,0.0,0.0,0.0,0.0,0.0,0.0,0.0,0.0,0.0,0.0,0.0,0.0,0.0,0.0,0.0,0.0,0.0,0.0,0.0,0.0,0.0,0.0,0.0,0.0,0.0,0.0,0.0,0.0,0.0,0.0,0.0,0.0,0.0,0.0,0.0,0.0,0.0,0.0,0.0,0.0,0.0,0.0,0.0,0.0,0.0,0.0,0.0,0.0,0.0,0.0,0.0,0.0,0.0,0.0,0.0,0.0,0.0,0.0,0.0,0.0,0.0,0.0,0.0,0.0,0.0,0.0,0.0,0.0,0.0,0.0,0.0,0.0,0.0,0.0,0.0,0.0,0.0,0.0,0.0,0.0,0.0,0.0,0.0,0.0,0.0,0.0,0.0,0.0,0.0,0.0,0.0,0.0,0.0,0.0,0.0,0.0,0.0,0.0,0.0,0.0,0.0,0.0,0.0,0.0,0.0,0.0,0.0,0.0,0.0,0.0,0.0,0.0,0.0,0.0,0.0,0.0,0.0,0.0,0.0,0.0,0.0,0.0,0.0,0.0,0.0,0.0,0.0,0.0,0.0,0.0,0.0,0.0,0.0,0.0,0.0,0.0,0.0,0.0,0.0,0.0,0.0,0.0,0.0,0.0,0.0,0.0,0.0,0.0,0.0,0.0,0.0,0.0,0.0,0.0,0.0,0.0,0.0,0.0,0.0,0.0,0.0,0.0,0.0,0.0,0.0,0.0,0.0,0.0,0.0,0.0,0.0,0.0,0.0,0.0,0.0,0.0,0.0,0.0,0.0,0.0,0.0,0.0,0.0,0.0,0.0,0.0,0.0,0.0,0.0,0.0,0.0,0.0,0.0,0.0,0.0,0.0,0.0,0.0,0.0,0.0,0.0,0.0,0.0,0.0,0.0,0.0,0.0,0.0,0.0,0.0,0.0,0.0,0.0,0.0,0.0,0.0,0.0,0.0,0.0,0.0,0.0,0.0,0.0,0.0,0.0,0.0,0.0,0.0,0.0,0.0,0.0,0.0,0.0,0.0,0.0,0.0,0.0,0.0,0.0,0.0,0.0,0.0,0.0,0.0,0.0,0.0,0.0,0.0,0.0,0.0,0.0,0.0,0.0,0.0,0.0,0.0,0.0,0.0,0.0,0.0,0.0,0.0,0.0,0.0,0.0,0.0,0.0,0.0,0.0,0.0,0.0,0.0,0.0,0.0,0.0,0.0,0.0,0.0,0.0,0.0,0.0,0.0,0.0,0.0,0.0,0.0,0.0,0.0,0.0,0.0,0.0,0.0,0.0,0.0,0.0,0.0,0.0,0.0,0.0,0.0,0.0,0.0,0.0,0.0,0.0,0.0,0.0,0.0,0.0,0.0,0.0,0.0,0.0,0.0,0.0,0.0,0.0,0.0,0.0,0.0,0.0,0.0,0.0,0.0,0.0,0.0,0.0,0.0,0.0,0.0,0.0,0.0,0.0,0.0,0.0,0.0,0.0,0.0,0.0,0.0,0.0,0.0,0.0,0.0,0.0,0.0,0.0,0.0,0.0,0.0,0.0,0.0,0.0,0.0,0.0,0.0,0.0,0.0,0.0,0.0,0.0,0.0,0.0,0.0,0.0,0.0,0.0,0.0,0.0,0.0,0.0,0.0,0.0,0.0,0.0,0.0,0.0,0.0,0.0,0.0,0.0,0.0,0.0,0.0,0.0,0.0,0.0,0.0,0.0,0.0,0.0,0.0,0.0,0.0,0.0,0.0,0.0,0.0,0.0,0.0,0.0,0.0,0.0,0.0,0.0,0.0,0.0,0.0,0.0,0.0,0.0,0.0,0.0,0.0,0.0,0.0,0.0,0.0,0.0,0.0,0.0,0.0,0.0,0.0,0.0,0.0,0.0,0.0,0.0,0.0,0.0,0.0,0.0,0.0,0.0,0.0,0.0,0.0,0.0,0.0,0.0,0.0,0.0,0.0,0.0,0.0,0.0,0.0,0.0,0.0,0.0,0.0,0.0,0.0,0.0,0.0,0.0,0.0,0.0,0.0,0.0,0.0,0.0,0.0,0.0,0.0,0.0,0.0,0.0,0.0,0.0,0.0,0.0,0.0,0.0,0.0,0.0,0.0,0.0,0.0,0.0,0.0,0.0,0.0,0.0,0.0,0.0,0.0,0.0,0.0,0.0,0.0,0.0,0.0,0.0,0.0,0.0,0.0,0.0,0.0,0.0,0.0,0.0,0.0,0.0,0.0,0.0,0.0,0.0,0.0,0.0,0.0,0.0,0.0,0.0,0.0,0.0,0.0,0.0,0.0,0.0,0.0,0.0,0.0,0.0,0.0,0.0,0.0,0.0,0.0,0.0,0.0,0.0,0.0,0.0,0.0,0.0,0.0,0.0,0.0,0.0,0.0,0.0,0.0,0.0,0.0,0.0,0.0,0.0,0.0,0.0,0.0,0.0,0.0,0.0,0.0,0.0,0.0,0.0,0.0,0.0,0.0,0.0,0.0,0.0,0.0,0.0,0.0,0.0,0.0,0.0,0.0,0.0,0.0,0.0,0.0,0.0,0.0,0.0,0.0,0.0,0.0,0.0,0.0,0.0,0.0,0.0,0.0,0.0,0.0,0.0,0.0,0.0,0.0,0.0,0.0,0.0,0.0,0.0,0.0,0.0,0.0,0.0,0.0,0.0,0.0,0.0,0.0,0.0,0.0,0.0,0.0,0.0,0.0,0.0,0.0,0.0,0.0,0.0,0.0,0.0,0.0,0.0,0.0,0.0,0.0,0.0,0.0,0.0,0.0,0.0,0.0,0.0,0.0,0.0,0.0,0.0,0.0,0.0,0.0,0.0,0.0,0.0,0.0,0.0,0.0,0.0,0.0,0.0,0.0,0.0,0.0,0.0,0.0,0.0,0.0,0.0,0.0,0.0,0.0,0.0,0.0,0.0,0.0,0.0,0.0,0.0,0.0,0.0,0.0,0.0,0.0,0.0,0.0,0.0,0.0,0.0,0.0,0.0,0.0,0.0,0.0,0.0,0.0,0.0,0.0,0.0,0.0,0.0,0.0,0.0,0.0,0.0,0.0,0.0,0.0,0.0,0.0,0.0,0.0,0.0,0.0,0.0,0.0,0.0,0.0,0.0,0.0,0.0,0.0,0.0,0.0,0.0,0.0,0.0,0.0,0.0,0.0,0.0,0.0,0.0,0.0,0.0,0.0,0.0,0.0,0.0,0.0,0.0,0.0,0.0,0.0,0.0,0.0,0.0,0.0,0.0,0.0,0.0,0.0,0.0,0.0,0.0,0.0,0.0,0.0,0.0,0.0,0.0,0.0,0.0,0.0,0.0,0.0,0.0,0.0,0.0,0.0,0.0,0.0,0.0,0.0,0.0,0.0,0.0,0.0,0.0,0.0,0.0,0.0,0.0,0.0,0.0,0.0,0.0,0.0,0.0,0.0,0.0,0.0,0.0,0.0,0.0,0.0,0.0,0.0,0.0,0.0,0.0,0.0,0.0,0.0,0.0,0.0,0.0,0.0,0.0,0.0,0.0,0.0,0.0,0.0,0.0,0.0,0.0,0.0,0.0,0.0,0.0,0.0,0.0,0.0,0.0,0.0,0.0,0.0,0.0,0.0,0.0,0.0,0.0,0.0,0.0,0.0,0.0,0.0,0.0,0.0,0.0,0.0,0.0,0.0,0.0,0.0,0.0,0.0,0.0,0.0,0.0,0.0,0.0,0.0,0.0,0.0,0.0,0.0,0.0,0.0,0.0,0.0,0.0,0.0,0.0,0.0,0.0,0.0,0.0,0.0,0.0,0.0,0.0,0.0,0.0,-4.1716,-3.3563,0.0,0.0,0.0,0.0,0.0,0.0,0.0,0.0,0.0,0.0,0.0,0.0,0.0,0.0,0.0,0.0,0.0,0.0,0.0,0.0,0.0,0.0,0.0,2.1695,2.1545,2.1216,2.0857,0.0,0.0,0.0,0.0,0.0,0.0,0.0,0.0,0.0,2.0318,2.1575,2.3849,2.8158,3.4203,3.142,2.8068,2.4328,0.0,0.0,0.0,0.0,0.0,0.0,0.0,0.0,0.0,0.0,0.0,0.0,0.0,0.0,0.0,0.0,0.0,0.0,0.0,0.0,0.0,0.0,0.0,0.0,0.0,0.0,0.0,0.0,0.0,0.0,0.0,0.0,0.0,0.0,0.0,0.0,0.0,0.0,0.0,0.0,0.0,0.0,0.0,0.0,0.0,0.0,0.0,0.0,0.0,0.0,0.0,0.0,0.0,0.0,0.0,0.0,0.0,0.0,0.0,0.0,0.0,0.0,0.0,0.0,0.0,0.0,0.0,0.0,0.0,0.0,-4.6109,-4.2466,0.0,0.0,0.0,0.0,0.0,0.0,0.0,0.0,0.0,0.0,0.0,0.0,0.0,0.0,0.0,0.0,0.0,0.0,0.0,0.0,0.0,2.1904,2.2024,2.2024,2.2113,2.2353,2.2173,2.1784,2.1246,2.1006,0.0,0.0,0.0,0.0,1.969,1.9789,2.1426,2.4657,3.0372,3.6417,4.2641,4.318,3.9888,3.3275,2.753,0.0,0.0,0.0,0.0,0.0,0.0,0.0,0.0,0.0,0.0,0.0,0.0,0.0,0.0,0.0,0.0,0.0,0.0,0.0,0.0,0.0,0.0,0.0,0.0,0.0,0.0,0.0,0.0,0.0,0.0,0.0,0.0,0.0,0.0,0.0,0.0,0.0,0.0,0.0,0.0,0.0,0.0,0.0,0.0,0.0,0.0,0.0,0.0,0.0,0.0,0.0,0.0,0.0,0.0,0.0,0.0,0.0,0.0,0.0,0.0,0.0,0.0,0.0,-5.3212,-5.4126,-5.4262,-5.4735,-5.5919,-5.7273,-5.1564,-5.3247,-5.917,-4.7899,0.0,0.0,0.0,0.0,0.0,0.0,0.0,0.0,0.0,0.0,0.0,0.0,0.0,0.0,0.0,0.0,0.0,0.0,0.0,2.2742,2.3281,2.334,2.3819,2.4986,2.4029,2.331,2.3221,2.2173,0.0,0.0,0.0,0.0,1.969,2.0215,2.3214,2.8786,4.1354,4.8895,5.1498,5.1588,5.078,4.8895,4.1294,3.4949,2.9713,0.0,0.0,0.0,0.0,0.0,0.0,0.0,0.0,0.0,0.0,0.0,0.0,0.0,0.0,0.0,0.0,0.0,0.0,0.0,0.0,0.0,0.0,0.0,0.0,0.0,0.0,0.0,0.0,0.0,0.0,0.0,0.0,0.0,0.0,0.0,0.0,0.0,0.0,0.0,0.0,0.0,-4.2106,-4.7328,0.0,0.0,0.0,0.0,0.0,0.0,0.0,0.0,0.0,0.0,0.0,0.0,0.0,-5.0521,-5.5897,-5.9131,-6.3417,-6.8599,-7.2337,-7.4492,-7.5134,-7.4559,-7.4119,-7.351,-6.8181,0.0,-6.2004,-6.1397,0.0,0.0,0.0,0.0,0.0,0.0,0.0,0.0,0.0,0.0,0.0,0.0,0.0,0.0,0.0,0.0,0.0,0.0,0.0,0.0,0.0,2.7619,2.9864,3.1569,3.2856,3.2317,2.9355,2.7949,0.0,0.0,0.0,2.0822,2.075,2.4699,3.1842,4.2282,5.0601,5.6256,5.9279,5.9668,5.9697,5.9219,5.5029,4.6992,3.6433,3.4806,0.0,0.0,0.0,0.0,0.0,0.0,0.0,0.0,0.0,0.0,0.0,0.0,0.0,0.0,0.0,0.0,0.0,0.0,0.0,0.0,0.0,0.0,0.0,0.0,0.0,0.0,0.0,0.0,0.0,0.0,0.0,0.0,0.0,0.0,0.0,0.0,0.0,0.0,0.0,-3.9599,-4.6644,-5.206,-4.8938,-4.4766,0.0,0.0,0.0,0.0,0.0,0.0,0.0,0.0,0.0,-6.0626,-6.0107,-6.2845,-6.9254,-7.1075,-7.3306,-7.5905,-7.8184,-7.9397,-7.9701,-7.8957,-7.845,-7.801,-7.527,-7.2969,-7.0893,-6.733,-6.4478,-6.167,0.0,0.0,0.0,0.0,-4.9141,-4.97,0.0,0.0,0.0,0.0,0.0,0.0,0.0,0.0,0.0,0.0,0.0,0.0,2.8876,3.3095,3.6716,3.905,4.1324,4.0487,3.534,3.3305,2.9624,2.3699,2.217,2.1574,2.1798,3.0132,4.0604,5.3149,5.7676,6.1553,6.4784,6.5114,6.5293,6.5233,6.4096,5.6482,4.4405,4.2937,3.7469,2.934,0.0,0.0,0.0,0.0,0.0,0.0,0.0,0.0,0.0,0.0,0.0,0.0,0.0,0.0,0.0,0.0,0.0,0.0,0.0,0.0,0.0,0.0,0.0,0.0,0.0,0.0,0.0,0.0,0.0,0.0,0.0,0.0,0.0,0.0,0.0,0.0,0.0,-4.4858,-5.1849,-5.7177,-5.6002,-5.3139,0.0,0.0,0.0,0.0,0.0,0.0,-6.1016,-6.1375,-6.4758,-7.204,-7.1907,-7.4097,-7.9123,-7.9761,-7.9933,-7.9667,-8.0412,-8.075,-8.075,-8.0209,-7.9837,-7.9634,-7.9261,-7.9126,-7.8653,-7.2994,-7.0104,-6.8842,-6.5732,-6.1803,-5.8053,-5.9366,-5.9861,-6.0586,0.0,0.0,0.0,0.0,0.0,0.0,0.0,0.0,0.0,0.0,0.0,3.3066,3.5699,3.9529,4.324,4.6471,4.6352,4.4107,3.9439,3.6118,3.1689,2.5704,2.2439,2.1284,2.2335,3.5619,4.6897,5.5848,6.1749,6.5413,6.6819,6.6221,6.5951,6.5922,6.5233,6.1248,5.4738,5.1346,4.621,3.9535,3.0057,0.0,0.0,0.0,0.0,0.0,0.0,0.0,0.0,0.0,0.0,0.0,0.0,0.0,0.0,0.0,0.0,0.0,0.0,0.0,0.0,0.0,0.0,0.0,0.0,0.0,0.0,0.0,0.0,0.0,0.0,0.0,0.0,0.0,0.0,0.0,0.0,0.0,0.0,-6.3586,-7.0661,0.0,0.0,0.0,0.0,-5.8385,-5.9867,-6.3786,-7.0097,-7.1909,-7.5698,-8.1958,-8.2893,-8.245,-8.0754,-8.2093,-8.2217,-8.119,-8.1934,-8.2306,-8.2306,-8.2272,-8.1866,-8.1224,-8.19,-8.2205,-8.2139,-8.1448,-8.0089,-7.8074,-7.3911,-7.1029,-6.9403,-7.011,-7.0409,-7.1537,0.0,0.0,0.0,0.0,0.0,2.3252,2.3008,2.2942,2.3588,2.5374,3.069,3.5318,3.8053,4.5693,5.1409,5.3414,5.5748,5.497,4.9912,4.3688,3.8302,3.4023,2.8271,2.9504,3.8898,4.7137,5.5247,6.3088,6.5651,6.7388,6.8286,6.8046,6.7926,6.7897,6.7238,6.5741,6.3387,6.041,5.4997,4.8014,4.3167,3.4438,0.0,0.0,0.0,0.0,0.0,0.0,0.0,0.0,0.0,0.0,0.0,0.0,0.0,0.0,0.0,0.0,0.0,0.0,0.0,0.0,0.0,0.0,0.0,0.0,0.0,0.0,0.0,0.0,0.0,0.0,0.0,0.0,0.0,0.0,0.0,0.0,0.0,-6.7299,-7.202,0.0,-6.9289,-7.1438,-7.2634,-7.1572,-7.7228,-8.2002,-8.4848,-8.5599,-8.6501,-8.7727,-8.7332,-8.6452,-8.5193,-8.4669,-8.4219,-8.3796,-8.384,-8.3828,-8.3828,-8.3321,-8.3432,-8.3895,-8.417,-8.4793,-8.5554,-8.6474,-8.5077,-8.2308,-8.1353,-8.1031,-8.129,-8.2579,-8.2543,-8.2325,0.0,0.0,0.0,0.0,2.3977,2.3449,2.2953,2.321,2.4766,2.8396,3.4138,3.9718,4.4534,5.2516,5.8201,5.9937,6.254,6.1164,5.4311,4.8327,4.2462,3.6656,3.303,3.7267,5.0351,5.4333,5.9984,6.7328,6.7747,6.8315,6.9004,6.9004,6.9004,6.8974,6.8525,6.8315,6.8196,6.643,6.2132,5.6301,5.2368,4.2334,2.9406,0.0,0.0,0.0,0.0,0.0,0.0,0.0,0.0,0.0,0.0,0.0,0.0,0.0,0.0,0.0,0.0,0.0,0.0,0.0,0.0,0.0,0.0,0.0,0.0,0.0,0.0,0.0,0.0,0.0,0.0,0.0,0.0,0.0,0.0,-5.6835,-6.5555,-7.064,-7.6172,-7.8938,-7.7265,-8.0329,-8.2823,-8.3807,-8.9085,-9.2392,-9.2684,-9.2939,-9.2543,-9.1371,-9.0555,-8.9635,-8.8422,-8.7335,-8.6522,-8.5844,-8.5871,-8.5887,-8.5852,-8.5646,-8.597,-8.6742,-8.7081,-8.762,-8.8419,-8.9482,-8.8805,-8.7009,-8.7165,-8.7712,-8.8454,-8.9553,-8.9659,-8.9283,0.0,0.0,0.0,2.4525,2.3895,2.3382,2.3382,2.4367,2.7555,3.4351,3.9848,4.6461,5.5197,5.9757,6.3228,6.5772,6.6041,6.1882,5.2067,4.9464,4.3658,3.3245,3.6681,4.3945,5.5024,5.6505,6.0668,6.7862,6.7862,6.825,6.8967,6.8967,6.9093,6.9123,6.9093,6.9093,6.9093,6.9064,6.7537,6.4487,5.669,4.7485,3.7602,0.0,0.0,0.0,0.0,0.0,0.0,0.0,0.0,0.0,0.0,0.0,0.0,0.0,0.0,0.0,0.0,0.0,0.0,0.0,0.0,0.0,0.0,0.0,0.0,0.0,0.0,0.0,0.0,0.0,0.0,0.0,0.0,0.0,-5.6831,-6.5781,-7.2413,-7.4187,-8.4295,-9.0549,-8.9062,-9.2284,-9.4444,-9.4444,-9.4037,-9.3525,-9.2875,-9.3594,-9.3735,-9.3093,-9.3095,-9.2208,-9.0254,-9.0134,-8.9115,-8.7214,-8.7994,-8.8348,-8.8384,-8.9289,-8.9643,-8.9769,-9.055,-9.0905,-9.0996,-9.1031,-9.1726,-9.2652,-9.1301,-9.085,-9.085,-9.0885,-9.1417,-9.2269,0.0,0.0,2.5769,2.5264,2.4177,2.3199,2.267,2.3232,2.6312,3.3703,3.9934,4.6853,5.5287,6.0984,6.4695,6.5892,6.643,6.3737,5.6675,5.1229,4.5484,3.923,4.8656,5.4923,5.6788,6.0374,6.2991,6.4668,6.4668,6.6165,6.9127,6.9127,7.009,7.1816,7.1308,7.1098,7.1038,7.0111,6.9303,6.8286,6.41,5.7216,4.8881,0.0,0.0,0.0,0.0,0.0,0.0,0.0,0.0,0.0,0.0,0.0,0.0,0.0,0.0,0.0,0.0,0.0,0.0,0.0,0.0,0.0,0.0,0.0,0.0,0.0,0.0,0.0,0.0,0.0,0.0,0.0,-5.7249,-6.2147,-6.4012,-7.1823,-7.9353,-8.4706,-9.0335,-9.3661,-9.3437,-9.4747,-9.5537,-9.5339,-9.5649,-9.5908,-9.6174,-9.6404,-9.6465,-9.6371,-9.5831,-9.4726,-9.3099,-9.2169,-9.1152,-9.0133,-9.0108,-9.0014,-9.0105,-9.0795,-9.164,-9.2624,-9.4594,-9.5984,-9.6899,-9.8054,-9.8747,-9.871,-9.5158,-9.4241,-9.5239,-9.6404,-9.6376,-9.5773,0.0,2.6759,2.5906,2.5467,2.4216,2.3148,2.2707,2.3527,2.7471,3.6872,4.191,4.8548,5.8811,6.2959,6.5413,6.634,6.5263,6.1768,5.5086,4.853,4.5805,4.7951,5.4293,5.8312,5.951,6.2179,6.3532,6.3391,6.3916,6.5418,6.789,6.8004,6.8907,6.9996,7.0496,7.0443,7.0282,7.039,7.038,7.0201,6.8405,6.2406,5.4205,5.0519,4.2891,3.397,3.2651,2.8173,2.2699,2.0557,0.0,0.0,0.0,0.0,0.0,0.0,0.0,0.0,0.0,0.0,0.0,0.0,0.0,0.0,0.0,0.0,0.0,0.0,0.0,0.0,0.0,0.0,0.0,0.0,-6.4089,-6.998,-7.3611,-7.9248,-8.4894,-9.0015,-9.2773,-9.4583,-9.5489,-9.588,-9.6324,-9.6926,-9.706,-9.7441,-9.8185,-9.8091,-9.8403,-9.9184,-9.812,-9.7249,-9.6705,-9.5357,-9.4302,-9.3524,-9.4041,-9.4212,-9.4212,-9.5331,-9.6243,-9.7018,-9.844,-9.9441,-10.0197,-10.1103,-10.1519,-10.1212,0.0,0.0,0.0,0.0,-10.0119,-9.9602,2.7509,2.639,2.5356,2.53,2.4047,2.3065,2.3065,2.4531,2.981,4.1596,4.4584,5.0558,6.3563,6.5024,6.5562,6.6879,6.3468,5.804,5.0621,4.4813,4.6293,5.6531,5.6027,5.7743,6.2206,6.2289,6.2452,6.2914,6.4062,6.4936,6.5828,6.6432,6.6606,6.6457,6.8032,6.8389,6.8011,6.9545,7.0337,7.0569,6.9654,6.4425,5.6772,5.4117,4.7054,3.8611,3.8571,3.6314,3.267,2.7789,0.0,0.0,0.0,0.0,0.0,0.0,0.0,0.0,0.0,0.0,0.0,0.0,0.0,0.0,0.0,0.0,0.0,0.0,0.0,0.0,0.0,0.0,0.0,0.0,-6.7883,-7.5607,-8.3413,-8.6429,-8.8854,-9.153,-9.2886,-9.4276,-9.5933,-9.6209,-9.6956,-9.8587,-9.8295,-9.8475,-9.9415,-9.912,0.0,0.0,0.0,-9.9517,-10.0195,-9.8864,-9.78,-9.7026,-9.8612,-9.9367,-9.9405,-10.086,-10.1598,-10.1598,-10.1826,-10.1977,-10.2091,-10.2166,-10.228,-10.228,-10.188,-10.1896,-10.2192,-10.2894,-10.3075,-10.3228,2.6841,2.6014,2.5245,2.4624,2.3721,2.3065,2.3065,2.4531,2.981,4.1596,4.4584,5.0558,6.3563,6.5024,6.5562,6.6879,6.3887,5.9037,5.2292,5.1766,5.2943,5.5661,5.9511,6.1572,6.1581,6.1608,6.1196,6.0327,6.084,6.2351,6.455,6.5136,6.6504,6.8335,6.7724,6.7341,6.7174,6.6623,6.7203,6.8461,6.6247,6.5831,6.5912,6.1498,5.7934,5.4942,5.155,4.8112,4.4124,3.8109,2.9327,1.8451,0.4273,-0.494,0.0,0.0,0.0,0.0,0.0,0.0,0.0,0.0,0.0,0.0,0.0,0.0,0.0,0.0,0.0,0.0,0.0,0.0,0.0,-6.905,-7.4779,-8.0277,-8.5653,-8.7677,-8.9412,-9.1411,-9.3163,-9.4729,-9.5963,-9.6869,-9.7758,-9.8626,-9.9046,-9.9817,-10.1109,-10.0277,-10.0596,-10.2289,-10.14,-10.0612,-10.0185,-10.0506,-10.0299,-9.9631,-10.0613,0.0,-10.1066,-10.1985,-10.2512,-10.2474,-10.3811,-10.4802,-10.5486,-10.6221,-10.6912,-10.7204,-10.4609,-10.4313,-10.5634,-10.5712,-10.5799,-10.5837,2.7029,2.6273,2.5652,2.519,2.4448,2.3879,2.3602,2.4958,2.9158,3.7784,4.0427,4.5204,5.508,5.5938,5.6142,5.7108,5.5204,5.3148,5.1197,5.2447,5.4761,5.8185,6.026,6.1084,6.0526,6.0658,6.038,5.9483,6.0337,6.1494,6.2663,6.323,6.4247,6.5395,6.5833,6.5829,6.5505,6.5636,6.6254,6.6932,6.5304,6.5527,6.6232,6.3185,6.0946,5.9021,5.5523,5.1604,4.7069,4.0612,3.3409,2.4416,0.9035,-0.2549,-1.1749,0.0,0.0,0.0,0.0,0.0,0.0,0.0,0.0,0.0,0.0,0.0,0.0,0.0,0.0,-5.4044,-5.7119,0.0,-6.7796,-7.3479,-7.7973,-8.2287,-8.6895,-8.8073,-8.909,-9.0642,-9.2081,-9.359,-9.5147,-9.5871,-9.7145,-9.9356,-9.9651,-10.0392,-10.1798,-10.1301,-10.1395,-10.2597,-10.2212,-10.2015,-10.2101,-10.2484,-10.2502,-10.2091,-10.2904,-10.3133,-10.2713,-10.3496,-10.4093,-10.4598,-10.5396,-10.6482,-10.7713,-10.8098,-10.879,-10.9402,-10.7695,-10.733,-10.7697,-10.77,-10.7682,-10.7662,2.7499,2.6809,2.6175,2.573,2.5231,2.4682,2.423,2.536,2.8312,3.4086,3.609,3.9513,4.6345,4.6594,4.6281,4.6423,4.6682,4.7676,4.9638,5.2104,5.5802,6.0832,6.0202,5.9834,5.9834,6.0261,6.0261,5.9834,6.0738,6.1115,6.104,6.1592,6.1843,6.1843,6.3491,6.3959,6.3515,6.4653,6.5298,6.5537,6.4618,6.3903,6.3163,6.1575,6.0013,5.8082,5.5201,5.1455,4.6761,4.0066,3.3935,2.6659,1.1698,-0.0972,-1.2088,-2.023,-2.4951,0.0,0.0,0.0,0.0,0.0,0.0,0.0,0.0,-4.9372,-5.0488,-5.4045,-5.6507,-5.8839,-6.1915,-6.6502,-7.1469,-7.6275,-7.9745,-8.3151,-8.7054,-8.7886,-8.8635,-8.9991,-9.0979,-9.2328,-9.4327,-9.5147,-9.6869,-10.0117,-10.0389,-10.0982,-10.2379,-10.2021,-10.209,-10.2905,-10.2674,-10.2981,-10.3905,-10.4097,-10.4097,-10.4097,-10.4982,-10.4982,-10.4405,-10.5097,-10.5713,-10.6405,-10.6713,-10.7713,-10.8906,-10.9098,-10.9598,-11.0214,-10.9983,-10.9483,-10.8902,-10.9323,-10.943,-10.9404,2.7958,2.7247,2.6269,2.5115,2.4872,2.4808,2.4732,2.5285,2.785,3.3954,3.5357,3.8363,4.5109,4.5381,4.4385,4.2587,4.7593,5.03,4.9127,5.5076,5.9033,5.9665,6.0569,6.0989,6.0989,6.1065,6.1065,6.0989,6.1115,6.0914,6.0437,6.1014,6.1266,6.1266,6.1584,6.1533,6.1483,6.1697,6.2716,6.397,6.1762,6.0607,6.0072,5.7271,5.652,5.6398,5.248,4.944,4.6049,3.8491,2.8907,1.7819,0.4879,-0.5714,-1.5048,-2.368,-2.74,-2.9082,-3.05,-3.5414,-4.0995,-4.4784,-4.7659,-5.1416,0.0,-5.8983,-5.9413,-6.4964,-6.7361,-6.9268,-7.1618,-7.4186,-7.67,-7.8937,-8.1555,-8.391,-8.5471,-8.7077,-8.8629,-9.0103,-9.1173,-9.2518,-9.4309,-9.6785,-9.8821,-10.0195,-10.1482,-10.2587,-10.358,-10.2412,-10.2406,-10.4002,-10.3095,-10.2981,-10.3905,-10.4597,-10.4982,-10.4982,-10.579,-10.6213,-10.6097,-10.6213,-10.629,-10.6521,-10.7982,-10.8713,-10.8983,-10.9713,-11.0098,-11.0098,-10.929,-10.8983,-10.9098,-11.0589,-11.1204,-11.1198,2.8629,2.7857,2.6961,2.5921,2.5787,2.5561,2.4908,2.5259,2.6409,2.8664,2.9412,3.0987,3.4203,3.4039,3.3584,3.3376,4.0833,4.5742,4.5911,5.4138,5.9056,5.9056,6.0085,6.0688,6.0688,6.1014,6.1014,6.0688,6.0688,6.0563,6.0337,6.0563,6.0864,6.119,6.119,6.119,6.1165,6.0814,6.1312,6.2118,5.9168,5.7972,5.7701,5.3333,5.1689,5.1604,5.004,4.8702,0.0,3.2126,2.2625,1.4069,0.1047,-1.0425,-2.0091,-2.4554,-2.7865,-3.1662,-3.8953,-4.2702,-4.6205,-5.3518,-5.5454,-5.6621,-6.0615,-6.1774,-6.265,-6.4795,-6.7268,-6.9873,-7.2466,-7.4455,-7.6699,-8.0072,-8.1952,-8.3611,-8.5373,-8.666,-8.7973,-8.9415,-9.0418,-9.2105,-9.4971,-9.6725,-9.8636,-10.0897,-10.1595,-10.2308,-10.2988,-10.3006,-10.3078,-10.3482,-10.4023,-10.4209,-10.3905,-10.5213,-10.5597,-10.5097,-10.602,-10.6097,-10.5597,-10.5597,-10.5905,-10.6521,-10.8213,-10.8906,-10.8906,-10.929,-10.9406,-10.9406,-10.8983,-10.8906,-10.8983,-11.0291,-11.0714,-11.0791,2.9045,2.8103,2.7162,2.6602,2.6339,2.5963,2.5159,2.5234,2.5234,2.4883,2.5008,2.531,2.5737,2.541,2.5611,2.6716,3.4449,4.0501,4.3388,5.1925,5.7374,5.8453,5.9508,6.0085,6.0085,6.0512,6.0588,6.0311,5.9508,5.9094,5.9118,5.8594,5.8472,5.8862,5.97,6.0094,6.0069,6.0172,6.0222,5.9835,5.7093,5.555,5.4439,5.0343,4.7051,4.498,4.6959,4.4569,3.8525,2.3784,1.3916,0.5972,-0.401,-1.4412,-2.3379,-2.587,-2.872,-3.3076,-4.2556,-4.5962,-4.9099,-5.8087,-6.0233,-6.0305,-6.1184,-6.2476,-6.3473,-6.2908,-6.5466,-6.8528,-7.1027,-7.3231,-7.5939,-7.9931,-8.1648,-8.3263,-8.5408,-8.6623,-8.7847,-8.9265,-9.0145,-9.2011,-9.5373,-9.6682,-9.8318,-10.0613,-10.1483,-10.1988,-10.2218,-10.3006,-10.3279,-10.3108,-10.4199,-10.4493,-10.3905,-10.529,-10.5713,-10.5097,-10.602,-10.6097,-10.5482,-10.5482,-10.579,-10.6521,-10.7905,-10.8598,-10.8598,-10.8598,-10.8598,-10.8482,-10.829,-10.8406,-10.8713,-10.9483,-10.9983,-11.0291,2.9002,2.767,2.6533,2.6533,2.5988,2.5611,2.5586,2.5159,2.4833,2.4833,2.4381,2.4054,2.4079,2.4054,2.4481,2.5561,3.0859,3.6659,4.261,4.8837,5.3984,5.775,5.8956,5.9508,5.9508,5.9533,5.9809,6.0311,5.7618,5.6375,5.6263,5.4092,5.3109,5.3318,5.5928,5.7162,5.7323,5.9474,5.9157,5.7252,5.6041,5.3176,4.9216,4.8607,4.3002,3.6347,4.26,3.5197,2.1554,1.4033,0.2097,-0.9877,-1.2017,-1.7279,-2.3673,-2.8846,-3.0804,-3.2187,-3.683,-4.1609,-4.6944,-5.3698,-5.8815,-6.2065,-6.1489,-6.1982,-6.2231,-6.1813,-6.4277,-6.7065,-6.8506,-7.2067,-7.5539,-7.8245,-8.0872,-8.3198,-8.5134,-8.6906,-8.8607,-9.0109,-9.0884,-9.241,-9.5128,-9.7126,-9.8416,-9.8773,-10.1316,-10.25,-10.1718,-10.2185,-10.279,-10.3413,-10.3186,-10.33,-10.3905,-10.4713,-10.5097,-10.5097,-10.602,-10.6405,-10.6405,-10.6405,-10.6405,-10.6405,-10.729,-10.7713,-10.7713,-10.7713,-10.7713,-10.7713,-10.679,-10.7021,-10.779,-10.8598,-10.9483,-11.0291,2.9002,2.767,2.6533,2.6533,2.5988,2.5485,2.5134,2.4632,2.413,2.3753,2.3552,0.0,0.0,0.0,0.0,0.0,2.9804,3.4123,3.7287,4.5623,5.1172,5.2854,5.647,5.8604,5.8981,5.8981,5.8564,5.7594,5.6606,5.5366,5.3906,5.3251,5.2921,5.2921,5.3925,5.4138,5.4003,5.4649,5.4649,5.3934,5.1634,4.8414,4.4447,4.124,3.618,3.0286,0.0,2.5027,1.9644,0.4552,-0.4244,-0.9586,-1.2679,-1.4919,-1.7825,-2.5001,-2.9223,-3.2983,-3.9708,-4.5671,-5.1184,-5.6399,-5.981,-6.172,-6.1533,-6.198,-6.2042,-6.0607,-6.2886,-6.55,-6.6944,-7.0136,-7.3793,-7.7581,-8.0189,-8.2691,-8.5336,-8.7082,-8.8666,-9.0201,-9.097,-9.2404,-9.4921,-9.6356,-9.781,-9.9388,-10.0415,-10.1113,-10.1601,-10.2301,-10.3015,-10.3394,-10.3911,-10.4083,-10.3905,-10.4713,-10.5097,-10.5097,-10.602,-10.6405,-10.6405,-10.6405,-10.6405,-10.6405,-10.6713,-10.679,-10.679,-10.679,-10.679,-10.679,-10.6521,-10.6905,-10.779,-10.8598,-10.979,-11.1098,2.8648,2.7404,2.6533,2.6533,2.5988,0.0,0.0,0.0,0.0,0.0,0.0,0.0,0.0,0.0,0.0,0.0,0.0,3.035,3.3365,4.0053,4.4606,4.6314,4.9859,5.1817,5.1919,5.1861,5.1479,5.0859,5.1082,5.0721,4.9377,4.9795,4.9775,4.9603,5.0404,5.0665,5.0696,5.1327,5.0835,4.9469,4.6748,4.307,3.8734,3.506,2.9722,0.0,1.992,1.747,1.4048,-0.0469,-0.6355,-0.8534,-1.3446,-1.5708,-1.771,-2.3856,-2.7702,-3.1805,-4.0053,-4.5708,-5.0634,-5.6614,-5.8827,-5.949,-5.9462,-6.03,-6.0392,-5.8071,-6.0173,-6.2999,-6.5074,-6.8034,-7.1819,-7.6948,-8.0036,-8.2727,-8.5264,-8.7534,-8.922,-8.993,-9.109,-9.2537,-9.4443,-9.5499,-9.6786,-9.8579,-9.9734,-10.0485,-10.1004,-10.2186,-10.2983,-10.3091,-10.351,-10.3691,-10.3594,-10.4292,-10.4982,-10.5597,-10.6097,-10.6405,-10.6405,-10.6526,-10.6486,-10.6486,-10.6486,-10.6486,-10.6602,-10.6794,-10.6905,-10.6905,-10.7213,-10.779,-10.8713,-10.9483,-11.0714,-11.1906,2.7974,2.7027,2.6533,0.0,0.0,0.0,0.0,0.0,0.0,0.0,0.0,0.0,0.0,0.0,0.0,0.0,0.0,0.0,3.0855,3.2461,3.4769,3.8381,3.9842,4.0362,3.9826,3.9473,3.9826,4.108,4.1786,4.2343,4.2707,4.3559,4.3594,4.3347,4.5345,4.651,4.7027,4.8586,4.7181,4.37,4.1439,3.7092,3.1982,2.9878,2.3921,1.687,1.74,1.2593,0.5063,-0.1218,-0.4831,-0.7844,-1.4593,-1.9098,-2.2568,-2.5588,-2.6695,-2.881,-3.774,-4.2049,-4.5858,-5.3813,-5.5871,-5.5889,-5.5439,-5.6814,-5.7343,-5.4143,-5.6138,-5.9344,-6.2395,-6.5472,-6.9632,-7.5903,-8.0121,-8.3234,-8.5051,-8.8304,-9.0168,-8.9523,-9.1317,-9.3015,-9.3892,-9.4635,-9.5499,-9.6599,-9.9397,-10.0685,-9.9953,-10.1785,-10.2686,-10.2402,-10.2195,-10.2295,-10.2901,-10.3594,-10.4791,-10.6407,-10.6409,-10.6409,-10.6371,-10.6691,-10.6804,-10.6804,-10.6804,-10.6774,-10.6898,-10.749,-10.7716,-10.779,-10.8713,-10.9483,-11.0406,-11.1214,-11.2099,-11.2791,0.0,0.0,0.0,0.0,0.0,0.0,0.0,0.0,0.0,0.0,0.0,0.0,0.0,0.0,0.0,0.0,0.0,0.0,2.5445,2.8775,3.1365,3.3087,3.6555,3.8847,3.9403,3.9286,3.878,3.7857,3.8092,3.7464,3.5962,3.611,3.6152,3.6035,3.6559,3.6844,3.6643,3.7034,3.6343,3.4612,3.3178,2.9578,2.4823,2.2419,1.7794,1.2395,1.0942,0.8444,0.5072,0.0366,-0.593,-1.2356,-1.5681,-1.7786,-2.0015,-2.4882,-2.7259,-3.0033,-3.8401,-4.285,-4.6279,-5.0289,-5.2591,-5.372,-5.3583,-5.2961,-5.2235,-5.1483,-5.1351,-5.168,-5.2073,-5.9182,-6.5804,-6.8522,-7.6572,-8.3412,-8.5808,-8.8157,-8.997,-9.0975,-9.2526,-9.393,-9.4769,-9.5517,-9.6425,-9.7518,-9.849,-9.9279,-9.9866,-10.1199,-10.1788,-10.1505,-10.1299,-10.1401,-10.1981,-10.4126,-10.5299,-10.5686,-10.661,-10.7016,-10.7016,-10.7091,-10.7099,-10.7099,-10.7099,-10.7417,-10.7819,-10.7885,-10.822,-10.8713,-10.9483,-11.0406,-11.1291,-11.2099,-11.3291,-11.4599,0.0,0.0,0.0,0.0,0.0,0.0,0.0,0.0,0.0,0.0,0.0,0.0,0.0,0.0,0.0,0.0,0.0,0.0,0.0,2.4566,2.5939,2.6168,2.9105,3.0661,3.0718,3.0392,3.0068,2.9891,3.0683,3.0648,3.0078,3.1016,3.1348,3.1172,3.1172,3.1133,3.1094,3.1094,3.0141,0.0,0.0,2.3763,1.943,1.7098,1.3817,1.0242,0.8558,0.7234,0.5101,-0.2251,-0.9998,-1.6922,-1.8482,-1.9673,-2.1351,-2.627,-2.8311,-3.0721,-3.7922,-4.222,-4.5299,-4.8495,-5.031,-5.0622,-4.8345,-4.8299,-4.8053,-4.562,-4.6213,-4.811,-5.1213,-5.8215,-6.4835,-6.8698,-7.7085,-8.3626,-8.5535,-8.8107,-9.021,-9.1098,-9.2881,-9.4187,-9.4642,-9.57,-9.6705,-9.7633,-9.8435,-9.9351,-10.0412,-10.1589,-10.1912,-10.1416,-10.1111,-10.1291,-10.1919,-10.3976,-10.5321,-10.5709,-10.6694,-10.7207,-10.7207,-10.7282,-10.7605,-10.7917,-10.7917,-10.8394,-10.901,-10.9092,-10.9432,-10.9803,-11.0875,-11.1598,-11.2214,-11.3407,-11.4484,-11.5407,0.0,0.0,0.0,0.0,0.0,0.0,0.0,0.0,0.0,2.3703,2.3879,2.4079,2.4004,2.4004,0.0,0.0,0.0,0.0,0.0,0.0,2.0165,1.9551,2.0503,2.0617,1.9668,1.8926,1.9297,2.0801,2.2305,2.3594,2.4746,2.6602,2.7285,2.6934,2.6875,2.7051,2.7383,2.7383,2.6064,2.3841,2.2168,1.9186,1.557,0.0,1.1528,0.9675,0.8826,0.7845,0.5354,-0.5678,-1.4127,-2.032,-2.2039,-2.3355,-2.5034,-2.8538,-2.9521,-3.1044,-3.7273,-4.0446,-4.3224,-4.7589,-4.8671,-4.7217,-4.2211,-4.3408,-4.4165,-3.9236,-4.1096,-4.5999,-5.3195,-5.8427,-6.3922,-7.0453,-7.7508,-8.2613,-8.4166,-8.7522,-8.9956,-9.0519,-9.248,-9.3803,-9.3913,-9.5172,-9.6481,-9.7631,-9.8854,-10.0003,-10.1094,-10.2289,-10.2382,-10.1405,-10.1007,-10.1191,-10.1895,-10.3608,-10.4989,-10.6002,-10.6896,-10.7303,-10.7321,-10.7481,-10.8089,-10.8792,-10.8909,-10.9408,-11.0196,-11.0597,-11.0778,-11.1118,-11.2387,-11.2988,-11.3214,-11.4907,-11.5484,-11.5599,0.0,0.0,0.0,0.0,0.0,0.0,0.0,0.0,0.0,0.0,2.5184,2.4506,0.0,0.0,0.0,0.0,0.0,0.0,0.0,0.0,0.0,1.7812,1.8014,1.8192,1.834,1.8203,1.8262,1.8574,1.8867,1.9121,1.9355,1.9727,1.9863,1.9785,1.9434,1.9316,1.9375,1.9375,1.8932,1.8011,1.6351,1.5052,1.3835,1.1783,1.0803,0.0,1.0113,0.918,0.6621,-0.2694,-1.0813,-1.8313,-2.4634,-2.7456,-2.863,-2.9927,-3.0402,-3.1861,-3.7392,-3.9358,-4.0791,-4.5609,-4.659,-4.5123,-4.0597,-4.0289,-4.0129,-3.6975,-3.7407,-3.9643,-4.3808,-5.0172,-5.6066,-6.0072,-6.8025,-7.5734,-8.1415,-8.3967,-8.6555,-9.0217,-9.152,-9.2361,-9.2953,-9.3812,-9.5597,-9.8648,-9.9134,-9.9755,-10.0803,-10.2185,-10.2103,-10.029,-9.9446,-9.967,-10.0981,-10.2996,-10.4712,-10.6311,-10.7385,-10.7917,-10.7917,-10.7884,-10.8005,-10.8201,-10.8904,-10.9583,-11.0314,-11.1006,-11.1916,-11.2783,-11.3799,-11.4395,-11.4984,-11.5907,-11.6292,-11.6407,0.0,0.0,0.0,0.0,0.0,0.0,0.0,2.7268,2.7419,2.885,2.8072,2.6866,2.5435,2.4782,2.3991,0.0,0.0,0.0,0.0,0.0,0.0,1.7051,1.7051,1.7129,1.7344,1.7109,1.7227,1.7695,0.0,1.6894,1.7344,1.6875,1.6543,1.6328,1.6113,1.6035,1.6035,1.6035,1.5792,1.5284,1.4087,1.3233,1.2492,1.1101,1.0484,0.0,1.1238,1.11,0.9593,0.2831,-0.1655,-0.6775,-2.1519,-2.7862,-2.8804,-2.3894,-2.6546,-3.0912,-3.0839,-3.4763,-4.0033,-4.4755,-4.5644,-4.3427,-3.6219,-3.6014,-3.6264,-3.1996,-3.3886,-3.7905,-4.3389,-4.9504,-5.4979,-5.8899,-6.7497,-7.5119,-7.9252,-8.3882,-8.765,-8.9709,-9.1017,-9.1956,-9.2727,-9.3487,-9.5317,-9.873,-9.9104,-9.9925,-10.1618,-10.2002,-10.1794,-10.0801,-9.9937,-10.0311,-10.1904,-10.3279,-10.4901,-10.662,-10.7497,-10.8008,-10.8008,-10.8008,-10.8203,-10.8711,-10.9609,-11.0386,-11.1106,-11.1798,-11.2615,-11.3512,-11.408,-11.4472,-11.4714,-11.5599,-11.5907,-11.5907,0.0,0.0,0.0,0.0,0.0,0.0,2.9302,2.9051,2.9352,3.1311,3.0733,2.9251,2.698,2.5617,2.4124,0.0,0.0,0.0,0.0,0.0,0.0,0.0,0.0,0.0,1.6445,0.0,0.0,1.6953,1.5918,0.0,0.0,0.0,0.0,0.0,1.4824,1.4785,1.4785,1.4785,1.462,0.0,0.0,1.2642,1.1965,0.0,0.0,0.0,0.0,1.279,1.2377,0.8035,0.6989,0.4327,-1.3144,-2.0828,-2.2288,-1.6626,-2.1008,-2.7386,-2.6588,-3.2528,-4.0016,-4.4622,-4.541,-4.2471,-3.3134,-3.3367,-3.3976,-2.8807,-3.2161,-3.8138,-4.5215,-5.0062,-5.4491,-5.9204,-6.6451,-7.2884,-7.6975,-8.2441,-8.6814,-8.89,-8.9867,-9.0775,-9.1978,-9.2872,-9.4669,-9.7786,-9.8907,-10.0322,-10.2296,-10.1788,-10.1511,-10.1519,-10.0699,-10.1091,-10.289,-10.3789,-10.5,-10.6719,-10.7617,-10.8008,-10.8008,-10.8008,-10.8398,-10.9101,-10.9883,-11.0703,-11.1406,-11.2194,-11.2787,-11.3389,-11.3989,-11.4119,-11.4099,-11.4984,-11.5291,-11.5407,0.0,0.0,0.0,0.0,0.0,0.0,2.8825,2.9779,3.0809,3.1989,3.1612,3.0263,2.7686,2.6045,2.3807,0.0,0.0,0.0,0.0,0.0,0.0,0.0,0.0,0.0,0.0,0.0,0.0,1.5586,1.5469,0.0,0.0,0.0,0.0,0.0,0.0,1.4785,1.4785,1.4785,0.0,0.0,0.0,0.0,0.0,0.0,0.0,0.0,0.0,1.3159,1.3817,1.1143,0.94,0.7589,0.2962,-0.027,-0.3736,-1.1959,-1.5015,-1.8746,-3.2847,-3.7843,-4.0248,-4.4983,-4.5625,-4.2954,-3.4845,-3.4803,-3.5402,-3.15,-3.4414,-3.9518,-4.5464,-4.7543,-5.0219,-5.6054,-5.7663,-6.2318,-7.4156,-7.5408,-7.8382,-8.7231,-8.6903,-8.6937,-8.9373,-9.0962,-9.2872,-9.5356,-9.8468,-10.0806,-10.209,-10.1309,-10.1018,-10.1202,-10.0382,-10.0897,-10.289,-10.3789,-10.5,-10.6719,-10.7617,-10.8008,-10.8008,-10.8008,-10.8008,-10.8203,-10.8984,-10.9492,-10.9687,-11.1289,-11.211,-11.2478,-11.3311,-11.3809,-11.4099,-11.4984,-11.5291,-11.5484,0.0,0.0,0.0,0.0,0.0,0.0,3.008,3.0256,3.0984,3.342,3.2943,3.1156,2.7848,2.6589,2.42,1.9922,0.0,0.0,0.0,0.0,0.0,0.0,0.0,0.0,0.0,0.0,1.541,1.541,1.541,0.0,0.0,0.0,0.0,0.0,0.0,1.4785,1.4785,1.4785,0.0,0.0,0.0,0.0,0.0,0.0,0.0,0.0,0.0,0.0,1.6092,1.6538,1.7213,1.781,1.7433,1.715,1.5066,0.4825,-0.6396,-1.6402,-2.0043,-2.9523,-3.9422,-4.428,-4.4883,-4.2198,-3.449,-3.4558,-3.5288,-3.1536,-3.4593,-3.925,-4.3726,-4.5897,-4.8163,-5.1756,-5.5588,-6.0948,-6.9147,-7.3594,-7.8289,-8.4421,-8.5332,-8.6053,-8.7683,-8.9741,-9.2559,-9.64,-9.8504,-10.0211,-10.151,-10.1604,-10.1603,-10.1705,-10.1393,-10.1891,-10.3178,-10.4115,-10.509,-10.6182,-10.7317,-10.7814,-10.7814,-10.7886,-10.8008,-10.8008,-10.8906,-10.9609,-11.0195,-11.1406,-11.2506,-11.3288,-11.3496,-11.3601,-11.3622,-11.4305,-11.4484,-11.4714,0.0,0.0,0.0,0.0,0.0,2.8549,3.0809,3.0783,3.1336,3.3671,3.3034,3.1174,2.7759,2.6084,2.3665,1.9782,1.8726,0.0,0.0,0.0,0.0,0.0,0.0,0.0,0.0,0.0,1.5605,1.5605,1.5742,1.5801,0.0,0.0,1.5449,1.5156,0.0,0.0,0.0,0.0,0.0,0.0,0.0,0.0,0.0,0.0,0.0,0.0,0.0,0.0,0.0,0.0,0.0,2.3473,2.5214,2.6063,2.4643,1.5456,0.2954,-0.89,-1.3155,-2.4,-3.5902,-4.3159,-4.3789,-4.0919,-3.4777,-3.4389,-3.4657,-3.2191,-3.5202,-3.9319,-4.2598,-4.5078,-4.7388,-4.9694,-5.421,-5.9843,-6.6714,-7.1597,-7.6196,-8.0995,-8.225,-8.3324,-8.4902,-8.8373,-9.2367,-9.7021,-9.792,-9.8954,-10.0519,-10.1013,-10.1487,-10.2295,-10.2412,-10.2883,-10.4094,-10.4989,-10.5923,-10.6702,-10.7795,-10.8217,-10.7983,-10.8311,-10.8203,-10.8008,-10.8593,-10.9414,-11.0312,-11.1211,-11.2209,-11.3318,-11.3295,-11.3085,-11.2899,-11.3777,-11.4074,-11.4214,0.0,0.0,0.0,0.0,0.0,0.0,3.0457,3.1512,3.219,3.224,3.1369,2.991,2.7567,2.4399,2.1741,1.9997,1.8359,0.0,0.0,0.0,0.0,0.0,0.0,0.0,0.0,0.0,1.6115,1.6115,1.6504,1.6719,1.6719,1.6269,1.6115,1.6096,0.0,0.0,0.0,0.0,0.0,0.0,0.0,0.0,0.0,0.0,0.0,0.0,0.0,0.0,0.0,0.0,0.0,0.0,0.0,2.4257,2.1753,1.5363,1.2749,0.6632,-1.798,-2.4899,-2.8483,-4.1674,-4.2461,-3.918,-3.6363,-3.4723,-3.3811,-3.4052,-3.682,-4.0112,-4.2717,-4.5271,-4.7942,-5.0916,-5.2439,-5.7135,-6.8206,-6.8236,-6.9788,-7.7106,-7.7045,-7.7561,-8.0458,-8.6702,-9.2166,-9.6196,-9.6517,-9.7234,-9.8952,-9.9027,-10.0174,-10.291,-10.3017,-10.3884,-10.5882,-10.672,-10.7615,-10.851,-10.9614,-10.97,-10.8919,-10.9209,-10.8789,-10.8008,-10.8008,-10.8515,-10.9414,-11.0312,-11.0998,-11.1612,-11.2393,-11.2426,-11.2079,-11.3789,-11.4201,-11.4214,0.0,0.0,0.0,0.0,0.0,0.0,2.993,3.0331,3.0809,3.1562,3.1091,2.9649,2.7107,2.5094,2.2864,2.0112,1.8633,0.0,0.0,0.0,0.0,0.0,0.0,0.0,0.0,1.6289,1.6797,1.7383,1.7812,1.7959,1.7959,1.7598,1.709,1.6504,1.6055,1.5684,0.0,0.0,0.0,0.0,0.0,0.0,0.8831,0.0,0.0,0.0,0.0,0.0,0.0,0.0,0.0,0.0,0.0,0.0,0.0,1.9447,1.4307,0.686,-0.3386,-1.3161,-2.1738,-2.7757,-3.4314,-3.8037,-3.2644,-3.313,-3.4776,-3.5091,-3.7745,-4.0789,-4.3244,-4.5043,-4.7416,-5.1266,-5.2608,-5.6449,-6.5848,-6.799,-7.104,-7.7611,-7.9812,-8.208,-8.5503,-8.772,-9.0563,-9.4622,-9.5969,-9.7242,-9.8932,-9.9007,-9.9384,-10.0212,-10.0288,-10.0805,-10.2026,-10.343,-10.448,-10.5403,-10.7105,-10.7805,-10.7689,-10.7983,-10.8104,-10.8008,-10.8593,-10.9414,-11.0312,-11.1093,-11.199,-11.2682,-11.2704,-11.2476,-11.2414,-11.3802,-11.4201,-11.4214,0.0,0.0,0.0,0.0,0.0,0.0,2.9729,2.9955,3.0181,3.0432,2.9841,2.853,2.621,2.4502,2.2499,2.0112,1.8887,0.0,0.0,0.0,0.0,0.0,0.0,0.0,1.6115,1.6504,1.7305,1.8496,1.8906,1.9297,1.9609,1.918,1.834,1.7187,1.6758,1.6133,0.0,0.0,0.0,0.0,0.0,0.0,0.9132,0.0,0.0,0.0,0.0,0.0,0.0,0.0,0.0,0.0,0.0,0.0,0.0,0.0,1.4791,0.8917,0.3544,-0.5182,-1.4316,-2.1463,-2.9225,-3.4346,-3.1804,-3.3293,-3.544,-3.6582,-3.9178,-4.1804,-4.3747,-4.5261,-4.7415,-5.0988,-5.2297,-5.5794,-6.4263,-6.7064,-7.0482,-7.6515,-7.9698,-8.261,-8.5832,-8.7958,-9.0515,-9.3974,-9.5457,-9.674,-9.8086,-9.8423,-9.8572,-9.8572,-9.9464,-10.0479,-10.1611,-10.3036,-10.4197,-10.5295,-10.6679,-10.7432,-10.7596,-10.7923,-10.8184,-10.8386,-10.8983,-11.0,0.0,-11.1718,-11.2383,-11.3203,-11.2986,-11.2694,-11.2598,-11.3817,-11.4189,-11.4277,0.0,0.0,0.0,0.0,0.0,0.0,0.0,3.0156,3.0105,2.9026,2.8044,2.686,2.5092,2.2852,2.101,1.9899,1.9062,0.0,0.0,0.0,0.0,0.0,0.0,0.0,1.6094,1.6582,1.7656,1.9375,1.9863,2.0527,2.1367,2.0937,1.9824,1.8125,1.7676,1.6699,0.0,0.0,0.0,0.0,1.1627,1.0956,0.0,0.0,0.0,0.0,0.0,0.0,0.0,0.0,0.0,0.0,0.0,0.0,0.0,0.0,0.0,0.0,0.0,-0.0705,-0.6566,-2.077,-2.6273,-2.9271,-3.3055,-3.4624,0.0,-3.8555,-4.0958,-4.3005,-4.4353,-4.5957,-4.7969,-5.0584,-5.195,-5.5485,-6.3691,-6.6101,-6.9174,-7.4833,-7.7752,-8.0283,-8.2792,-8.7684,-9.1657,-9.4042,-9.507,-9.5951,-9.6722,-9.7493,-9.7933,-9.797,-10.0188,-10.2245,-10.3677,-10.453,-10.5686,-10.7326,-10.7672,-10.7875,-10.7904,-10.849,-10.8792,-10.8891,-10.9209,-11.0312,-11.1914,-11.1992,-11.25,-11.3203,-11.3203,-11.299,-11.2783,-11.372,-11.4197,-11.4591,0.0,0.0,0.0,0.0,0.0,0.0,0.0,0.0,0.0,0.0,2.7703,2.6481,2.4226,2.2827,2.1167,0.0,0.0,0.0,0.0,0.0,0.0,0.0,0.0,0.0,1.6562,1.7324,1.8555,2.0254,2.1367,2.2187,2.2715,2.2598,2.1445,1.9434,1.8672,1.6919,0.0,0.0,0.0,0.0,1.1627,1.0524,0.0,0.0,0.0,0.0,0.677,0.6893,0.0,0.0,0.0,0.0,0.0,0.0,0.0,0.0,0.94,0.6882,0.1396,0.0,-0.0208,-0.9985,-2.0531,-2.8935,0.0,-3.455,-3.8154,-4.0249,-4.2192,-4.4184,-4.6103,-4.726,-4.9289,-5.3394,-5.5157,-5.8324,-6.4987,-7.0871,-7.5995,-8.0103,-8.1461,-8.3235,-8.6163,-8.9247,-9.1739,-9.3271,-9.5254,-9.6759,-9.7566,-9.7787,-9.819,-9.8814,-9.9977,-10.0758,-10.1203,-10.2003,-10.2864,-10.3918,-10.5208,-10.5985,-10.6218,-10.7207,-10.8088,-10.9008,-10.9912,-11.0898,-11.1992,-11.2617,-11.3008,-11.3203,-11.3203,-11.299,-11.29,-11.4383,-11.4893,-11.499,0.0,0.0,0.0,0.0,0.0,0.0,0.0,0.0,0.0,0.0,2.7469,2.6448,2.4189,2.3142,2.1629,0.0,0.0,0.0,0.0,0.0,0.0,0.0,0.0,1.6133,1.7012,1.7676,1.8945,2.0879,2.1973,2.293,2.373,2.3535,2.2285,2.0137,1.7935,1.5541,0.0,0.0,0.0,1.1783,1.1492,0.0,0.0,0.0,0.0,0.0,0.6443,0.6376,0.0,0.7628,0.8028,0.8208,0.0,0.0,0.0,0.0,0.2801,0.0419,-0.4651,-0.4043,-0.3932,-1.1824,-2.1205,-2.9301,-3.2462,-3.6381,-3.9959,-4.1931,-4.3355,-4.4805,-4.6776,-4.8694,-5.1118,-5.4479,-5.7287,-6.1086,-6.7125,-7.2749,-7.7474,-8.0554,-8.2042,-8.4084,-8.7072,-8.9436,-9.1393,-9.2977,-9.4997,-9.6355,-9.6795,-9.786,-9.8668,-9.9108,-9.965,-10.0125,-10.0319,-10.1087,-10.1907,-10.2673,-10.401,-10.4925,-10.5525,-10.6866,-10.8177,-10.9405,-11.0487,-11.1592,-11.25,-11.3008,-11.3203,-11.3203,-11.3203,-11.3316,-11.36,-11.4615,-11.5213,-11.5789,0.0,0.0,0.0,0.0,0.0,0.0,0.0,0.0,0.0,0.0,0.0,0.0,0.0,0.0,0.0,0.0,0.0,0.0,0.0,0.0,0.0,0.0,1.6445,1.6602,1.7559,1.793,1.916,2.1328,2.2266,2.332,2.4512,2.4219,2.2832,2.0449,1.651,1.3961,1.2432,1.1926,1.1595,1.149,1.145,0.0,0.0,0.0,0.0,0.0,0.0,0.0,0.0,0.702,0.7169,0.7068,0.7072,0.0,0.0,0.0,0.0,0.0,-1.2898,-1.3705,-1.409,-1.9686,-2.531,-3.0744,-3.5695,-3.9003,-4.1676,-4.3781,-4.4603,-4.558,-4.7725,-5.0265,-5.2885,-5.547,-5.9516,-6.4168,-6.9369,-7.3438,-7.6759,-7.9077,-8.1405,-8.3941,-8.6748,-8.8556,-9.0547,-9.2862,-9.4402,-9.5431,-9.5841,-9.7823,-9.8882,-9.8797,-9.9049,-9.9288,-9.9541,-10.0509,-10.1439,-10.2204,-10.3243,-10.4113,-10.5116,-10.7027,-10.8598,-10.9793,-11.0979,-11.2096,-11.3083,-11.3203,-11.3203,-11.3203,-11.3203,-11.3711,-11.4297,-11.4492,-11.5299,-11.6287,0.0,0.0,0.0,0.0,0.0,0.0,0.0,0.0,0.0,0.0,0.0,0.0,0.0,0.0,0.0,0.0,0.0,0.0,0.0,0.0,0.0,1.7812,1.7051,1.7207,1.8418,1.8516,1.9609,2.1777,2.3008,2.4062,2.498,2.5293,2.3691,2.0411,1.6187,1.4104,1.372,1.1891,1.1397,1.1784,1.153,0.0,0.0,0.0,0.0,0.0,0.0,0.0,0.0,0.7478,0.7414,0.658,0.4794,0.0,0.0,0.0,0.0,0.0,-2.2491,-2.7222,-2.8877,-2.6028,-3.0131,-3.5396,-3.7758,-4.095,-4.3975,-4.606,-4.6504,-4.7696,-5.1505,-5.2013,-5.3661,-5.9078,-6.4185,-6.8291,-7.0704,-7.4765,-7.8189,-7.9897,-8.2085,-8.4216,-8.6332,-8.7422,-8.9329,-9.2409,-9.3479,-9.5049,-9.7456,-9.786,-9.7904,-9.7499,-9.7579,-9.7048,-9.6078,-9.7912,-9.9201,-9.9956,-10.1278,-10.268,-10.4303,-10.6208,-10.8022,-10.9519,-11.0878,-11.2013,-11.2783,-11.3118,-11.3203,-11.3203,-11.3203,-11.3281,-11.3515,-11.4218,-11.4609,-11.4993,0.0,0.0,0.0,0.0,0.0,0.0,0.0,0.0,0.0,0.0,0.0,0.0,0.0,0.0,0.0,0.0,0.0,0.0,0.0,0.0,1.832,1.9004,1.8437,1.8379,1.8984,1.9902,2.123,2.291,2.4453,2.5508,2.6094,2.4162,2.2044,1.969,1.556,1.3666,1.3551,1.1885,1.1476,1.1864,0.0,0.0,0.0,0.0,0.0,0.0,0.0,0.0,0.0,0.0,0.644,0.4181,0.144,0.0,0.0,0.0,0.0,0.0,-2.71,-3.2658,-3.5872,-3.3694,-3.6441,-4.0351,-4.2833,-4.4421,-4.6258,-4.9341,-4.9901,-5.0505,-5.258,-5.4523,-5.7742,-6.3785,-6.7622,-7.0395,-7.1868,-7.5284,-7.8178,-7.9875,-8.1976,-8.4319,-8.6839,-8.7419,-8.8689,-9.1283,-9.2157,-9.3175,-9.4453,-9.5405,-9.5754,-9.5535,-9.6358,-9.6506,-9.5932,-9.7028,-9.7873,-9.8323,-10.0459,-10.237,-10.4086,-10.6299,-10.8293,-11.0097,-11.1209,-11.2091,-11.2715,-11.2884,-11.2998,-11.3203,-11.3203,-11.3515,-11.3984,-11.4883,-11.5195,-11.539,0.0,0.0,0.0,0.0,0.0,0.0,0.0,0.0,0.0,0.0,0.0,0.0,0.0,0.0,0.0,0.0,0.0,0.0,0.0,1.8105,1.8633,1.9727,1.9746,1.9941,2.0332,2.1543,2.291,2.4394,2.5937,2.6758,2.6797,2.2741,2.0268,1.9043,1.4956,1.3241,1.3279,1.2068,1.1703,1.1957,0.0,0.0,0.0,0.0,0.0,0.0,0.0,0.0,0.0,0.0,0.0,0.0,0.0,0.0,0.0,-1.8373,-2.1535,-2.395,-3.0298,-3.5605,-3.9503,-4.0013,-4.1615,-4.3832,-4.6637,-4.7033,-4.8059,-5.2123,-5.3019,-5.3185,-5.3584,-5.7501,-6.2279,-6.7071,-7.0019,-7.2073,-7.2997,-7.5832,-7.8408,-7.9681,-8.2126,-8.4679,-8.6954,-8.7331,-8.8216,-9.0246,-9.0939,-9.1457,-9.1917,-9.3144,-9.3686,-9.3396,-9.4994,-9.5631,-9.5159,-9.6291,-9.7043,-9.7528,-9.9787,-10.1838,-10.3502,-10.6202,-10.8299,-10.9992,-11.1284,-11.2117,-11.2509,-11.2592,-11.2916,-11.3081,-11.3203,-11.3593,-11.4297,-11.4883,-11.5312,-11.5586,0.0,0.0,0.0,0.0,0.0,0.0,0.0,0.0,0.0,0.0,0.0,0.0,0.0,0.0,0.0,0.0,0.0,0.0,0.0,1.8379,1.8809,1.9316,2.0469,2.1836,2.3437,2.3184,2.4082,2.6211,2.7129,2.7187,2.6387,2.2128,1.9834,1.8982,1.4774,1.3117,1.3621,1.2386,1.2011,1.2251,1.1984,0.0,0.0,0.0,0.0,0.0,0.0,0.0,0.0,0.0,0.0,0.0,0.0,0.0,-1.6536,-2.0267,-2.209,-2.4781,-3.3545,-3.8122,-4.0982,-4.3157,-4.3666,-4.4225,-4.6386,-4.7242,-4.8727,-5.345,-5.4672,-5.5159,-5.6108,-6.1194,-6.5651,-6.6933,-7.09,-7.395,-7.3817,-7.724,-7.9649,-7.9803,-8.3233,-8.5648,-8.5864,-8.6508,-8.7765,-8.9807,-9.0013,-9.0827,-9.266,-9.2896,-9.2427,-9.1298,-9.3236,-9.3306,-9.1471,-9.4474,-9.6791,-9.8234,-9.892,-10.0055,-10.1806,-10.5096,-10.7113,-10.8104,-11.0727,-11.1879,-11.2001,-11.2493,-11.2715,-11.2813,-11.3118,-11.3203,-11.3281,-11.3398,-11.3906,-11.4687,0.0,0.0,0.0,0.0,0.0,0.0,0.0,0.0,0.0,0.0,0.0,0.0,0.0,0.0,0.0,0.0,0.0,0.0,0.0,1.8164,1.8504,1.9086,1.9432,2.0291,2.1769,2.3994,2.6074,2.7969,2.8027,2.748,2.6328,2.1661,1.9312,1.8982,1.4531,1.3126,1.417,1.2774,1.2425,1.2812,1.2144,1.1757,0.0,0.0,0.0,0.0,0.0,0.0,0.0,0.0,0.2024,-0.3125,-0.72,-1.2819,-1.8512,-2.2035,-2.4883,-2.8217,-3.4193,-3.8877,-4.2078,-4.2314,-4.5075,-4.7852,-4.8219,-4.8978,-5.0461,-5.3194,-5.6051,-5.8156,-5.8427,-6.2883,-6.6519,-6.6475,-7.1298,-7.4889,-7.4613,-7.7046,-7.9479,-8.0927,-8.331,-8.5504,-8.7,-8.7414,-8.8074,-8.9267,-8.9443,-8.9727,-9.05,-9.05,-9.0323,-8.9853,-9.1819,-9.319,-9.3665,-9.5197,-9.7173,-9.9521,-9.9199,-10.0201,-10.2408,-10.4731,-10.6694,-10.864,-11.0214,-11.1187,-11.1918,-11.2091,-11.2406,-11.2676,-11.3118,-11.3203,-11.3203,-11.3203,-11.3789,-11.4609,0.0,0.0,0.0,0.0,0.0,0.0,0.0,0.0,0.0,0.0,0.0,0.0,0.0,0.0,0.0,0.0,0.0,0.0,1.8203,1.7927,1.7984,1.862,1.8621,1.9143,2.0441,2.3943,2.6346,2.7745,2.8058,2.726,2.5408,2.1554,1.9277,1.8271,1.4817,1.3818,1.4517,1.3174,1.2826,1.3146,1.2331,1.1629,0.0,0.0,0.0,0.0,0.0,0.0,0.0,0.0,-0.211,-0.6541,-1.1766,-1.6664,-2.1224,-2.4565,-2.81,-3.1799,-3.5799,-3.949,-4.2344,-4.2896,-4.5568,-4.7968,-4.8021,-5.0332,-5.3047,-5.4582,-5.6768,-5.8871,-6.0478,-6.3531,-6.6189,-6.7198,-7.1199,-7.4541,-7.5143,-7.6934,-7.9245,-8.1662,-8.3551,-8.5517,-8.7811,-8.8192,-8.8531,-8.9038,-8.9072,-8.9072,-8.9072,-8.9072,-8.9072,-8.9072,-9.1151,-9.3062,-9.494,-9.5683,-9.7428,-10.0283,-9.9475,-10.0085,-10.2128,-10.3972,-10.5922,-10.7887,-10.8902,-11.0028,-11.0988,-11.1279,-11.1982,-11.2676,-11.3118,-11.3203,-11.3203,-11.3203,-11.3789,-11.4609,0.0,0.0,0.0,0.0,0.0,0.0,0.0,0.0,0.0,0.0,0.0,0.0,0.0,0.0,0.0,0.0,0.0,0.0,1.8562,1.7763,1.7424,1.7841,1.8106,1.8885,2.0424,2.284,2.4464,2.5393,2.6883,2.6231,2.3455,2.1949,1.9644,1.6725,1.5898,1.5097,1.4456,1.3587,1.3213,1.3173,1.2559,1.1441,1.0113,0.0,0.0,0.0,0.0,0.0,0.0,0.0,-0.8033,-1.1728,-2.0766,-2.4116,-2.5371,-2.7875,-3.1249,-3.5037,-3.8743,-4.0139,-4.1585,-4.591,-4.4942,-4.3484,-4.5256,-5.1017,-5.6397,-5.8079,-5.6742,-5.6947,-6.1959,-6.3275,-6.4988,-6.8883,-7.1058,-7.2951,-7.5502,-7.727,-7.9245,-8.1694,-8.4007,-8.6081,-8.7878,-8.8666,-8.9072,-8.9072,-8.9072,-8.9072,-8.9072,-8.9072,-8.9072,-8.9072,-9.1044,-9.2783,-9.4065,-9.5307,-9.7464,-10.0283,-9.9512,-9.9548,-10.0356,-10.2945,-10.4421,-10.5294,-10.7012,-10.8098,-10.8986,-11.0094,-11.1399,-11.2715,-11.3118,-11.3203,-11.3203,-11.3203,-11.3789,-11.4609,0.0,0.0,0.0,0.0,0.0,0.0,0.0,0.0,0.0,0.0,0.0,0.0,0.0,0.0,0.0,0.0,0.0,0.0,1.8562,1.8062,1.7309,1.6365,1.745,1.7721,1.6828,2.0131,2.3224,2.6141,2.6187,2.4985,2.2444,2.0218,1.8349,1.674,1.539,1.4692,1.4482,1.3801,1.3641,1.3761,1.2946,1.1851,1.0525,0.0,0.0,0.0,0.0,0.0,0.0,0.0,0.0,0.0,-1.9919,-2.3853,-2.7278,-2.8514,-3.0807,-3.3321,-3.527,-3.8009,-4.0692,-4.2266,-4.5674,-4.8778,-4.8935,-5.1834,-5.5949,-6.1668,-5.9547,-5.7907,-6.2498,-6.4612,-6.6329,-6.8097,-7.1389,-7.4376,-7.6223,-7.7324,-7.9268,-8.2907,-8.3928,-8.558,-8.8509,-8.897,-8.9072,-8.9072,-8.9072,-8.9072,-8.9072,-8.9072,-8.9072,-8.9072,-8.9687,-9.1297,-9.4065,-9.4444,-9.6579,-10.0283,-10.0099,-10.0393,-10.1244,-10.25,-10.363,-10.4421,-10.6107,-10.7622,-10.9093,-11.0803,-11.187,-11.2403,-11.2715,-11.299,-11.3203,-11.3203,-11.4101,-11.539,0.0,0.0,0.0,0.0,0.0,0.0,0.0,0.0,0.0,0.0,2.0566,2.0566,0.0,0.0,0.0,0.0,0.0,0.0,1.8906,1.7774,1.692,1.649,1.6783,1.7067,1.7253,1.978,2.2162,2.4336,2.4277,2.3057,2.0587,1.9676,1.8297,1.655,1.6345,1.5892,1.5164,1.4469,1.3933,1.3408,1.2662,1.1265,0.9601,0.0,0.0,0.0,0.0,0.0,0.0,0.0,0.0,0.0,-2.1355,-2.4814,-2.8288,-3.1179,-3.352,-3.5787,-3.8584,-4.0619,-4.2339,-4.3779,-4.6261,-4.8569,-5.0508,-5.1852,-5.4588,-6.0961,-5.8795,-5.7165,-6.1755,-6.3761,-6.5341,-6.7229,-7.0303,-7.3358,-7.5702,-7.7075,-7.9329,-8.3513,-8.3995,-8.5382,-8.8813,-8.9072,-8.9072,-8.9072,-8.9072,-8.9072,-8.9072,-8.9072,-8.9072,-8.9072,-8.9072,-9.0701,-9.4065,-9.4065,-9.6186,-10.0283,-10.0283,-10.0686,-10.1457,-10.1975,-10.2685,-10.3597,-10.5614,-10.7393,-10.9112,-11.0687,-11.1691,-11.2206,-11.2617,-11.2791,-11.3112,-11.3514,-11.4609,-11.5781,0.0,0.0,0.0,0.0,0.0,0.0,0.0,0.0,0.0,2.0566,2.0566,2.0566,0.0,0.0,0.0,2.0508,1.9727,1.9238,1.9238,1.7151,1.6456,1.7841,1.6501,1.7204,2.0261,2.0829,2.1077,2.0953,2.1646,2.073,1.8407,1.975,1.8916,1.6397,1.8039,1.7825,1.6099,1.5153,1.3989,1.2627,1.1989,1.0284,0.8057,0.5854,0.0,0.0,0.0,0.0,0.0,0.0,0.0,0.0,-2.4362,-2.6846,-2.906,-3.4593,-3.7671,-4.0308,-4.5044,-4.5546,-4.5393,-4.7924,-4.623,-4.521,-5.0031,-5.1137,-5.2502,-5.7274,-5.6073,-5.5481,-6.0447,-6.1676,-6.3042,-6.6265,-6.8442,-7.1003,-7.4235,-7.6475,-7.942,-8.3285,-8.3866,-8.5258,-8.8552,-8.8959,-8.9072,-8.9072,-8.9072,-8.9072,-8.9072,-8.9072,-8.9072,-8.9072,-8.9072,-9.0701,-9.3872,-9.3943,-9.6076,-10.0086,-10.0196,-10.0716,-10.1494,-10.1494,-10.1862,-10.2781,-10.5272,-10.7312,-10.8902,-11.0218,-11.1195,-11.1902,-11.2403,-11.2709,-11.29,-11.401,-11.4999,-11.5897,0.0,0.0,0.0,0.0,0.0,0.0,0.0,0.0,2.0566,2.0566,2.0566,2.0566,2.0566,2.0254,0.0,2.0059,1.9277,1.8769,1.8769,1.8247,1.7949,1.7915,1.8504,1.9716,2.1505,2.029,1.9432,1.9099,2.0145,1.9624,1.7774,1.8303,1.7659,1.6286,1.6932,1.6511,1.5204,1.3736,1.3199,1.3193,1.2027,1.1084,0.9999,0.6074,0.0673,0.0,0.0,0.0,0.0,0.0,0.0,0.0,-2.696,-3.0034,-3.2241,-3.339,-3.6383,-3.9291,-3.9141,-4.1271,-4.3621,-4.4246,-4.4898,-4.5595,-4.7162,-4.752,-4.9548,-5.7131,-5.7806,-5.7903,-6.1136,-6.2148,-6.3473,-6.6291,-6.8923,-7.1506,-7.4293,-7.7004,-7.9405,-8.1652,-8.3218,-8.4758,-8.6872,-8.829,-8.9072,-8.9072,-8.9072,-8.9072,-8.9072,-8.9072,-8.9072,-8.9072,-8.9072,-9.0195,-9.2511,-9.3103,-9.525,-9.873,-9.9346,-10.03,-10.1494,-10.1494,-10.1862,-10.2818,-10.541,-10.696,-10.8115,-11.0402,-11.1499,-11.1918,-11.1991,-11.2619,-11.3496,-11.3904,-11.5086,-11.6508,0.0,0.0,0.0,0.0,0.0,0.0,0.0,0.0,2.082,2.0586,2.0391,2.0254,2.0254,1.9863,0.0,0.0,1.9023,1.8562,1.8562,1.8309,1.8027,1.7614,1.8632,1.9495,2.0123,1.8806,1.8053,1.7877,1.7544,1.7041,1.6583,1.6776,1.6704,1.6286,1.658,1.5757,1.4205,1.3977,1.2156,0.9243,0.6907,0.562,0.4578,0.04,-0.3714,-0.7611,-1.1357,0.0,0.0,0.0,0.0,0.0,0.0,0.0,-3.1199,-3.4445,-3.6521,-3.8201,-4.0363,-4.2361,-4.3896,-4.4216,-4.5156,-4.6035,-4.625,-4.6465,-4.7923,-5.2528,-5.4949,-5.7124,-5.9759,-6.1685,-6.3401,-6.5282,-6.8593,-7.145,-7.3324,-7.668,-7.9445,-8.1169,-8.2956,-8.4631,-8.636,-8.806,-8.9072,-8.9072,-8.9072,-8.9072,-8.9072,-8.9072,-8.9072,-8.9072,-8.9444,-9.0385,-9.2131,-9.324,-9.4977,-9.7323,-9.8145,-9.9497,-10.1113,-10.1396,-10.2083,-10.3415,-10.5596,-10.7377,-10.897,-11.084,-11.1804,-11.2309,-11.2014,-11.2514,-11.3515,-11.4216,-11.5414,-11.6696,0.0,0.0,0.0,0.0,0.0,0.0,0.0,0.0,0.0,2.0683,2.0254,2.0,1.9922,1.9531,1.9258,0.0,0.0,0.0,1.8305,1.7734,1.7405,1.7299,1.8046,1.8394,1.816,1.708,1.6632,1.6843,1.4872,1.4384,1.5242,1.5581,1.5939,1.6286,1.6473,1.5338,1.3321,1.3631,1.007,0.382,0.0528,-0.2093,-0.4299,-0.7331,-0.9381,-1.1109,-1.4964,-1.7213,-1.8913,-2.2372,0.0,0.0,0.0,0.0,-2.9944,-3.5758,-3.73,-3.821,-4.3226,-4.4487,-4.4641,-4.5577,-4.5937,-4.6211,-4.6289,-4.6621,-4.7051,-4.75,-5.1043,-5.4986,-5.7542,-6.0237,-6.2655,-6.4279,-6.772,-7.0786,-7.2313,-7.5779,-7.8986,-8.0756,-8.2692,-8.4473,-8.5874,-8.7911,-8.9072,-8.9072,-8.9072,-8.9072,-8.9072,-8.9072,-8.9072,-8.9072,-8.9816,-9.0751,-9.1916,-9.3404,-9.4738,-9.6146,-9.7258,-9.8823,-10.0869,-10.1441,-10.2622,-10.4169,-10.6095,-10.8189,-11.0297,-11.1523,-11.2214,-11.2719,-11.2384,-11.2681,-11.3524,-11.4603,-11.5697,-11.6804,0.0,0.0,0.0,0.0,0.0,0.0,0.0,0.0,0.0,0.0,2.0508,2.0332,1.9961,1.9531,1.9141,1.875,1.834,1.7724,1.6927,0.0,0.0,1.7091,1.759,1.7823,1.7751,1.5867,1.5062,1.5265,1.3411,1.3178,1.4264,1.5107,1.5752,1.6259,1.6046,1.4862,1.2821,0.9508,0.5054,-0.0082,-0.2936,-0.8073,-1.4006,-1.3092,-1.5039,-1.8144,-1.75,-1.9394,-2.2639,-2.4927,-2.7028,0.0,0.0,0.0,-3.388,-3.4845,-3.8157,-4.1374,-4.1237,-4.2675,-4.4392,-4.541,-4.5723,-4.5859,-4.6211,-4.6621,-4.7051,-4.75,-4.9943,-5.2927,-5.5655,-5.8049,-6.0892,-6.3919,-6.6503,-6.9106,-7.2024,-7.4533,-7.6856,-7.8873,-8.2057,-8.4123,-8.4378,-8.7176,-8.9072,-8.9072,-8.9072,-8.9072,-8.9072,-8.9072,-8.9072,-8.9072,-8.9816,-9.0606,-9.1444,-9.2293,-9.3622,-9.5569,-9.7599,-9.9679,-10.1807,-10.2532,-10.3613,-10.509,-10.763,-10.9208,-11.0378,-11.2713,-11.3291,-11.2791,-11.3493,-11.3805,-11.4,-11.5188,-11.6197,-11.7006,0.0,0.0,0.0,0.0,0.0,0.0,0.0,0.0,0.0,0.0,0.0,2.0312,1.9629,1.918,1.875,1.832,1.8125,1.7674,1.6971,1.5839,1.5339,1.5779,1.54,1.5385,1.5731,1.4125,1.3666,1.4246,1.2764,1.2839,1.4335,1.4723,1.5391,1.6259,1.5172,1.4129,1.2788,0.7778,0.2532,-0.3007,-0.7788,-1.2206,-1.5989,-1.6446,-1.8211,-2.0487,-2.0486,-2.1824,-2.3917,-2.653,-2.8535,-3.0132,-3.1188,0.0,0.0,0.0,-3.6503,-3.9818,-4.2543,-4.2924,-4.2837,-4.4749,-4.3649,-4.2495,-4.4164,-4.4932,-4.5725,-4.7651,-4.9151,-5.1239,-5.5114,-5.7754,-6.0364,-6.3919,-6.6365,-6.8786,-7.2024,-7.4379,-7.6409,-7.847,-8.1032,-8.2956,-8.3866,-8.6272,-8.806,-8.9072,-8.9072,-8.9072,-8.9072,-8.9072,-8.9275,-8.9681,-9.0425,-9.1169,-9.1913,-9.2692,-9.3753,-9.5127,-9.6494,-9.815,-10.0338,-10.2431,-10.4189,-10.5909,-10.8038,-10.9862,-11.1626,-11.2824,-11.3587,-11.4099,-11.3984,-11.3988,-11.3966,-11.4487,-11.5302,-11.6287,0.0,0.0,0.0,0.0,0.0,0.0,0.0,0.0,0.0,0.0,0.0,2.0449,1.9687,0.0,0.0,0.0,1.7705,1.7278,1.6364,1.4688,1.3841,1.415,1.3424,1.3174,1.3679,1.2631,1.2508,1.3317,1.237,1.2772,1.4522,1.4304,1.4797,1.5866,1.4521,1.3351,1.1982,0.6508,0.0875,-0.4846,-1.1207,-1.4971,-1.7176,-2.0074,-2.1989,-2.3306,-2.4474,-2.5243,-2.6149,-2.8189,-2.9813,-3.1011,-3.1604,-3.2807,0.0,0.0,0.0,-3.8096,-4.2833,-4.2832,-4.1859,-4.334,-4.1733,-4.0281,-4.1991,-4.3158,-4.4471,-4.6789,-4.8245,-5.0214,-5.4146,-5.6987,-5.9806,-6.3052,-6.5645,-6.8328,-7.2024,-7.3887,-7.5779,-7.847,-8.037,-8.2057,-8.3866,-8.5506,-8.7261,-8.8959,-8.9072,-8.9072,-8.9072,-8.9072,-8.9444,-9.0188,-9.0932,-9.1643,-9.2421,-9.3199,-9.4045,-9.4992,-9.5533,-9.7013,-9.9416,-10.2349,-10.4701,-10.6619,-10.8617,-11.0644,-11.2586,-11.2896,-11.3816,-11.4897,-11.4208,-11.3886,-11.3936,-11.3898,-11.4388,-11.528,0.0,0.0,0.0,0.0,0.0,0.0,0.0,0.0,0.0,0.0,0.0,2.1016,2.0547,1.9746,1.8701,1.7333,1.6863,1.586,1.3985,1.298,1.2405,1.2419,1.2345,0.0,1.2392,1.177,1.1744,1.2378,1.2083,1.2772,1.4449,1.3695,1.3916,1.508,1.4371,1.2618,0.981,0.4693,-0.0269,-0.5211,-1.1583,-1.6371,-2.0257,-2.5006,-2.7738,-2.9059,-2.9631,-3.029,-3.0884,-3.0449,-3.1248,-3.2408,-3.2467,-3.3825,-3.5249,0.0,0.0,0.0,-3.9738,-4.1381,-4.2439,-4.0936,-4.1386,-4.1661,-3.9942,-4.1839,-4.4104,-4.4503,-4.7158,-5.008,-5.2111,-5.4827,-5.7763,-6.0632,-6.3644,-6.7042,-7.1761,-7.2664,-7.4225,-7.8325,-8.037,-8.2057,-8.3866,-8.5506,-8.7261,-8.8959,-8.9072,-8.9072,-8.9072,-8.9072,-8.9444,-9.0188,-9.0932,-9.1643,-9.2421,-9.3199,-9.4315,-9.5736,-9.577,-9.7286,-10.0066,-10.3231,-10.5272,-10.6894,-10.9888,-11.1728,-11.2588,-11.3527,-11.3902,-11.3864,-11.3892,-11.3864,-11.376,-11.3902,-11.393,-11.4022,0.0,0.0,0.0,0.0,0.0,0.0,0.0,0.0,0.0,0.0,0.0,0.0,0.0,1.8881,1.7843,1.6319,1.5297,1.4442,1.3738,1.2806,1.2305,1.2305,1.2305,1.2305,1.2305,1.173,1.1717,1.2305,1.1824,1.2585,1.4435,1.3367,1.3308,1.423,1.2965,1.2324,1.1667,0.4084,-0.2937,-0.9306,-1.1539,-1.5398,-2.0582,-2.8272,-3.3247,-3.5759,-3.2696,-3.2066,-3.2544,-3.0568,-3.1561,-3.3619,-3.3587,-3.4543,-3.5508,-3.502,-3.6343,-3.8405,-4.0794,-4.0601,-4.0172,-4.1991,-4.214,-4.2217,-4.3842,-4.4221,-4.4894,-4.6783,-4.7319,-4.7492,-4.8253,-5.3106,-5.7997,-6.0506,-6.3497,-6.6901,-7.1788,-7.2506,-7.407,-7.8325,-7.9302,-8.0894,-8.3737,-8.4505,-8.5832,-8.8172,-8.8801,-8.8869,-8.8395,-8.8835,-8.9647,-9.0865,-9.1169,-9.188,-9.3165,-9.3436,-9.4315,-9.5804,-9.5804,-9.7149,-9.959,-10.304,-10.5074,-10.6302,-10.9729,-11.1687,-11.2471,-11.2889,-11.3586,-11.4628,-11.41,-11.3835,-11.3711,-11.3187,-11.3,-11.3223,0.0,0.0,0.0,0.0,0.0,0.0,0.0,0.0,2.4158,2.3824,0.0,0.0,0.0,0.0,1.7441,1.5306,1.4096,1.3359,1.3244,1.2659,1.2305,1.2305,1.1996,1.1774,1.1774,1.1044,1.0815,1.1329,1.09,1.1585,1.3176,1.2025,1.1889,1.2673,0.9322,0.8235,0.8445,0.1966,-0.5061,-1.2109,-1.4221,-1.7202,-2.1524,-3.0736,-3.579,-3.7928,-3.6875,-3.3526,-2.9141,-2.6059,-2.8277,-3.2651,-3.4176,-3.4901,-3.5326,-3.5847,-3.6907,-3.8314,-4.027,-3.9977,-3.9605,-4.1909,-4.175,-4.2011,-4.5525,-4.4546,-4.3942,-4.6823,-4.6208,-4.5168,-4.6017,-5.1061,-5.6203,-5.9538,-6.2485,-6.6213,-7.1788,-7.2506,-7.407,-7.8325,-7.8789,-8.023,-8.3608,-8.3995,-8.5187,-8.8138,-8.8801,-8.8869,-8.8395,-8.9072,-9.0154,-9.1609,-9.1913,-9.2556,-9.3571,-9.3571,-9.4315,-9.5804,-9.5804,-9.6954,-9.9244,-10.2959,-10.504,-10.5926,-10.9636,-11.1509,-11.2065,-11.2065,-11.306,-11.4459,-11.3674,-11.3518,-11.3585,-11.2769,-11.2287,-11.2287,0.0,0.0,0.0,0.0,0.0,0.0,2.548,2.5078,2.4787,2.4787,0.0,0.0,0.0,0.0,0.0,1.4426,1.3369,1.2639,1.2331,1.2305,1.2305,1.2305,1.1391,1.0858,1.0783,0.9723,0.9195,0.9301,0.9406,0.9827,1.0543,0.9587,0.974,1.0618,0.3713,0.0298,-0.041,-0.1931,-0.6537,-1.3346,-1.9194,-2.1909,-2.3372,-3.2152,-3.4444,-3.4049,-4.1851,-3.4957,-2.1525,-1.7307,-2.1601,-2.947,-3.4046,-3.51,-3.4864,-3.6315,-3.73,-3.7864,0.0,0.0,0.0,-4.0377,-4.0267,-4.1138,-4.4254,-4.2481,-4.101,-4.4051,-4.3659,-4.3337,-4.5682,-4.8681,-5.264,-5.7348,-6.0667,-6.4827,-7.1496,-7.2506,-7.407,-7.8325,-7.8789,-8.009,-8.3608,-8.3995,-8.5382,-8.8779,-8.9072,-8.9072,-8.9072,-8.985,-9.0932,-9.2387,-9.3165,-9.3571,-9.3571,-9.3571,-9.4315,-9.5804,-9.5804,-9.6988,-9.9244,-10.3029,-10.504,-10.5926,-10.9542,-11.1221,-11.1221,-11.1221,-11.2212,-11.3497,-11.2689,-11.2873,-11.3497,-11.2689,-11.1919,-11.1405,0.0,0.0,0.0,0.0,0.0,2.4324,2.39,2.3634,2.3541,0.0,0.0,0.0,1.9763,1.7282,1.5187,1.3842,1.3358,1.2946,1.2714,1.2425,1.2305,1.2305,1.1996,1.1539,1.0783,1.0142,0.9623,0.9301,0.9028,0.9372,1.0449,0.942,0.9848,1.1067,0.3681,-0.2525,-0.7671,-0.774,-1.0651,-1.5306,-1.4902,-1.8418,-2.4341,-2.7264,-2.0635,-1.2619,-3.7118,-4.3154,-3.7301,-2.3326,-2.0199,-2.3921,-3.3296,-3.5424,-3.4729,-3.5637,-3.6474,-3.7102,-3.7592,0.0,0.0,0.0,0.0,0.0,-4.092,-4.1991,-4.2372,-3.9474,-4.0482,-4.2437,-4.3862,-4.6374,-5.0746,-5.7468,-6.072,-6.4827,-7.1496,-7.2506,-7.407,-7.8325,-7.8789,-7.9698,-8.1922,-8.3218,-8.4657,-8.6295,-8.8136,-8.9072,-8.9072,-9.0831,-9.2015,-9.2421,-9.3165,-9.3571,-9.3571,-9.3571,-9.4315,-9.5804,-9.6311,-9.7732,-10.0023,-10.3686,-10.5747,-10.6742,-10.976,-11.1221,-11.1221,-11.1808,-11.2689,-11.3497,-11.2689,-11.2873,-11.3387,-11.1992,-11.1808,-11.2212,0.0,0.0,2.6426,2.483,2.4214,2.38,2.3467,2.3418,2.334,0.0,0.0,0.0,1.9339,1.7356,1.5609,1.4082,1.3748,1.34,1.2973,1.2652,1.2438,1.2305,1.1477,1.0795,1.0196,0.9119,0.8449,0.8084,0.786,0.8034,0.8666,0.8205,0.7497,0.649,0.2296,-0.3985,-1.1171,-1.0381,-1.1888,-1.493,-1.6763,-1.9748,-2.2924,-2.219,-1.5104,-0.7237,-2.176,-2.7033,-2.6636,-2.4545,-2.5669,-2.9418,-3.7908,-3.8232,-3.5572,-3.6247,-3.6972,-3.7648,-3.8304,-3.855,-3.9046,-4.0737,0.0,0.0,-4.5242,-4.5327,-4.4308,-4.2461,-4.3957,-4.5483,-4.4937,-4.8196,-5.3145,-5.9429,-6.162,-6.4537,-7.0018,-7.1487,-7.3254,-7.6271,-7.7729,-7.9022,-8.0842,-8.2798,-8.4564,-8.5801,-8.7826,-8.9342,-8.9951,-9.1237,-9.2252,-9.2895,-9.3334,-9.3571,-9.3571,-9.3571,-9.4485,-9.6244,-9.6683,-9.8206,-10.0836,-10.4211,-10.6066,-10.7061,-10.9869,-11.1405,-11.1698,-11.2212,-11.2689,-11.3093,-11.2983,-11.2983,-11.2983,-11.1992,-11.1808,-11.1992,0.0,0.0,2.6223,2.5413,2.4456,2.3887,2.3984,2.3926,2.375,0.0,2.3036,2.1872,1.9322,1.8598,1.7311,1.4851,1.4335,1.3895,1.3347,1.2882,1.2474,1.221,1.0315,0.9246,0.915,0.7469,0.6541,0.6338,0.6369,0.6383,0.6315,0.6505,0.4264,-0.0,-0.0255,-0.4715,-1.1938,-1.0963,-1.1677,-1.4189,-2.0615,-2.2497,-2.1331,-2.0341,-1.6438,-1.0393,-0.282,-0.0,-0.3106,-2.2943,-3.5018,-4.2133,-4.5173,-4.1984,-3.7258,-3.7781,-3.8372,-3.8967,-3.9504,-3.981,-4.026,-4.2039,-4.1292,0.0,-5.0801,-4.8835,-4.5684,-4.7557,-4.9037,-4.9352,-4.7256,-5.1281,-5.6334,-6.0629,-6.189,-6.3935,-6.8253,-7.0447,-7.2198,-7.3966,-7.6248,-7.8304,-7.9829,-8.2418,-8.4502,-8.602,-8.806,-8.9782,-9.1102,-9.1338,-9.2049,-9.3402,-9.3537,-9.3571,-9.3571,-9.3571,-9.4687,-9.6886,-9.6954,-9.8544,-10.1513,-10.4262,-10.6029,-10.6953,-10.9738,-11.1536,-11.2286,-11.2396,-11.2506,-11.2579,-11.3203,-11.2983,-11.2396,-11.2286,-11.1882,-11.1405,2.6025,2.6047,2.6081,2.4847,2.4389,2.4531,2.5254,2.4746,2.4394,2.4648,2.2568,2.055,1.9124,1.7638,1.6361,1.5618,1.4883,1.4282,1.3935,1.238,1.1479,1.1431,1.0175,0.901,0.8093,0.7744,0.7126,0.6338,0.6166,0.6288,0.6614,0.6417,0.4155,0.0085,-0.3472,-0.7436,-1.1571,-1.1261,-1.4441,-1.9142,-1.3062,-1.6613,-2.6646,-3.6814,-2.4638,-0.2259,-0.0643,-0.0,-0.2956,-2.2841,-4.0994,-5.4057,-4.7129,-4.2468,-3.942,-3.9207,-3.9759,-4.0529,-4.0307,-4.0251,-4.0273,-4.013,-4.0595,0.0,-3.6538,-3.971,-4.1961,-3.6717,-4.0082,-4.4026,-4.4478,-4.6029,-4.8607,-5.3054,-5.6866,-6.201,-7.0164,-7.1329,-7.2726,-7.6329,-7.7182,-7.7574,-7.7482,-8.0939,-8.329,-8.3636,-8.7644,-9.0121,-9.0391,-9.1541,-9.2353,-9.2624,-9.3267,-9.3571,-9.3571,-9.3571,-9.4687,-9.6886,-9.7495,-9.9051,-10.1547,-10.3832,-10.5522,-10.6918,-10.8691,-11.0202,-11.1515,-11.2102,-11.28,-11.3277,-11.28,-11.2506,-11.2286,-11.1698,-11.1698,-11.2212,2.5357,2.5294,2.5423,2.4809,2.4746,2.5039,2.5918,2.5684,2.541,2.541,2.3688,2.1841,2.0098,1.8647,1.733,1.5872,1.5297,1.4497,1.3521,1.2385,1.1399,1.0513,0.9467,0.8622,0.7978,0.7415,0.6905,0.6369,0.622,0.6268,0.6491,0.6357,0.3802,-0.0899,-0.4813,-0.8446,-1.1518,-0.869,-0.8885,-1.1279,-1.3759,-2.2545,-3.4454,-3.9307,-3.3718,-2.0979,-0.546,-0.0,-0.1527,-1.1403,-3.192,-5.1337,-4.0494,-3.9743,-4.2399,-4.0474,-4.0526,-4.0966,-4.0633,-4.0217,-4.0224,-4.1113,-4.0876,0.0,0.0,-4.1936,-4.3446,-4.0991,-4.4293,-4.758,-4.7039,-4.909,-5.1757,-5.4284,-5.814,-6.2319,-6.6308,-6.8614,-7.0927,-7.3803,-7.4992,-7.6244,-7.7852,-8.1014,-8.3853,-8.5834,-8.831,-8.9816,-9.0188,-9.1609,-9.259,-9.2996,-9.374,-9.4315,-9.4687,-9.4315,-9.5263,-9.7461,-9.8206,-9.9559,-10.1547,-10.3608,-10.4832,-10.525,-10.7473,-10.9089,-11.0186,-11.0844,-11.1882,-11.2983,-11.2579,-11.2212,-11.1808,-11.1295,-11.1515,-11.1808,2.4872,2.4617,2.4861,2.4913,2.5019,2.5371,2.625,2.6309,2.5954,2.5074,2.4427,2.3495,2.1857,2.0354,1.9008,1.7848,1.6728,1.5279,1.3385,1.2649,1.1576,0.9752,0.8563,0.8022,0.8042,0.7044,0.6505,0.6471,0.6342,0.6295,0.6329,0.5468,0.2714,-0.1655,-0.5282,-0.8154,-1.0002,-0.5742,-0.3595,-0.3878,-1.4221,-2.4737,-3.3619,-3.0329,-3.2577,-3.4145,-0.8968,-0.0,-0.0,-0.0,-1.7098,-3.756,-3.4343,-3.7038,-4.1365,-4.0786,-4.1275,-4.1906,-4.1312,-4.0929,-4.1117,-4.2862,-4.2132,-4.1957,0.0,0.0,0.0,-4.7064,-4.9518,-5.1013,-4.938,-5.2099,-5.4808,-5.5516,-5.8814,-6.0961,-5.9639,-6.3233,-6.6876,-6.9305,-7.2335,-7.5153,-7.7476,-8.0302,-8.3886,-8.8712,-8.8531,-8.8734,-8.9918,-9.1406,-9.2556,-9.3334,-9.4248,-9.506,-9.5804,-9.5229,-9.5973,-9.8003,-9.8612,-9.9762,-10.1547,-10.3172,-10.3951,-10.3752,-10.6032,-10.7599,-10.8719,-10.8997,-10.9951,-11.132,-11.1577,-11.1303,-11.0791,-11.0791,-11.0791,-11.0754,2.356,2.4125,2.4757,2.45,2.4805,2.5371,2.625,2.6055,2.4914,2.2638,2.2855,2.365,2.4996,2.19,2.1033,2.4255,2.0843,1.7495,1.5065,1.3422,1.1768,0.9895,0.805,0.7264,0.7674,0.7046,0.6607,0.6471,0.6342,0.6428,0.6478,0.2529,0.0402,-0.0423,-0.5551,-0.6502,-0.4269,-0.4718,-0.7126,-1.0185,-0.5462,-0.5499,-0.8073,-0.5266,-0.4602,-0.4853,-0.131,-0.0,-0.0,-0.0,-0.2474,-1.0183,-3.8364,-3.7932,-2.8991,-3.81,-4.2837,-4.4836,-4.346,-4.392,-4.453,-4.3545,-4.4885,-4.5454,-4.2092,0.0,-4.4291,-4.2785,0.0,-4.5227,-4.5818,0.0,0.0,-4.7885,-5.1147,-5.3237,-5.2455,-5.5459,-5.98,-6.4829,-7.1883,-7.5113,-7.197,-7.5546,-8.1186,-8.8509,-8.6636,-8.6332,-8.9072,-9.0628,-9.1778,-9.2522,-9.3943,-9.506,-9.5804,-9.5702,-9.6447,-9.8003,-9.8104,-9.9288,-10.1386,-10.1708,-10.2823,-10.4501,-10.4055,-10.5257,-10.6955,-10.6387,-10.6742,-10.763,-10.8899,-10.9257,-10.9148,-10.9148,-10.9148,-10.9378,2.3212,2.3474,2.3907,2.4349,2.457,2.5078,2.6211,2.6855,2.6446,2.4228,2.3712,2.44,2.6405,2.2097,2.19,2.891,2.5581,2.3066,2.3127,1.9421,1.6845,1.5997,1.0413,0.816,1.0129,0.8042,0.6853,0.6695,0.641,0.6342,0.6245,-0.0795,-0.4151,-0.4122,-0.3194,-0.3198,-0.3677,0.1099,-0.0,-0.5107,-0.5358,-0.6126,-0.8288,-1.8606,-1.3053,-0.0,-0.0,-0.0,-0.0,-0.0,-0.0,-0.2446,-1.635,-2.7297,-3.5906,-4.1379,-4.3584,-4.3598,-4.0643,-4.232,-4.4345,-4.195,-4.3561,-4.4884,-4.2199,-4.2138,-4.2863,-4.3437,0.0,0.0,0.0,0.0,0.0,0.0,-4.9776,-5.1443,-4.892,-5.3823,-5.8798,-6.2054,-6.4666,0.0,-7.1597,-7.439,-7.879,-8.5439,-8.3057,-8.3261,-8.7773,-9.0493,-9.2489,-9.3706,-9.4789,-9.5905,-9.7089,-9.665,-9.6954,-9.8037,-9.8882,-9.9796,-10.0709,-10.1183,-10.1597,-10.2139,-10.2539,-10.336,-10.4289,-10.5317,-10.6101,-10.6953,-10.7452,-10.8179,-10.8989,-10.8989,-10.9511,-11.0352,2.3144,2.3144,2.334,2.3965,2.416,2.4648,2.584,2.6589,2.6405,2.4915,2.4005,2.4877,2.8639,2.3382,2.3673,3.3868,3.021,2.8076,2.9838,2.4396,2.1714,2.3098,1.3988,1.0843,1.4964,1.0904,0.7819,0.5899,0.6209,0.6271,0.6102,-0.2265,-0.6474,-0.6985,-0.3382,-0.1861,-0.1559,0.37,0.5147,0.3433,-0.0857,-0.425,-0.8967,-2.7878,-2.6424,-1.3268,-0.3392,-0.0,-0.0,-0.0,-0.0,-0.0203,-0.1962,-1.6641,-3.4342,-3.9876,-4.1274,-4.0652,-3.8998,-4.1306,-4.3876,-4.2569,-4.3599,-4.4733,-4.3772,-4.3389,-4.3548,-4.4511,-4.4167,0.0,0.0,0.0,-4.544,-4.6553,0.0,-5.0033,-4.6921,-5.1321,-5.5414,-5.6973,-5.7683,0.0,0.0,-7.1096,-7.3964,-8.0986,-7.8657,-7.9937,-8.688,-8.9785,-9.2361,-9.462,-9.5432,-9.6514,-9.8003,-9.7461,-9.7461,-9.8037,-9.9288,-9.9897,-9.9931,-10.0709,-10.0777,-10.0235,-10.1303,-10.1853,-10.2144,-10.3834,-10.4919,-10.5619,-10.5829,-10.7164,-10.8777,-10.9214,-11.0078,-11.1285,2.3144,2.3144,2.3144,2.3184,2.3535,2.4102,2.498,2.4287,2.356,2.3161,2.2328,2.4766,3.2253,2.6583,2.7259,3.9795,3.4467,3.1083,3.2583,2.6265,2.4696,2.9839,1.8553,1.5429,2.2552,1.6375,0.9993,0.366,0.5477,0.6274,0.6171,-0.0577,-0.489,-0.7175,-0.7968,-0.3646,0.3907,-0.0474,0.3994,1.3703,1.3016,0.7478,-0.2252,-1.9527,-3.6487,-4.6699,-1.2396,-0.0,-0.0,-0.0,-0.0,0.0,-0.7134,-0.9707,-1.3602,-2.9015,-3.4686,-3.6615,-4.0833,-4.2436,-4.3723,-4.7192,-4.7129,-4.6254,-4.6404,-4.7222,-4.7212,-4.482,-4.6732,-4.8382,-4.695,-4.6874,-4.7226,0.0,0.0,0.0,0.0,-4.594,-4.6635,-4.8135,-5.3247,0.0,0.0,-6.3306,-6.553,0.0,-7.3472,-7.6266,-8.6739,-8.8053,-9.0452,-9.4552,-9.5432,-9.6514,-9.8003,-9.8003,-9.8003,-9.8037,-9.8781,-9.9119,-9.9153,-9.9897,-10.0235,-10.0202,-10.0168,-10.0768,-10.1445,-10.1479,-10.1953,-10.2665,-10.3376,-10.5576,-10.8161,-10.9567,-11.0748,-11.1598,2.3574,2.3574,2.3477,2.3184,2.3262,2.3371,2.3518,2.4299,2.5198,2.6335,2.6777,2.9834,3.7481,3.3568,3.4744,4.5426,4.1513,3.9706,4.287,3.6482,3.4467,3.8247,2.5722,2.1142,2.6393,1.379,0.6752,0.5882,0.3364,0.2104,0.2044,-0.1943,-0.5141,-0.7369,-0.5069,-0.187,0.203,0.3387,0.6632,0.9753,-0.1396,-1.2764,-2.1906,-1.237,-2.3177,-4.2767,-3.6979,-1.9871,0.0,-0.0,-0.5587,-1.2806,-1.4503,-1.7411,-2.1494,-2.9333,-3.4684,-3.8116,-3.9733,-4.5367,-5.0109,-4.7454,-4.8782,-5.0437,-4.8322,-4.8475,-4.8472,-4.6661,-4.7778,-4.9016,-4.8803,-4.7911,-4.7501,0.0,0.0,0.0,0.0,-4.4519,-4.4766,-4.6271,-5.2226,0.0,0.0,0.0,0.0,0.0,-7.1709,0.0,-8.5601,-8.7622,-9.0555,-9.5229,-9.5669,-9.6514,-9.8003,-9.8003,-9.7766,-9.7292,-9.851,-9.8848,-9.8409,-9.9153,-9.9491,-9.9491,-9.9999,-10.0405,-10.0709,-10.169,-10.2299,-10.2699,-10.4419,-10.6008,-10.7543,-10.8941,-11.088,-11.2816,2.4004,2.3769,2.3516,2.3398,2.3496,2.3852,2.4802,2.6153,2.7381,2.8533,3.0089,3.3308,3.8617,3.6658,3.8653,4.8118,4.5299,4.4473,4.8118,4.2307,4.0668,4.5063,3.2189,2.71,3.1778,1.5727,0.6368,0.4598,0.1546,-0.0,-0.0093,-0.2769,-0.5339,-0.7594,-0.5294,-0.3311,-0.1553,0.1704,0.3648,0.3443,-1.1437,-2.4438,-3.3037,-1.7083,-2.2947,-3.9332,0.0,-2.7415,-1.6788,-0.4231,-0.8209,-1.8383,-1.8231,-2.1205,-2.5354,-2.8387,-3.3084,-3.772,-3.9643,-4.6689,-5.272,-5.0784,-5.2815,-5.5189,-5.4484,-5.4862,-5.4885,-5.3009,-5.279,-5.2917,-5.288,-5.0415,-4.8663,0.0,0.0,0.0,0.0,-4.4384,-4.4587,-4.5602,0.0,0.0,0.0,0.0,0.0,0.0,0.0,0.0,0.0,-8.6516,-8.9811,-9.5195,-9.5669,-9.6379,-9.7597,-9.7597,-9.736,-9.6886,-9.8138,-9.8307,-9.7631,-9.8645,-9.895,-9.8747,-9.9796,-10.0235,-10.0337,-10.1893,-10.2502,-10.2732,-10.4533,-10.6091,-10.7203,-10.8901,-11.0909,-11.2674,2.4414,2.3789,2.3398,2.3789,2.4258,2.5586,2.8447,2.9338,2.9722,2.951,3.2176,3.4899,3.6542,3.6327,3.9533,4.8254,4.5743,4.5318,4.8848,4.3559,4.3384,4.9889,3.7666,3.3199,3.8342,2.2385,0.9538,-0.0,-0.0,-0.0,-0.0098,-0.2736,-0.5397,-0.8014,-0.8309,-0.7649,-0.6033,-0.5826,-0.4986,-0.4985,-1.6344,-2.6623,-3.4819,-3.1855,-3.5179,-3.7687,-0.994,-2.1599,-4.5135,-1.2032,-0.8209,-1.7549,-1.8429,-2.069,-2.3896,-2.5979,-3.0352,-3.5678,-4.0953,-4.6618,-5.2184,-5.7067,-5.89,-6.048,-6.4007,-6.561,-6.5621,-6.315,-6.1367,-5.991,-5.8788,-5.4239,-5.0787,0.0,0.0,0.0,0.0,0.0,-4.5872,0.0,0.0,0.0,0.0,0.0,0.0,0.0,0.0,0.0,0.0,-8.4634,-8.7999,-9.4332,-9.5315,-9.6026,-9.665,-9.6805,-9.6839,-9.6717,-9.7597,-9.7631,-9.6988,-9.8409,-9.8679,-9.8138,-9.9593,-10.0235,-10.0405,-10.1893,-10.2502,-10.2603,-10.4092,-10.5603,-10.7221,-10.9535,-11.0732,-11.1404,2.4473,2.4766,2.5,2.4785,2.5898,2.7303,2.8459,2.8395,2.9344,3.2774,3.4759,3.7491,4.1509,4.4622,4.7309,4.9707,4.904,4.8911,5.0254,4.7964,4.7174,4.841,4.1493,3.8317,4.0061,3.1358,1.8042,-0.0,-0.0,-0.0,-0.0102,-0.2785,-0.5443,-0.8052,-0.835,-0.8726,-0.9421,-1.4428,-1.7981,-2.0555,-2.3711,-3.0673,-3.8915,0.0,-3.2073,-3.0772,-0.8162,-0.582,-1.3644,-1.3864,-1.2667,-1.252,-2.0038,-2.2553,-2.3991,-3.0787,-3.5025,-3.9131,-4.495,-5.2348,-5.8787,-5.9979,-6.3535,-6.6913,-6.7508,-6.8736,-6.9022,-6.5945,-6.5314,-6.4539,-6.1711,-5.722,-5.4012,-5.4213,-5.1806,-4.9357,-4.8037,-4.8037,-4.8376,-4.8917,0.0,0.0,0.0,0.0,0.0,0.0,0.0,0.0,0.0,0.0,-8.3645,-9.1068,-9.286,-9.3724,-9.3571,-9.4944,-9.5251,-9.4451,-9.6853,-9.7901,-9.7732,-9.8104,-9.8476,-9.8882,-9.9829,-10.0506,-10.1183,-10.2096,-10.2502,-10.2603,-10.3517,-10.4794,-10.6492,-10.9844,-11.0652,-10.9792,2.5293,2.582,2.6269,2.6211,2.758,2.9362,3.1734,3.2771,3.4269,3.7098,3.9838,4.2097,4.3554,4.7602,5.0254,5.043,5.0293,5.0195,5.0234,4.8728,4.758,4.7149,4.2426,4.0006,4.0271,3.5582,2.4839,0.7693,0.2523,-0.0,-0.0104,-0.3862,-0.6331,-0.7813,-0.824,-0.9449,-1.1643,-1.798,-2.2231,-2.4568,-2.1763,-2.6246,0.0,-3.5323,-3.3552,-2.8953,-1.3719,-0.8248,-0.9195,-1.6338,-1.6157,-1.4275,-2.1446,-2.3851,-2.5418,-3.2521,-3.7693,-4.2652,-4.8544,-5.5973,-6.2415,-6.4459,-6.7986,-7.1168,-7.2044,-7.3605,-7.4298,-7.2576,-7.0928,-6.9362,-6.7804,-6.0975,-5.4966,-5.3155,-5.098,-4.9351,-4.9024,-4.9289,-4.9627,0.0,-5.1589,0.0,0.0,0.0,0.0,0.0,0.0,0.0,0.0,0.0,-8.081,-8.941,-9.0385,-9.0598,-9.0019,-9.2975,-9.4168,-9.3605,-9.6244,-9.7698,-9.8003,-9.8003,-9.8409,-9.9153,-9.9897,-10.0709,-10.1487,-10.2198,-10.2502,-10.2603,-10.3314,-10.4295,-10.5608,-10.7699,-10.8411,-10.8076,2.6328,2.6855,2.7363,2.7695,2.9028,3.1611,3.646,3.8715,4.0319,4.1482,4.5242,4.6648,4.3899,4.766,5.0488,5.0859,5.0547,5.0176,4.9805,4.7877,4.6538,4.5843,4.1942,3.9554,3.9134,3.667,3.0314,1.9957,0.6598,-0.0,-0.0103,-0.4875,-0.7099,-0.7192,-0.7968,-1.0006,-1.3166,-1.7952,-2.1399,-2.2735,-1.4762,-1.5995,-2.4311,-3.6446,-3.6324,-2.8404,-2.1422,-1.8731,-1.8731,-1.8697,-1.8456,-1.8809,-2.2658,-2.492,-2.7451,-3.3446,-3.9571,-4.5618,-5.1788,-5.8097,-6.3877,-6.8592,-7.1536,-7.386,-7.6401,-7.8318,-7.9596,-7.9679,-7.642,-7.3845,-7.4307,-6.4937,-5.5649,-5.1642,-5.0249,-4.9953,-5.0919,-5.0992,-5.0994,0.0,0.0,0.0,0.0,0.0,0.0,0.0,0.0,0.0,0.0,0.0,-7.8177,-8.7448,-8.8007,-8.7634,-8.6636,-9.1466,-9.3806,-9.3605,-9.5905,-9.7461,-9.8307,-9.8104,-9.8476,-9.9288,-9.9931,-10.0709,-10.1589,-10.2198,-10.2502,-10.2603,-10.3314,-10.399,-10.4566,-10.4667,-10.5479,-10.6494,2.6445,2.7578,2.8496,2.8223,3.0156,3.3466,3.9038,3.7922,3.8075,4.2324,4.4488,4.5483,4.4893,4.869,5.125,5.1308,5.125,5.1172,5.1094,4.8619,4.637,4.438,4.1308,3.8728,3.6457,3.6589,3.5196,3.2125,1.0482,-0.0,-0.0101,-0.2979,-0.4418,-0.4704,-0.703,-1.0338,-1.433,-1.6355,-2.0421,-2.4394,-0.8724,-0.3223,-0.7215,-3.1773,-3.2686,-2.0694,-1.9221,-1.8731,-1.8697,-1.851,-1.8316,-1.9029,-2.4348,-2.6266,-2.8595,-3.9063,-4.3279,-4.6475,-5.4904,-6.057,-6.4937,-6.8757,-7.3077,-7.6586,-7.7534,-7.8767,-7.9853,-8.0378,-7.785,-7.5275,-7.4194,-6.7298,-6.1113,-5.8399,-5.655,-5.6876,-6.1278,-5.8144,-5.5963,0.0,0.0,-5.7388,0.0,0.0,0.0,0.0,0.0,0.0,0.0,0.0,-7.2101,0.0,-8.5823,-8.733,0.0,0.0,-9.4477,-9.3605,-9.6447,-9.851,-9.9796,-9.8578,-9.8747,-10.0032,-10.0134,-10.1014,-10.2299,-10.2434,-10.2502,-10.2603,-10.3314,-10.3686,-10.3889,-10.4464,-10.487,-10.5073,2.8027,2.8691,2.9196,2.9002,3.1262,3.4776,3.9486,4.0427,4.2012,4.6026,4.6985,4.7364,4.7364,4.9818,5.1426,5.1426,5.1426,5.1426,5.1426,4.7564,4.4817,4.3566,3.9658,3.6868,3.5631,3.6106,3.6186,3.6131,1.8029,0.4583,-0.4212,-0.5331,-0.5914,-0.593,-0.7408,-0.9943,-1.3197,0.0,0.0,-2.1441,-0.6179,-0.0,-0.1414,-1.4702,-1.949,-1.8717,-1.861,-1.8557,-1.8523,-1.8633,-1.8545,-1.9291,-2.487,-2.6483,-2.8814,-4.0409,-4.4433,-4.7114,-5.595,-6.1595,-6.5669,-6.9278,-7.2633,-7.5516,-7.5893,-7.7086,-7.8038,-7.8362,-7.7124,-7.4875,-7.0717,-6.6233,-6.2479,-6.0572,-5.899,-5.9274,-6.3269,-6.1281,-5.9823,0.0,0.0,0.0,0.0,0.0,0.0,0.0,0.0,0.0,0.0,0.0,-7.0466,0.0,0.0,0.0,-8.4031,0.0,-9.4461,-9.2455,-9.6582,-9.9153,-10.0202,-9.9085,-9.9187,-10.0235,-10.0608,-10.1487,-10.2502,-10.2096,-10.1893,-10.1995,-10.2299,-10.2468,-10.2502,-10.328,-10.3585,-10.3585,3.1956,3.2315,3.2387,3.1946,3.3874,3.6823,4.0658,4.3463,4.643,4.9408,4.9922,4.9922,4.9922,5.084,5.1426,5.1426,5.1426,5.1426,5.1426,4.6352,4.3318,4.3318,3.8286,3.5538,3.5538,3.5591,3.5465,3.5281,2.3615,1.0064,-0.492,-0.4876,-0.5352,-0.6192,-0.7375,0.0,0.0,0.0,-1.1372,-1.4366,-0.4125,-0.0,-0.0,-0.0,-0.7064,-1.7006,-1.8026,-1.8403,-1.8579,-1.8511,-1.8457,-1.9263,-2.4749,-2.6473,-2.8967,-4.0424,-4.4715,-4.7964,-5.6477,-6.164,-6.5625,-6.9209,-7.1516,-7.3025,-7.3953,-7.4883,-7.5512,-7.6033,-7.6215,-7.4328,-6.8164,-6.577,-6.4148,-6.2381,-6.1407,-6.1826,-6.4652,-6.3703,-6.3027,0.0,0.0,0.0,-5.6996,0.0,0.0,0.0,0.0,0.0,-6.962,0.0,0.0,0.0,0.0,-8.2543,-8.3016,0.0,-9.462,-9.2793,-9.7056,-9.9491,-10.0202,-9.9424,-9.9593,-10.0506,-10.1081,-10.1562,-10.1645,-10.0413,-10.0275,-10.0501,-10.0501,-10.0826,-10.1216,-10.1995,-10.2299,-10.2401,4.0244,4.1376,4.1461,3.9818,3.9682,4.1192,4.5165,4.5531,4.6874,5.0649,5.125,5.125,5.125,5.1367,5.1426,5.1426,5.1426,5.1426,5.1426,4.6352,4.3318,4.3318,3.8069,3.5231,3.5231,3.5498,3.3771,3.0057,2.2316,1.3893,0.5301,0.536,0.2983,-0.1403,0.0,0.0,0.0,-0.8843,-0.6221,-0.1614,-0.0468,-0.0,-0.0,-0.0,-0.4231,-1.102,-1.6347,-1.8383,-1.8498,-1.8233,-1.8145,-1.9209,-2.4664,-2.6681,-2.9249,-4.0977,-4.5312,-4.8168,-5.6964,-6.0737,-6.3516,-6.841,-7.0063,-7.1095,-7.3143,-7.3357,-7.3605,-7.5695,-7.6215,-7.4728,-6.9941,-6.947,-6.916,-6.6998,-6.6637,-6.7856,-7.107,-6.7543,-6.547,-6.7966,0.0,0.0,0.0,-5.5267,0.0,0.0,-5.8118,0.0,0.0,0.0,0.0,-7.5405,-7.7502,-7.9464,-8.146,-9.0357,-9.5669,-9.7394,-9.8544,-9.9491,-10.0202,-9.9424,-9.9897,-10.1284,-10.1386,-10.0346,-9.8642,-9.616,-9.6288,-9.7721,-9.7721,-9.8882,-10.0405,-10.1183,-10.1487,-10.1589,4.2937,4.2497,4.141,4.0688,4.2254,4.4125,0.0,4.7742,4.9646,5.1153,5.1426,5.1426,5.1426,5.1426,5.1328,5.1074,5.1289,5.0512,4.8648,4.5214,4.2506,4.0887,3.7235,3.5191,3.5191,3.5311,3.335,2.9393,2.5337,1.7605,0.6721,0.7563,0.5131,-0.0157,0.0,-0.8094,-0.7834,-0.4738,-0.2265,-0.0,-0.0,-0.0,-0.0,-0.0,-0.3748,-0.9989,-1.591,-1.8121,-1.8445,-1.9883,-2.063,-2.1486,-2.5336,-2.8077,-3.1639,-4.1775,-4.5378,-4.7827,-5.5039,-5.9589,-6.3292,-6.6395,-6.8854,-7.1107,-7.3168,-7.3142,-7.2803,-7.3519,-7.3627,-7.3206,-7.2149,-7.0447,-6.9801,-7.1046,-6.939,-6.9677,-7.4139,-7.0577,-6.8886,-7.2432,0.0,-6.6044,0.0,0.0,0.0,0.0,0.0,0.0,0.0,0.0,0.0,-7.4972,0.0,-8.3254,-8.5131,-9.1481,-9.5161,-9.6074,-9.8578,-9.9931,-10.0235,-9.921,-9.8453,-9.7856,-9.7856,-9.7177,-9.5987,-9.4568,-9.442,-9.5155,-9.6747,-9.7658,-9.8184,-10.1,-10.1792,-10.1589,4.7712,4.6218,4.4179,0.0,4.5655,4.7308,4.7252,4.9646,5.1426,5.1426,5.1328,5.1289,5.1426,5.1426,5.1269,5.084,5.0262,4.9038,4.6839,4.3656,4.0998,3.9191,3.644,3.507,3.507,3.5151,3.3021,2.8646,2.6592,1.9717,0.8353,1.0574,0.83,0.0,-0.3331,-0.5574,-0.53,-0.159,-0.0,-0.0,-0.0,-0.0,-0.047,-0.3982,-0.6747,-0.9676,-1.5746,-1.7934,-1.8496,-2.1254,-2.2699,-2.4311,-2.6918,-2.9566,-3.3223,-4.1149,-4.4908,-4.7568,-5.2748,-5.7732,-6.1859,-6.3794,-6.6962,-7.0092,-7.1784,-7.242,-7.2615,-7.2238,-7.2539,-7.2966,-7.3293,-7.1284,-7.017,-7.1958,-7.0733,-7.0927,-7.4554,-7.1831,-7.0675,-7.391,-7.0644,-6.7988,-6.7406,-6.4862,0.0,0.0,0.0,0.0,-6.4566,-6.5426,-6.895,-7.6362,-8.0332,0.0,-8.6316,-9.088,-9.3719,-9.4689,-9.7487,-9.8819,-9.8819,-9.7902,-9.6809,-9.5514,-9.4514,-9.389,-9.3382,-9.1953,-9.1816,-9.2429,-9.4336,-9.5513,-9.663,-9.9849,-10.1337,-10.1893,5.633,5.5064,5.2847,5.1558,5.1348,5.1367,5.1406,5.1406,5.1426,5.1426,5.1074,5.0976,5.1387,5.1426,5.1269,5.084,4.8387,4.6821,4.6423,4.1469,3.85,3.85,3.6009,3.4763,3.4763,3.5044,3.2361,2.6488,2.4659,1.9613,1.1878,1.5978,1.3755,0.6351,0.1925,-0.0,-0.0,-0.0,-0.0,-0.0,-0.0,-0.0,-0.1395,-1.3188,-1.4057,-0.9611,-1.5682,-1.79,-1.8517,-2.1181,-2.4155,-2.7002,-3.0288,-3.1598,-3.3335,-3.9199,-4.3578,-4.7524,-5.0758,-5.5175,-5.8921,-6.0945,-6.4086,-6.7119,-6.8442,-7.071,-7.274,-7.2715,-7.4046,-7.4699,-7.3042,-7.2263,-7.1011,-6.8625,-7.0337,-7.1991,-7.1971,-7.0692,-7.0049,-7.1039,-6.4081,-6.1334,-6.6779,-6.1237,0.0,0.0,-6.4757,-6.5087,-7.0895,-6.8436,-7.0601,-7.8822,-7.6995,-7.8149,-8.2903,-8.7389,-9.1239,-9.457,-9.513,-9.5482,-9.5482,-9.5514,-9.5692,-9.545,-9.2019,-9.0705,-9.0523,-8.7815,-8.7823,-8.9531,-8.9531,-9.2367,-9.6364,-9.7223,-9.9585,-10.2502,5.8491,5.5809,5.2736,5.2443,5.2305,5.2207,5.1914,5.1875,5.166,5.1074,5.0898,5.0742,5.0586,5.0586,4.9608,4.7604,4.6827,4.4832,4.0719,3.9151,3.7504,3.5716,3.5004,3.467,3.4469,3.2818,3.0164,2.6306,2.4365,0.0,0.0,1.6672,1.5944,1.4022,0.4251,-0.0,-0.0,-0.0,-0.0,-0.0,-0.0,-0.485,-1.2733,-1.6428,-1.6782,-1.5225,-1.7149,-1.9057,-2.14,-2.4007,-2.7259,-3.0516,-3.3688,-3.472,-3.5962,-4.1895,-4.5464,-4.8281,-5.3252,-5.6731,-5.9677,-6.2683,-6.507,-6.744,-7.0203,-7.1573,-7.259,-7.4121,-7.3946,-7.3594,-7.3845,-7.2791,-7.1883,-7.1608,-7.0805,-7.1172,-7.3474,-7.2597,-7.199,-7.3387,-7.1391,-7.0105,-7.0483,-6.6966,0.0,0.0,-6.3592,-6.3777,-6.7735,-7.0615,-7.3146,-7.5166,-7.9348,0.0,-8.4757,-8.7643,-9.071,-9.3754,-9.4793,-9.4779,-9.3427,-9.3109,-9.1944,-9.0186,-8.9038,-8.8541,-8.8541,-8.7756,-8.7936,-8.9092,-9.0991,-9.2181,-9.3572,-9.734,-9.9245,-10.0152,5.9904,5.6134,5.2715,5.2715,5.2715,5.2558,5.2148,5.209,5.1836,5.1133,5.0762,5.0126,4.9014,4.8576,0.0,4.5825,4.5062,4.2664,3.7824,3.6822,3.5759,3.3975,3.4269,3.3924,3.2686,3.1255,0.0,2.4585,2.2382,2.0198,1.7916,1.7339,1.7219,1.7536,0.7735,0.2058,-0.0,-0.0,-0.0,-0.0458,-0.4563,-1.0939,-1.7569,-1.7768,-1.7893,-1.7968,-1.8942,-2.0404,-2.2735,-2.6449,-2.9337,-3.2025,-3.5115,-3.6991,-3.8625,-4.2647,-4.5525,-4.8485,-5.3446,-5.7059,-5.9774,-6.1978,-6.4469,-6.7691,-7.1723,-7.2866,-7.3619,-7.5226,-7.4724,-7.4121,-7.4623,-7.3343,-7.2124,-7.2295,-7.0626,-7.0473,-7.3369,-7.2381,-7.1605,-7.2672,-7.2198,-7.1426,0.0,-6.867,-6.775,0.0,-6.7406,-6.8607,-7.1227,-7.3011,-7.5037,-7.7209,-8.186,-8.4777,-8.5843,-8.7497,-8.9209,-9.1275,-9.24,-9.2196,-9.1166,-9.0493,-8.922,-8.7706,-8.7437,-8.7317,-8.7347,-8.7616,-8.7945,-8.8526,-9.035,-9.1514,-9.2348,-9.6593,-9.8576,-9.967,6.0283,5.6217,5.2793,0.0,5.2754,0.0,5.2148,5.209,5.1914,5.1445,5.0703,4.9359,4.6912,4.5742,4.5029,4.5233,0.0,0.0,3.7297,3.477,3.3414,3.3414,3.3721,3.2621,2.9888,2.993,2.7112,2.1414,1.8842,1.7704,1.7846,1.7846,1.7982,1.7749,1.1542,0.5677,-0.0,-0.0,-0.0,-0.0906,-1.2396,-1.7053,-1.7144,-1.7512,-1.7704,-1.8361,-2.0891,-2.2156,-2.3215,-2.8523,-3.0823,-3.1795,-3.5161,-3.8339,-4.1069,-4.1919,-4.4789,-4.8603,-5.225,-5.6099,-5.914,-5.9305,-6.318,-6.7987,-7.2637,-7.4423,-7.5301,-7.5929,-7.6004,-7.5804,-7.5327,-7.392,-7.2464,-7.1334,-7.0255,-7.0193,-7.2016,-7.0781,-6.9579,-6.9609,-6.8086,0.0,-6.681,-6.7318,-6.8835,0.0,-7.4621,-7.7269,-7.9364,-7.5353,-7.6297,-8.3408,-8.4327,-8.5158,-8.6212,-8.6804,-8.7463,-8.7856,-8.8424,-8.8693,-8.8663,-8.8035,-8.7736,-8.7676,-8.7077,-8.6838,-8.6928,-8.7586,-8.7856,-8.7975,-8.8574,-9.0373,-9.263,-9.4726,-9.7638,-10.0621,0.0,0.0,5.3613,5.3262,5.3203,5.2949,5.2207,5.209,5.1816,5.1055,5.0781,4.957,4.6549,4.6085,4.4181,4.0348,3.907,3.7174,3.4585,3.38,3.3414,3.3414,3.3721,3.2531,2.9413,2.7578,2.3946,1.8294,1.7822,1.7555,1.7704,1.7704,1.7826,1.7596,1.1665,0.5596,-0.0,-0.0,-0.0,-0.1104,-1.2363,-1.7079,-1.7338,-1.7498,-1.9046,-2.1076,-2.1566,-2.4709,-2.8512,-2.9595,-3.1967,-3.4755,-3.76,-3.9654,-4.1224,-4.3986,-4.7806,-5.1783,-5.4882,-5.7491,-5.9449,-6.0842,-6.4876,-6.969,-7.3348,-7.4096,-7.4372,-7.5778,-7.5402,-7.49,-7.5176,-7.4573,-7.3519,-7.1962,-7.1133,-7.1346,-7.343,-7.2828,-7.2233,-7.2267,-7.1886,-7.1091,-6.9604,-6.9534,-6.9471,0.0,-7.1447,-7.3617,-7.564,-7.5392,-7.8009,-8.4302,-8.5061,-8.5577,-8.5783,-8.6988,-8.8186,-8.9202,-8.8843,-8.8693,-8.8693,-8.8514,-8.8185,-8.7736,-8.8065,-8.8484,-8.8963,-8.9142,-8.9501,-8.995,-9.013,-9.0579,-9.1293,-9.3343,-9.5811,-9.8659,5.8126,5.5769,5.3887,5.3437,5.3359,5.3066,5.2207,5.209,5.1836,5.1172,5.0918,4.9182,4.534,4.4436,4.2311,3.7112,3.7124,3.6361,3.3829,3.3494,3.3414,3.3414,3.3574,3.1731,2.7476,2.615,2.2744,1.7195,1.7277,1.7392,1.7548,1.7548,1.7636,1.7585,1.151,0.5515,-0.0,-0.0,-0.3067,-0.8054,-1.1749,-1.4839,-1.7534,-1.9058,-2.0658,-2.2492,-2.4642,-2.7525,-3.0468,-3.161,-3.333,-3.5477,-3.8748,-4.1222,-4.3343,-4.6855,-4.9901,-5.3035,-5.6132,-5.8027,-6.0115,-6.3612,-6.6582,-7.0102,-7.4317,-7.4749,-7.4824,-7.6456,-7.5728,-7.5025,-7.5829,-7.5126,-7.4021,-7.2866,-7.2784,-7.3275,-7.4276,-7.3677,-7.3374,-7.3513,-7.2506,-7.1504,-7.0664,-7.0631,-7.0399,-6.9591,-7.1423,0.0,-7.4868,-7.6243,-7.9488,-8.4729,-8.4723,-8.5107,-8.615,-8.6868,-8.7586,-8.8304,-8.7945,-8.7766,-8.7766,-8.7766,-8.7736,-8.7736,-8.8095,-8.8604,-8.9232,-8.9531,-8.986,-9.0219,-9.0519,-9.0638,-9.0774,-9.2863,-9.5171,-9.7442,5.7414,5.5527,5.3769,5.3262,5.3164,5.291,5.2109,5.1973,5.1855,5.1484,5.0726,4.8415,4.3892,4.2373,3.9938,3.5207,3.6315,3.6364,3.4151,3.3654,3.348,3.348,3.344,3.0748,2.542,2.4392,2.1795,1.7161,1.7161,1.7236,1.7385,1.7385,1.7453,1.7561,1.1569,0.5667,-0.0,-0.0,-0.652,-1.6485,-1.1858,-1.3139,-1.8373,-2.0799,-2.2448,-2.386,-2.849,-3.0314,-3.1182,-3.3433,-3.4482,-3.551,-3.9613,-4.264,-4.5826,-4.9807,-5.1795,-5.3526,-5.6422,-5.8183,-6.0476,-6.6224,-6.8045,-6.975,-7.5109,-7.5879,-7.5904,-7.7385,-7.6456,-7.5678,-7.6682,-7.5653,-7.444,-7.3697,-7.4359,-7.5131,-7.4937,-7.3976,-7.3513,-7.4225,-7.2096,-7.0606,-7.1158,-7.1209,-7.1234,-7.1334,-7.2979,-7.4321,-7.5429,-7.6868,-7.956,-8.4198,-8.3277,-8.3865,-8.6151,-8.6151,-8.637,-8.6838,-8.6838,-8.6838,-8.6838,-8.6928,-8.7287,-8.7856,-8.7975,-8.8364,-8.9023,-8.9591,-8.983,-8.986,-9.0429,-9.0698,-9.0924,-9.2606,-9.4617,-9.671,5.5081,5.3914,5.3203,5.2422,5.2285,5.2109,5.1601,5.1523,5.1504,5.1445,4.9358,4.6697,4.3723,4.1203,3.8531,3.5334,3.522,3.4923,3.4269,3.3975,3.3814,3.3814,3.3547,3.0748,2.542,2.0696,1.7818,1.7012,1.7012,1.7087,1.7229,1.7229,1.7344,1.7337,1.1569,0.5647,-0.0,-0.0,-0.6676,-1.6996,-1.62,-1.8638,-2.2404,-2.207,-2.5215,-2.9641,-2.9816,-3.1708,-3.398,-3.3917,-3.4309,-3.5844,-4.1313,-4.3723,-4.5871,-5.1744,-5.4646,-5.6231,-5.6874,-5.8183,-6.0758,-6.6833,-6.8269,-6.991,-7.6073,-7.7009,-7.6833,-7.7561,-7.6758,-7.613,-7.6758,-7.6281,-7.5208,-7.3301,-7.4824,-7.6123,-7.526,-7.4519,-7.4307,-7.5375,-7.2727,-7.1184,-7.1736,-7.1786,-7.1962,-7.2439,-7.2699,-7.369,-7.5544,-7.4306,-7.5676,-7.9935,-8.025,-8.1435,-8.37,-8.37,-8.5035,-8.7556,-8.7556,-8.7556,-8.7556,-8.8125,-8.8424,-8.8574,-8.9112,-8.9741,-9.0339,-9.0459,-9.0489,-9.0489,-9.0608,-9.0968,-9.1386,-9.112,-9.3148,-9.59,5.4306,5.3476,5.2812,5.2187,5.209,5.1933,5.1504,5.1426,5.1426,5.1426,4.9002,4.637,4.3521,4.0887,3.8262,3.5401,3.507,3.4937,3.4803,3.4362,3.4122,3.4122,3.3975,3.1321,2.5593,1.9919,1.6978,1.6978,1.6978,1.7012,1.708,1.708,1.7202,1.6988,1.1214,0.5377,-0.0432,-0.6913,-1.078,-1.2895,-1.6264,-1.9623,-2.2732,-2.3833,-2.6969,-3.0988,-3.1966,-3.3447,-3.4696,-3.4269,-3.5514,-3.8117,-4.2705,-4.5498,-4.8219,-5.3306,-5.5762,-5.7109,-5.8027,-5.8711,-6.0374,-6.5021,-6.7245,-6.9653,-7.3989,-7.6003,-7.6959,-7.721,-7.6607,-7.623,-7.6783,-7.6431,-7.6075,-7.5773,-7.6639,-7.7511,-7.7408,-7.5961,-7.5183,-7.5731,-7.3195,-7.1736,-7.2288,-7.2339,-7.2464,-7.2715,-7.2464,-7.2893,-7.3973,-7.3002,-7.3396,-7.5676,-7.8322,-8.0235,-8.1265,-8.1265,-8.2648,-8.5211,-8.5211,-8.5922,-8.7167,-8.7856,-8.8364,-8.8723,-8.9382,-9.004,-9.0638,-9.0638,-9.0638,-9.0638,-9.0638,-9.0818,-9.1087,-9.1147,-9.2498,-9.4585,5.4258,5.3457,5.2734,5.2305,5.2148,5.1973,5.1641,5.1504,5.1231,5.0608,4.8176,4.5352,4.2709,3.9874,3.7444,3.5401,3.5191,3.5191,3.5191,3.4776,3.4496,3.4429,3.3021,3.0113,2.5756,1.9958,1.6978,1.6978,1.7012,1.7032,1.7032,1.708,1.6982,1.672,1.2437,0.6644,-0.0866,-1.2761,-1.5147,-1.1456,-1.5908,-1.9692,-2.3215,-2.539,-2.8732,-3.2075,-3.3681,-3.4549,-3.4803,-3.4442,-3.6561,-4.0087,-4.3572,-4.6717,-5.0005,-5.4051,-5.6289,-5.7637,-5.8848,-5.918,-5.9928,-6.3313,-6.578,-6.8145,-7.1263,-7.4073,-7.5978,-7.6056,-7.6108,-7.6331,-7.6632,-7.6331,-7.6331,-7.7025,-7.782,-7.8283,-7.822,-7.6913,-7.5742,-7.5357,-7.3483,-7.2263,-7.269,-7.274,-7.274,-7.274,-7.2339,-7.2288,-7.2715,-7.2339,-7.2288,-7.2715,-7.6215,-7.8312,-7.8841,-7.8841,-8.0034,-8.2309,-8.3007,-8.4223,-8.5991,-8.7037,-8.7826,-8.8484,-8.9142,-8.9801,-9.0399,-9.0399,-9.0399,-9.0399,-9.0249,-9.0279,-9.0459,-9.0968,-9.1838,-9.2991,5.4707,5.3926,5.3183,5.2734,5.2344,5.207,5.2031,5.1699,5.0413,4.7978,4.5352,4.2506,3.9874,3.7235,3.5401,3.5191,3.5191,3.5191,3.5191,3.5151,3.5017,3.4736,2.9354,2.5974,2.5538,1.9958,1.6978,1.6978,1.7114,1.7175,1.7182,1.715,1.7264,1.6877,1.6543,1.0208,-0.0655,-1.2282,-1.711,-1.7317,-1.7507,-2.0962,-2.6002,-2.6418,-2.9968,-3.49,-3.4523,-3.4683,-3.507,-3.4509,-3.6702,-4.0391,-4.3653,-4.6717,-5.0005,-5.4051,-5.6504,-5.8027,-5.8945,-5.918,-5.9928,-6.3313,-6.4296,-6.5474,-6.8704,-7.1822,-7.3633,-7.3155,-7.515,-7.6682,-7.6205,-7.608,-7.5654,-7.4207,-7.6412,-7.7329,-7.4567,-7.5585,-7.6081,-7.4673,-7.3433,-7.269,-7.274,-7.274,-7.274,-7.274,-7.269,-7.269,-7.274,-7.269,-7.269,-7.274,-7.3093,-7.43,-7.6396,-7.6396,-7.7601,-8.0034,-8.2141,-8.334,-8.3535,-8.567,-8.7137,-8.7826,-8.8484,-8.9142,-8.9741,-8.9741,-8.9741,-8.9681,-8.9052,-8.9202,-8.9741,-8.9801,-9.0324,-9.1074,5.4316,5.3574,5.291,5.2734,5.2578,5.1749,4.9854,4.9468,4.8252,4.5168,4.2506,4.0492,3.9477,3.6831,3.5191,3.5191,3.5191,3.5191,3.5191,3.5191,3.428,3.2437,2.8302,2.518,2.3408,1.9334,1.7161,1.7256,1.7311,1.7331,1.7338,1.7224,1.5331,1.1873,1.5488,0.6522,-1.104,-1.1754,-1.4172,-1.7875,-1.7923,-2.0124,-2.4044,-2.5851,-2.8908,-3.2723,-3.3888,-3.4696,-3.5137,-3.4736,-3.8233,-4.3013,-4.4397,-4.8343,-5.2737,-5.4894,-5.6719,-5.7988,-5.8594,-5.9004,-5.9442,-6.0878,-6.2591,-6.4494,-6.5434,-6.7976,-7.019,-6.9707,-7.1713,-7.3729,-7.3534,-7.4987,-7.6228,-7.6391,-7.674,-7.6664,-7.6012,-7.5576,-7.4975,-7.4012,-7.3217,-7.274,-7.274,-7.274,-7.274,-7.274,-7.274,-7.274,-7.274,-7.274,-7.274,-7.274,-7.274,-7.3067,-7.3953,-7.3953,-7.5172,-7.7601,-7.9861,-8.1774,-8.3369,-8.6054,-8.7467,-8.7766,-8.8843,-8.9441,-8.9681,-8.9681,-8.9681,-8.9591,-8.8933,-8.9082,-8.9711,-9.013,-9.0429,-9.0804,5.4238,5.3633,5.3125,5.3125,5.2891,5.1781,4.8598,4.7942,4.6451,4.2538,4.0492,3.9063,3.8054,3.6425,3.5191,3.5191,3.5191,3.5191,3.5191,3.5191,3.3883,3.1059,2.7876,2.4769,2.2139,1.8874,1.7317,1.7419,1.7467,1.7494,1.7494,1.7384,1.4349,0.8631,0.6774,-0.2846,-1.7666,-1.3388,-1.4048,-1.7998,-1.7792,-1.9558,-2.2429,-2.5447,-2.8253,-3.1213,-3.3564,-3.483,-3.5284,-3.5004,-3.9375,-4.4815,-4.4854,-4.9376,-5.4609,-5.5488,-5.6758,-5.793,-5.8242,-5.873,-5.918,-5.918,-6.0878,-6.2508,-6.2179,-6.4484,-6.6723,-6.6415,-6.8459,-7.0766,-7.161,-7.351,-7.5352,-7.727,-7.6726,-7.6149,-7.6634,-7.5438,-7.4222,-7.3669,-7.3092,-7.274,-7.274,-7.274,-7.274,-7.274,-7.274,-7.274,-7.274,-7.274,-7.274,-7.274,-7.274,-7.274,-7.274,-7.274,-7.3418,-7.5172,-7.8312,-8.058,-8.2141,-8.576,-8.7377,-8.7437,-8.8574,-8.9172,-8.9352,-8.9142,-8.9172,-8.9262,-8.8394,-8.8334,-8.8843,-8.9711,-9.001,-9.007,5.4668,5.4336,5.4023,5.4023,5.3301,5.1877,4.9165,4.7888,4.5352,3.9874,3.927,3.8262,3.5401,3.5191,3.5191,3.5191,3.5191,3.5191,3.5191,3.5191,3.3883,3.1059,2.8016,2.4913,2.1931,1.8992,1.7419,1.7426,1.7575,1.765,1.765,1.7894,1.4803,0.8259,-0.9775,-1.7935,-1.7827,-1.765,-1.767,-1.7914,-1.7717,-1.9454,-2.242,-2.5447,-2.8253,-3.1237,-3.3784,-3.5137,-3.5591,-3.5297,-3.9507,-4.492,-4.492,-4.9753,-5.5312,-5.5312,-5.6523,-5.7871,-5.7871,-5.8496,-5.918,-5.918,-5.918,-5.918,-5.918,-6.13,-6.3384,-6.3384,-6.5518,-6.8459,-7.1177,-7.1815,-7.2653,-7.5633,-7.6055,-7.5854,-7.5301,-7.4774,-7.4222,-7.3669,-7.3092,-7.274,-7.274,-7.274,-7.274,-7.274,-7.274,-7.274,-7.274,-7.274,-7.274,-7.274,-7.274,-7.274,-7.274,-7.274,-7.274,-7.2715,-7.7449,-7.9687,-7.9861,-8.4579,-8.6689,-8.6718,-8.7407,-8.8065,-8.8634,-8.7975,-8.8095,-8.8544,-8.7197,-8.6689,-8.6838,-8.8185,-8.8693,-8.8873,5.4219,5.4121,5.4023,5.4023,5.3555,5.1599,4.6509,4.5431,4.3002,3.7263,3.6425,3.6006,3.5191,3.5191,3.5191,3.5191,3.5191,3.5191,3.5191,3.3235,3.0846,2.8038,2.6735,2.4121,1.9301,1.8086,1.7629,1.7738,1.7772,1.7806,1.7846,1.7948,1.6875,1.4151,-0.7996,-1.7914,-1.8002,-1.7758,-1.7745,-1.788,-1.7826,-1.8267,-1.9815,-2.458,-2.6961,-2.8435,-3.3142,-3.5137,-3.5618,-3.5525,-3.844,-4.287,-4.6919,-5.1473,-5.5312,-5.5312,-5.6523,-5.7871,-5.7871,-5.8496,-5.918,-5.918,-5.918,-5.918,-5.918,-5.981,-6.0456,-6.0456,-6.2753,-6.5496,-6.825,-7.056,-7.2653,-7.5633,-7.6055,-7.5854,-7.5301,-7.4774,-7.4222,-7.3669,-7.3092,-7.274,-7.274,-7.274,-7.274,-7.274,-7.274,-7.274,-7.274,-7.274,-7.274,-7.274,-7.274,-7.274,-7.274,-7.274,-7.3605,-7.5172,-7.8312,-8.058,-8.2309,-8.5288,-8.6689,-8.6718,-8.7407,-8.7826,-8.7975,-8.7796,-8.7826,-8.7915,-8.7018,-8.6988,-8.7437,-8.7856,-8.8304,-8.8753,5.4023,5.4023,5.4023,5.4023,5.3652,5.1327,4.5478,4.43,4.1897,3.6047,3.5191,3.5191,3.5191,3.5191,3.5191,3.5191,3.5191,3.5191,3.5191,3.2573,2.9551,2.6519,2.5321,2.2518,1.8088,1.7772,1.7772,1.786,1.788,1.7894,1.7935,1.8002,1.7813,1.6926,-0.4668,-1.567,-1.7982,-1.7826,-1.7812,-1.786,-1.786,-1.786,-1.8302,-2.3075,-2.5447,-2.7156,-3.1541,-3.4437,-3.5805,-3.5805,-3.8926,-4.3486,-4.8158,-5.2099,-5.5058,-5.5058,-5.6269,-5.7598,-5.7598,-5.8379,-5.918,-5.918,-5.918,-5.918,-5.918,-5.918,-5.918,-5.918,-6.0658,-6.2555,-6.5518,-6.825,-7.0972,-7.3937,-7.541,-7.5854,-7.5301,-7.4774,-7.4222,-7.3669,-7.3092,-7.274,-7.274,-7.274,-7.274,-7.274,-7.274,-7.274,-7.274,-7.274,-7.274,-7.274,-7.274,-7.3067,-7.414,-7.414,-7.4829,-7.6215,-7.9513,-8.1774,-8.334,-8.5611,-8.6689,-8.6689,-8.7107,-8.7437,-8.7676,-8.7407,-8.7467,-8.7646,-8.6958,-8.6928,-8.7317,-8.7616,-8.7975,-8.8334,5.4023,5.4023,5.4023,5.4023,5.341,5.1067,4.5478,4.4061,4.1659,3.5836,3.5191,3.5191,3.5191,3.5191,3.5191,3.5191,3.5191,3.5191,3.5191,3.2148,2.9326,2.6529,2.3502,2.0694,1.7867,1.786,1.786,1.786,1.7914,1.7699,1.702,1.7583,1.738,1.5547,-0.1338,-1.2312,-1.8002,-1.7894,-1.786,-1.786,-1.786,-1.786,-1.8295,-2.1132,-2.3937,-2.6961,-2.9765,-3.3147,-3.6086,-3.6139,-4.0305,-4.5889,-4.8438,-5.1723,-5.4687,-5.4687,-5.5859,-5.7148,-5.7148,-5.8125,-5.9121,-5.9121,-5.918,-5.918,-5.918,-5.918,-5.918,-5.918,-5.918,-6.0032,-6.2971,-6.5518,-6.825,-7.1406,-7.3711,-7.5236,-7.5105,-7.4554,-7.4004,-7.3644,-7.3092,-7.274,-7.274,-7.274,-7.274,-7.274,-7.274,-7.274,-7.274,-7.274,-7.274,-7.274,-7.274,-7.3792,-7.5877,-7.6215,-7.6577,-7.6911,-8.1094,-8.334,-8.3535,-8.586,-8.6748,-8.6689,-8.6808,-8.7137,-8.7556,-8.6988,-8.7107,-8.7556,-8.6928,-8.6689,-8.6748,-8.7377,-8.7616,-8.7706,5.4023,5.4023,5.4023,5.4023,5.1681,4.8646,4.503,4.2215,3.9152,3.5612,3.5191,3.5191,3.5191,3.5191,3.5191,3.5191,3.5191,3.5191,3.5191,3.0419,2.7176,2.6529,2.1546,1.8508,1.786,1.786,1.786,1.786,1.7914,1.5442,1.0945,1.5747,1.2825,0.3589,-0.5137,-1.2312,-1.8002,-1.7894,-1.786,-1.786,-1.786,-1.786,-1.8295,-2.1132,-2.3937,-2.6961,-2.9765,-3.3147,-3.6139,-3.6607,-4.0675,-4.5677,-4.6313,-5.0226,-5.4687,-5.4687,-5.5644,-5.6719,-5.6719,-5.7676,-5.8652,-5.8652,-5.8945,-5.918,-5.918,-5.918,-5.918,-5.918,-5.918,-6.0032,-6.2971,-6.3818,-6.5923,-7.0972,-7.056,-7.0807,-7.4688,-7.2888,-7.1711,-7.3453,-7.3092,-7.274,-7.274,-7.274,-7.274,-7.274,-7.274,-7.274,-7.274,-7.274,-7.274,-7.274,-7.274,-7.2904,-7.3418,-7.7091,-7.9861,-8.1605,-8.2673,-8.4223,-8.5991,-8.7037,-8.7197,-8.6748,-8.7796,-8.7736,-8.6928,-8.7317,-8.7257,-8.6868,-8.6748,-8.6689,-8.6689,-8.6838,-8.6898,-8.7434,5.4023,5.4023,5.3595,5.2081,5.0288,4.7506,4.3174,4.0977,3.8641,3.5828,3.5525,3.5618,3.5618,3.5485,3.5351,3.5204,3.5191,3.5191,3.5191,2.9765,2.6529,2.6529,2.0905,1.786,1.786,1.786,1.788,1.7894,1.7948,1.6379,1.3237,1.0556,0.2913,-0.8533,-0.8727,-1.2298,-1.7968,-1.7894,-1.786,-1.786,-1.786,-1.786,-1.8088,-1.961,-2.2857,-2.6755,-2.8382,-3.2242,-3.6353,-3.6794,-3.9922,-4.3772,-4.5039,-4.8596,-5.2628,-5.3944,-5.5273,-5.6269,-5.6269,-5.7226,-5.8262,-5.8476,-5.8711,-5.8945,-5.9121,-5.918,-5.918,-5.918,-5.918,-5.9607,-6.1059,-6.2534,-6.4445,-6.7386,-6.7627,-6.8628,-7.2557,-7.121,-7.0806,-7.3211,-7.3092,-7.274,-7.274,-7.274,-7.274,-7.274,-7.274,-7.274,-7.274,-7.274,-7.274,-7.274,-7.274,-7.3255,-7.43,-7.6731,-7.9192,-8.1605,-8.3865,-8.5449,-8.6689,-8.7377,-8.7496,-8.7227,-8.8245,-8.8095,-8.7197,-8.7556,-8.7287,-8.6689,-8.6689,-8.6689,-8.6689,-8.6689,-8.6689,-8.7163,5.4023,5.4023,5.3166,5.0144,4.9178,4.6716,4.1195,3.9847,3.8681,3.5939,3.5925,3.6072,3.6072,3.5805,3.5511,3.5217,3.5191,3.5191,3.5191,2.9765,2.6529,2.6529,2.0905,1.786,1.786,1.786,1.788,1.7935,1.6843,1.6875,1.7616,0.5613,-0.6513,-1.7616,-1.2772,-1.3202,-1.7935,-1.788,-1.786,-1.786,-1.786,-1.786,-1.786,-1.786,-2.1546,-2.6559,-2.6782,-3.1114,-3.654,-3.6834,-3.8856,-4.1647,-4.3986,-4.6754,-4.952,-5.1875,-5.3785,-5.5148,-5.5148,-5.6328,-5.7851,-5.8203,-5.8359,-5.8535,-5.8887,-5.9062,-5.918,-5.918,-5.9121,-5.9062,-5.9062,-6.0878,-6.2524,-6.3154,-6.4932,-6.7161,-7.0483,-7.0079,-7.0492,-7.3186,-7.3092,-7.274,-7.274,-7.274,-7.274,-7.274,-7.274,-7.274,-7.274,-7.274,-7.274,-7.274,-7.2816,-7.3707,-7.5512,-7.6139,-7.7198,-7.9192,-8.3535,-8.5449,-8.5479,-8.6276,-8.6572,-8.6513,-8.7369,-8.7504,-8.7149,-8.7149,-8.7116,-8.6838,-8.6718,-8.6689,-8.6689,-8.6689,-8.6975,-8.7386,5.4023,5.4023,5.3166,5.037,4.7496,4.4499,4.1302,3.8325,3.6477,3.6019,3.6046,3.6072,3.6072,3.5805,3.5511,3.5217,3.5191,3.5191,3.5191,2.9765,2.6529,2.6529,2.0905,1.786,1.786,1.786,1.788,1.7935,1.2747,1.2776,1.7616,0.5613,-0.6513,-1.7847,-1.7098,-1.7072,-1.7935,-1.788,-1.786,-1.786,-1.786,-1.786,-1.786,-1.786,-2.1546,-2.6559,-2.6782,-3.1114,-3.654,-3.6834,-3.8856,-4.1213,-4.1632,-4.3772,-4.6118,-4.6542,-4.9036,-5.1667,-5.1667,-5.4326,-5.7305,-5.7363,-5.7676,-5.7969,-5.8027,-5.8613,-5.918,-5.918,-5.8887,-5.8594,-5.8594,-5.8521,-5.9495,-6.1782,-6.2338,-6.4382,-6.9762,-6.9865,-7.0492,-7.3186,-7.3092,-7.274,-7.274,-7.274,-7.274,-7.274,-7.274,-7.274,-7.274,-7.274,-7.274,-7.274,-7.3217,-7.3408,-7.3255,-7.5692,-7.6925,-7.6731,-7.9339,-8.058,-8.0608,-8.1753,-8.2004,-8.1613,-8.326,-8.458,-8.5298,-8.5298,-8.6179,-8.7496,-8.6898,-8.6689,-8.6689,-8.6689,-8.7668,-8.923,5.4023,5.4023,5.3166,5.0144,4.8538,4.5985,4.1576,3.9558,3.8208,3.653,3.6473,3.65,3.6326,3.5899,3.5511,3.5217,3.5191,3.4544,3.2798,2.8897,2.588,2.4155,2.0035,1.786,1.786,1.788,1.7935,1.7968,1.1848,0.8501,0.7858,0.2467,-0.2917,-0.829,-1.482,-1.7982,-1.7935,-1.788,-1.786,-1.786,-1.7948,-1.7935,-1.788,-1.7948,-2.0606,-2.4795,-2.8427,-3.2785,-3.6754,-3.6901,-3.7798,-3.9075,-4.0793,-4.2065,-4.3342,-4.5039,-4.8151,-5.0937,-5.0937,-5.3848,-5.6914,-5.7148,-5.7363,-5.7558,-5.7812,-5.8164,-5.8437,-5.8437,-5.832,-5.8144,-5.8144,-5.9238,-6.0567,-6.1808,-6.3032,-6.5121,-6.922,-6.9365,-7.0058,-7.2711,-7.2891,-7.274,-7.274,-7.274,-7.274,-7.274,-7.274,-7.274,-7.274,-7.274,-7.274,-7.274,-7.2991,-7.2991,-7.274,-7.4047,-7.4557,-7.43,-7.5694,-7.7411,-7.9743,-8.0627,-8.1068,-8.1207,-8.2671,-8.3349,-8.3483,-8.382,-8.462,-8.5515,-8.5223,-8.5774,-8.6689,-8.6689,-8.726,-8.7948]},{"header":{"parameterUnit":"m.s-1","parameterCategory":1,"la1":30.6,"la2":28.766,"lo1":-90.7593,"lo2":-88.6598,"dx":0.0162,"dy":0.0183,"nx":116,"ny":114,"refTime":"2022-11-14T06:00:00:Z","depth":0,"parameterNumber":3,"parameterNumberName":"V-component_of_WINDS"},"data":[0.0,0.0,0.0,0.0,0.0,0.0,0.0,0.0,0.0,0.0,0.0,0.0,0.0,0.0,0.0,0.0,0.0,0.0,0.0,0.0,0.0,0.0,0.0,0.0,0.0,0.0,0.0,0.0,0.0,0.0,0.0,0.0,0.0,0.0,0.0,0.0,0.0,0.0,0.0,0.0,0.0,0.0,0.0,0.0,0.0,0.0,0.0,0.0,0.0,0.0,0.0,0.0,0.0,0.0,0.0,0.0,0.0,0.0,0.0,0.0,0.0,0.0,0.0,0.0,0.0,0.0,0.0,0.0,0.0,0.0,0.0,0.0,0.0,0.0,0.0,0.0,0.0,0.0,0.0,0.0,0.0,0.0,0.0,0.0,0.0,0.0,0.0,0.0,0.0,0.0,0.0,0.0,0.0,0.0,0.0,0.0,0.0,0.0,0.0,0.0,0.0,0.0,0.0,0.0,0.0,0.0,0.0,0.0,0.0,0.0,0.0,0.0,0.0,0.0,0.0,0.0,0.0,0.0,0.0,0.0,0.0,0.0,0.0,0.0,0.0,0.0,0.0,0.0,0.0,0.0,0.0,0.0,0.0,0.0,0.0,0.0,0.0,0.0,0.0,0.0,0.0,0.0,0.0,0.0,0.0,0.0,0.0,0.0,0.0,0.0,0.0,0.0,0.0,0.0,0.0,0.0,0.0,0.0,0.0,0.0,0.0,0.0,0.0,0.0,0.0,0.0,0.0,0.0,0.0,0.0,0.0,0.0,0.0,0.0,0.0,0.0,0.0,0.0,0.0,0.0,0.0,0.0,0.0,0.0,0.0,0.0,0.0,0.0,0.0,0.0,0.0,0.0,0.0,0.0,0.0,0.0,0.0,0.0,0.0,0.0,0.0,0.0,0.0,0.0,0.0,0.0,0.0,0.0,0.0,0.0,0.0,0.0,0.0,0.0,0.0,0.0,0.0,0.0,0.0,0.0,0.0,0.0,0.0,0.0,0.0,0.0,0.0,0.0,0.0,0.0,0.0,0.0,0.0,0.0,0.0,0.0,0.0,0.0,0.0,0.0,0.0,0.0,0.0,0.0,0.0,0.0,0.0,0.0,0.0,0.0,0.0,0.0,0.0,0.0,0.0,0.0,0.0,0.0,0.0,0.0,0.0,0.0,0.0,0.0,0.0,0.0,0.0,0.0,0.0,0.0,0.0,0.0,0.0,0.0,0.0,0.0,0.0,0.0,0.0,0.0,0.0,0.0,0.0,0.0,0.0,0.0,0.0,0.0,0.0,0.0,0.0,0.0,0.0,0.0,0.0,0.0,0.0,0.0,0.0,0.0,0.0,0.0,0.0,0.0,0.0,0.0,0.0,0.0,0.0,0.0,0.0,0.0,0.0,0.0,0.0,0.0,0.0,0.0,0.0,0.0,0.0,0.0,0.0,0.0,0.0,0.0,0.0,0.0,0.0,0.0,0.0,0.0,0.0,0.0,0.0,0.0,0.0,0.0,0.0,0.0,0.0,0.0,0.0,0.0,0.0,0.0,0.0,0.0,0.0,0.0,0.0,0.0,0.0,0.0,0.0,0.0,0.0,0.0,0.0,0.0,0.0,0.0,0.0,0.0,0.0,0.0,0.0,0.0,0.0,0.0,0.0,0.0,0.0,0.0,0.0,0.0,0.0,0.0,0.0,0.0,0.0,0.0,0.0,0.0,0.0,0.0,0.0,0.0,0.0,0.0,0.0,0.0,0.0,0.0,0.0,0.0,0.0,0.0,0.0,0.0,0.0,0.0,0.0,0.0,0.0,0.0,0.0,0.0,0.0,0.0,0.0,0.0,0.0,0.0,0.0,0.0,0.0,0.0,0.0,0.0,0.0,0.0,0.0,0.0,0.0,0.0,0.0,0.0,0.0,0.0,0.0,0.0,0.0,0.0,0.0,0.0,0.0,0.0,0.0,0.0,0.0,0.0,0.0,0.0,0.0,0.0,0.0,0.0,0.0,0.0,0.0,0.0,0.0,0.0,0.0,0.0,0.0,0.0,0.0,0.0,0.0,0.0,0.0,0.0,0.0,0.0,0.0,0.0,0.0,0.0,0.0,0.0,0.0,0.0,0.0,0.0,0.0,0.0,0.0,0.0,0.0,0.0,0.0,0.0,0.0,0.0,0.0,0.0,0.0,0.0,0.0,0.0,0.0,0.0,0.0,0.0,0.0,0.0,0.0,0.0,0.0,0.0,0.0,0.0,0.0,0.0,0.0,0.0,0.0,0.0,0.0,0.0,0.0,0.0,0.0,0.0,0.0,0.0,0.0,0.0,0.0,0.0,0.0,0.0,0.0,0.0,0.0,0.0,0.0,0.0,0.0,0.0,0.0,0.0,0.0,0.0,0.0,0.0,0.0,0.0,0.0,0.0,0.0,0.0,0.0,0.0,0.0,0.0,0.0,0.0,0.0,0.0,0.0,0.0,0.0,0.0,0.0,0.0,0.0,0.0,0.0,0.0,0.0,0.0,0.0,0.0,0.0,0.0,0.0,0.0,0.0,0.0,0.0,0.0,0.0,0.0,0.0,0.0,0.0,0.0,0.0,0.0,0.0,0.0,0.0,0.0,0.0,0.0,0.0,0.0,0.0,0.0,0.0,0.0,0.0,0.0,0.0,0.0,0.0,0.0,0.0,0.0,0.0,0.0,0.0,0.0,0.0,0.0,0.0,0.0,0.0,0.0,0.0,0.0,0.0,0.0,0.0,0.0,0.0,0.0,0.0,0.0,0.0,0.0,0.0,0.0,0.0,0.0,0.0,0.0,0.0,0.0,0.0,0.0,0.0,0.0,0.0,0.0,0.0,0.0,0.0,0.0,0.0,0.0,0.0,0.0,0.0,0.0,0.0,0.0,0.0,0.0,0.0,0.0,0.0,0.0,0.0,0.0,0.0,0.0,0.0,0.0,0.0,0.0,0.0,0.0,0.0,0.0,0.0,0.0,0.0,0.0,0.0,0.0,0.0,0.0,0.0,0.0,0.0,0.0,0.0,0.0,0.0,0.0,0.0,0.0,0.0,0.0,0.0,0.0,0.0,0.0,0.0,0.0,0.0,0.0,0.0,0.0,0.0,0.0,0.0,0.0,0.0,0.0,0.0,0.0,0.0,0.0,0.0,0.0,0.0,0.0,0.0,0.0,0.0,0.0,0.0,0.0,0.0,0.0,0.0,0.0,0.0,0.0,0.0,0.0,0.0,0.0,0.0,0.0,0.0,0.0,0.0,0.0,0.0,0.0,0.0,0.0,0.0,0.0,0.0,0.0,0.0,0.0,0.0,0.0,0.0,0.0,0.0,0.0,0.0,0.0,0.0,0.0,0.0,0.0,0.0,0.0,0.0,0.0,0.0,0.0,0.0,0.0,0.0,0.0,0.0,0.0,0.0,0.0,0.0,0.0,0.0,0.0,0.0,0.0,0.0,0.0,0.0,0.0,0.0,0.0,0.0,0.0,0.0,0.0,0.0,0.0,0.0,0.0,0.0,0.0,0.0,0.0,0.0,0.0,0.0,0.0,0.0,0.0,0.0,0.0,0.0,0.0,0.0,0.0,0.0,0.0,0.0,0.0,0.0,0.0,0.0,0.0,0.0,0.0,0.0,0.0,0.0,0.0,0.0,0.0,0.0,0.0,0.0,0.0,0.0,0.0,0.0,0.0,0.0,0.0,0.0,0.0,0.0,0.0,0.0,0.0,0.0,0.0,0.0,0.0,0.0,0.0,0.0,0.0,0.0,0.0,0.0,0.0,0.0,0.0,0.0,0.0,0.0,0.0,0.0,0.0,0.0,0.0,0.0,0.0,0.0,0.0,0.0,0.0,0.0,0.0,0.0,0.0,0.0,0.0,0.0,0.0,0.0,0.0,0.0,0.0,0.0,0.0,0.0,0.0,0.0,0.0,0.0,0.0,0.0,0.0,0.0,0.0,0.0,0.0,0.0,0.0,0.0,0.0,0.0,0.0,0.0,0.0,0.0,0.0,0.0,0.0,0.0,0.0,0.0,0.0,0.0,0.0,0.0,0.0,0.0,0.0,0.0,0.0,0.0,0.0,0.0,0.0,0.0,0.0,0.0,0.0,0.0,0.0,0.0,0.0,0.0,0.0,0.0,0.0,0.0,0.0,0.0,0.0,0.0,0.0,0.0,0.0,0.0,0.0,0.0,0.0,0.0,0.0,0.0,0.0,0.0,0.0,0.0,0.0,0.0,0.0,0.0,0.0,0.0,0.0,0.0,0.0,0.0,0.0,0.0,0.0,0.0,0.0,0.0,0.0,0.0,0.0,0.0,0.0,0.0,0.0,0.0,0.0,0.0,0.0,0.0,0.0,0.0,0.0,0.0,0.0,0.0,0.0,0.0,0.0,0.0,0.0,0.0,0.0,0.0,0.0,0.0,0.0,0.0,0.0,0.0,0.0,0.0,0.0,0.0,0.0,0.0,0.0,0.0,0.0,0.0,0.0,0.0,0.0,0.0,0.0,0.0,0.0,0.0,0.0,0.0,0.0,0.0,0.0,0.0,0.0,0.0,0.0,0.0,0.0,0.0,0.0,0.0,0.0,0.0,0.0,0.0,0.0,0.0,0.0,0.0,0.0,0.0,0.0,0.0,0.0,0.0,0.0,0.0,0.0,0.0,0.0,0.0,0.0,0.0,0.0,0.0,0.0,0.0,0.0,0.0,0.0,0.0,0.0,0.0,0.0,0.0,0.0,0.0,0.0,0.0,0.0,0.0,0.0,0.0,0.0,0.0,0.0,0.0,0.0,0.0,0.0,0.0,0.0,0.0,0.0,0.0,0.0,0.0,0.0,0.0,0.0,0.0,0.0,0.0,0.0,0.0,0.0,0.0,0.0,0.0,0.0,0.0,0.0,0.0,0.0,0.0,0.0,0.0,0.0,0.0,0.0,0.0,0.0,0.0,0.0,0.0,0.0,0.0,0.0,0.0,0.0,0.0,0.0,0.0,0.0,0.0,0.0,0.0,0.0,0.0,0.0,0.0,0.0,0.0,0.0,0.0,0.0,0.0,0.0,0.0,0.0,0.0,0.0,0.0,0.0,0.0,0.0,0.0,0.0,0.0,0.0,0.0,0.0,0.0,0.0,0.0,0.0,0.0,0.0,0.0,0.0,0.0,0.0,0.0,0.0,0.0,0.0,0.0,0.0,0.0,0.0,0.0,0.0,0.0,0.0,0.0,0.0,0.0,0.0,0.0,0.0,0.0,0.0,0.0,0.0,0.0,0.0,0.0,0.0,0.0,0.0,0.0,0.0,0.0,0.0,0.0,0.0,0.0,0.0,0.0,0.0,0.0,0.0,0.0,0.0,0.0,0.0,0.0,0.0,0.0,0.0,0.0,0.0,0.0,0.0,0.0,0.0,0.0,0.0,0.0,0.0,0.0,0.0,0.0,0.0,0.0,0.0,0.0,0.0,0.0,0.0,0.0,0.0,0.0,0.0,0.0,0.0,0.0,0.0,0.0,0.0,0.0,0.0,0.0,0.0,0.0,0.0,0.0,0.0,0.0,0.0,0.0,0.0,0.0,0.0,0.0,0.0,0.0,0.0,0.0,0.0,0.0,0.0,0.0,0.0,0.0,0.0,0.0,0.0,0.0,0.0,0.0,0.0,0.0,0.0,0.0,0.0,0.0,0.0,0.0,0.0,0.0,0.0,0.0,0.0,0.0,0.0,0.0,0.0,0.0,0.0,0.0,0.0,0.0,0.0,0.0,0.0,0.0,0.0,0.0,0.0,0.0,0.0,0.0,0.0,0.0,0.0,0.0,0.0,0.0,0.0,0.0,0.0,0.0,0.0,0.0,0.0,0.0,0.0,0.0,0.0,0.0,0.0,0.0,0.0,0.0,0.0,0.0,0.0,0.0,0.0,0.0,0.0,0.0,0.0,0.0,0.0,0.0,0.0,0.0,0.0,0.0,0.0,0.0,0.0,0.0,0.0,0.0,0.0,0.0,0.0,0.0,0.0,0.0,0.0,0.0,0.0,0.0,0.0,0.0,0.0,0.0,0.0,0.0,0.0,0.0,0.0,0.0,0.0,0.0,0.0,0.0,0.0,0.0,0.0,0.0,0.0,0.0,0.0,0.0,0.0,2.3362,1.7752,0.0,0.0,0.0,0.0,0.0,0.0,0.0,0.0,0.0,0.0,0.0,0.0,0.0,0.0,0.0,0.0,0.0,0.0,0.0,0.0,0.0,0.0,0.0,-1.8204,-1.8078,-1.7802,-1.7501,0.0,0.0,0.0,0.0,0.0,0.0,0.0,0.0,0.0,-1.7049,-1.8103,-2.0012,-2.3627,-2.8699,-2.6364,-2.3552,-2.0413,0.0,0.0,0.0,0.0,0.0,0.0,0.0,0.0,0.0,0.0,0.0,0.0,0.0,0.0,0.0,0.0,0.0,0.0,0.0,0.0,0.0,0.0,0.0,0.0,0.0,0.0,0.0,0.0,0.0,0.0,0.0,0.0,0.0,0.0,0.0,0.0,0.0,0.0,0.0,0.0,0.0,0.0,0.0,0.0,0.0,0.0,0.0,0.0,0.0,0.0,0.0,0.0,0.0,0.0,0.0,0.0,0.0,0.0,0.0,0.0,0.0,0.0,0.0,0.0,0.0,0.0,0.0,0.0,0.0,0.0,2.6621,2.3782,0.0,0.0,0.0,0.0,0.0,0.0,0.0,0.0,0.0,0.0,0.0,0.0,0.0,0.0,0.0,0.0,0.0,0.0,0.0,0.0,0.0,-1.838,-1.848,-1.848,-1.8555,-1.8756,-1.8606,-1.8279,-1.7827,-1.7626,0.0,0.0,0.0,0.0,-1.6522,-1.6827,-1.8219,-2.069,-2.5485,-3.0557,-3.578,-3.6232,-3.347,-2.7921,-2.31,0.0,0.0,0.0,0.0,0.0,0.0,0.0,0.0,0.0,0.0,0.0,0.0,0.0,0.0,0.0,0.0,0.0,0.0,0.0,0.0,0.0,0.0,0.0,0.0,0.0,0.0,0.0,0.0,0.0,0.0,0.0,0.0,0.0,0.0,0.0,0.0,0.0,0.0,0.0,0.0,0.0,0.0,0.0,0.0,0.0,0.0,0.0,0.0,0.0,0.0,0.0,0.0,0.0,0.0,0.0,0.0,0.0,0.0,0.0,0.0,0.0,0.0,0.0,3.1344,3.125,3.1328,3.1601,3.2285,3.3066,3.0525,3.1053,3.2967,2.5068,0.0,0.0,0.0,0.0,0.0,0.0,0.0,0.0,0.0,0.0,0.0,0.0,0.0,0.0,0.0,0.0,0.0,0.0,0.0,-1.9083,-1.9535,-1.9585,-1.9987,-2.0966,-2.0162,-1.956,-1.9484,-1.8606,0.0,0.0,0.0,0.0,-1.6522,-1.8122,-2.0628,-2.4155,-3.47,-4.1028,-4.3212,-4.3288,-4.261,-4.1028,-3.465,-3.0649,-2.8444,0.0,0.0,0.0,0.0,0.0,0.0,0.0,0.0,0.0,0.0,0.0,0.0,0.0,0.0,0.0,0.0,0.0,0.0,0.0,0.0,0.0,0.0,0.0,0.0,0.0,0.0,0.0,0.0,0.0,0.0,0.0,0.0,0.0,0.0,0.0,0.0,0.0,0.0,0.0,0.0,0.0,0.517,0.2273,0.0,0.0,0.0,0.0,0.0,0.0,0.0,0.0,0.0,0.0,0.0,0.0,0.0,2.8584,3.5269,3.6058,3.8482,4.2658,4.2823,4.3008,4.3379,4.3047,4.2793,4.2441,3.9563,0.0,3.5259,3.1452,0.0,0.0,0.0,0.0,0.0,0.0,0.0,0.0,0.0,0.0,0.0,0.0,0.0,0.0,0.0,0.0,0.0,0.0,0.0,0.0,0.0,-2.3175,-2.5059,-2.649,-2.757,-2.7118,-2.4632,-2.3452,0.0,0.0,0.0,-1.7784,-1.852,-2.166,-2.7316,-3.5479,-4.2459,-4.7205,-4.9741,-5.0067,-5.0092,-4.969,-4.6175,-4.0312,-3.3093,-3.1339,0.0,0.0,0.0,0.0,0.0,0.0,0.0,0.0,0.0,0.0,0.0,0.0,0.0,0.0,0.0,0.0,0.0,0.0,0.0,0.0,0.0,0.0,0.0,0.0,0.0,0.0,0.0,0.0,0.0,0.0,0.0,0.0,0.0,0.0,0.0,0.0,0.0,0.0,0.0,0.7339,0.3773,0.2273,0.2137,0.3229,0.0,0.0,0.0,0.0,0.0,0.0,0.0,0.0,0.0,2.6518,2.9316,3.3239,3.8784,4.1035,4.318,4.5383,4.5595,4.584,4.6016,4.5586,4.5293,4.5039,4.3457,4.2129,4.0724,3.6938,3.5557,3.5605,0.0,0.0,0.0,0.0,3.2835,3.3052,0.0,0.0,0.0,0.0,0.0,0.0,0.0,0.0,0.0,0.0,0.0,0.0,-2.423,-2.777,-3.0809,-3.2767,-3.4675,-3.3972,-2.9654,-2.7946,-2.4858,-1.9886,-1.8852,-1.9003,-2.0327,-2.6425,-3.4679,-4.5193,-4.8611,-5.1649,-5.4361,-5.4637,-5.4787,-5.4737,-5.3783,-4.8027,-3.8943,-3.7655,-3.4334,-2.9987,0.0,0.0,0.0,0.0,0.0,0.0,0.0,0.0,0.0,0.0,0.0,0.0,0.0,0.0,0.0,0.0,0.0,0.0,0.0,0.0,0.0,0.0,0.0,0.0,0.0,0.0,0.0,0.0,0.0,0.0,0.0,0.0,0.0,0.0,0.0,0.0,0.0,0.5508,0.2604,0.2371,0.1222,0.1624,0.0,0.0,0.0,0.0,0.0,0.0,1.7784,1.8764,2.2615,3.0024,3.296,3.6541,4.097,4.3759,4.5454,4.5996,4.6426,4.6621,4.6621,4.6308,4.6094,4.5976,4.5762,4.5683,4.541,4.1298,3.9663,3.9746,3.8334,3.6769,3.5575,3.7457,3.8136,3.8597,0.0,0.0,0.0,0.0,0.0,0.0,0.0,0.0,0.0,0.0,0.0,-2.7745,-2.9955,-3.3169,-3.6282,-3.8994,-3.8894,-3.701,-3.3093,-3.0306,-2.659,-2.1568,-1.9853,-1.9675,-2.101,-3.2071,-4.1491,-4.8762,-5.2506,-5.4888,-5.6068,-5.5566,-5.534,-5.5315,-5.4737,-5.2311,-4.8428,-4.4832,-4.1791,-3.8851,-3.1952,0.0,0.0,0.0,0.0,0.0,0.0,0.0,0.0,0.0,0.0,0.0,0.0,0.0,0.0,0.0,0.0,0.0,0.0,0.0,0.0,0.0,0.0,0.0,0.0,0.0,0.0,0.0,0.0,0.0,0.0,0.0,0.0,0.0,0.0,0.0,0.0,0.0,0.0,0.0971,-0.3394,0.0,0.0,0.0,0.0,0.9901,1.218,1.5756,2.1097,2.1985,2.588,3.3948,3.4548,3.7141,4.1814,4.2963,4.464,4.6875,4.7305,4.7519,4.7519,4.75,4.7266,4.6894,4.7285,4.7461,4.7184,4.3763,4.3485,4.4849,4.1181,4.0802,4.2322,4.2963,4.3147,4.3624,0.0,0.0,0.0,0.0,0.0,-2.0936,-2.1549,-2.1676,-2.19,-2.2548,-2.7033,-3.0701,-3.2072,-3.8341,-4.3137,-4.4819,-4.6778,-4.6125,-4.1882,-3.6659,-3.2139,-2.8549,-2.4039,-2.5422,-3.3369,-4.1338,-4.8025,-5.3645,-5.5333,-5.6545,-5.7298,-5.7097,-5.6997,-5.6972,-5.642,-5.5408,-5.4137,-5.1367,-4.7598,-4.3232,-4.0254,-3.5817,0.0,0.0,0.0,0.0,0.0,0.0,0.0,0.0,0.0,0.0,0.0,0.0,0.0,0.0,0.0,0.0,0.0,0.0,0.0,0.0,0.0,0.0,0.0,0.0,0.0,0.0,0.0,0.0,0.0,0.0,0.0,0.0,0.0,0.0,0.0,0.0,0.0,0.0881,-0.1257,0.0,0.1058,0.4839,0.8115,1.0537,1.2059,1.5198,2.0566,2.0946,2.3989,3.0421,3.2219,3.4929,3.8376,4.2214,4.4544,4.5498,4.7434,4.8398,4.8398,4.8105,4.6964,4.5315,4.5463,4.4376,4.2889,4.2176,4.2882,4.4226,4.3029,4.1958,4.1196,4.1849,4.3198,4.4932,0.0,0.0,0.0,0.0,-2.2457,-2.2447,-2.2953,-2.3414,-2.4231,-2.5906,-3.0738,-3.4986,-3.7535,-4.4066,-4.8837,-5.0293,-5.2477,-5.1322,-4.5573,-4.0551,-3.5629,-3.0758,-2.821,-3.197,-4.2815,-4.7231,-5.1685,-5.6495,-5.6846,-5.7323,-5.7901,-5.7901,-5.7901,-5.7876,-5.7499,-5.7323,-5.7223,-5.5742,-5.2598,-4.8299,-4.6332,-4.1966,-3.6152,0.0,0.0,0.0,0.0,0.0,0.0,0.0,0.0,0.0,0.0,0.0,0.0,0.0,0.0,0.0,0.0,0.0,0.0,0.0,0.0,0.0,0.0,0.0,0.0,0.0,0.0,0.0,0.0,0.0,0.0,0.0,0.0,0.0,0.0,0.4723,0.2003,0.185,-0.0166,-0.1033,0.0,0.4737,0.834,1.0105,1.252,1.5668,2.0124,2.0604,2.2645,2.6849,2.9861,3.2403,3.5053,3.9801,4.2433,4.3269,4.5179,4.6149,4.613,4.6019,4.4992,4.3484,4.3417,4.2499,4.0996,4.1489,4.1647,4.1968,4.2985,4.2307,4.1012,4.1522,4.2765,4.4515,0.0,0.0,0.0,-2.2671,-2.3278,-2.3794,-2.3794,-2.4797,-2.7078,-3.1202,-3.5722,-4.0745,-4.6522,-5.0142,-5.3055,-5.5189,-5.5415,-5.1925,-4.3689,-4.1505,-3.6634,-2.7896,-3.2169,-3.9051,-4.8043,-4.9554,-5.2506,-5.7195,-5.7195,-5.7523,-5.8127,-5.8127,-5.7976,-5.8001,-5.7976,-5.7976,-5.7976,-5.7951,-5.6671,-5.4351,-4.9935,-4.6867,-4.4221,0.0,0.0,0.0,0.0,0.0,0.0,0.0,0.0,0.0,0.0,0.0,0.0,0.0,0.0,0.0,0.0,0.0,0.0,0.0,0.0,0.0,0.0,0.0,0.0,0.0,0.0,0.0,0.0,0.0,0.0,0.0,0.0,0.0,0.3725,0.0,-0.1106,0.3239,-0.0552,-0.2569,-0.0194,0.5038,0.8263,0.8263,1.3216,1.7545,2.0165,2.0535,2.1856,2.4292,2.7355,2.996,3.2182,3.5505,3.8287,4.0437,4.0799,4.0963,4.0979,4.1163,4.1326,4.1147,4.1505,4.1668,4.1469,4.1485,4.0122,3.8141,4.0889,4.1882,4.1882,4.1899,4.2144,4.2536,0.0,0.0,-2.403,-2.4504,-2.4819,-2.5207,-2.5736,-2.6491,-2.834,-3.1844,-3.7076,-4.2186,-4.6597,-5.1172,-5.4285,-5.529,-5.5742,-5.3482,-4.7556,-4.2986,-3.8165,-3.2918,-4.119,-4.7744,-5.1583,-5.484,-5.8228,-6.1636,-6.1636,-6.1699,-6.1698,-6.1698,-6.1197,-6.0261,-5.9834,-5.9659,-5.9608,-5.883,-5.8152,-5.7298,-5.4505,-5.1518,-4.8456,0.0,0.0,0.0,0.0,0.0,0.0,0.0,0.0,0.0,0.0,0.0,0.0,0.0,0.0,0.0,0.0,0.0,0.0,0.0,0.0,0.0,0.0,0.0,0.0,0.0,0.0,0.0,0.0,0.0,0.0,0.0,-0.5765,-0.6258,-0.4055,-0.3607,-0.3118,-0.1848,-0.3155,-0.3066,-0.0204,0.3309,0.6262,0.8341,1.1744,1.4976,1.7825,1.8085,1.9407,2.2249,2.3007,2.5603,3.025,3.3092,3.5906,3.8491,4.059,4.1735,4.1539,3.9715,3.7725,3.5787,3.4196,3.2349,3.0552,3.0916,3.0662,3.065,3.7244,3.8795,3.7037,3.749,3.8939,4.09,0.0,-2.3989,-2.4908,-2.5356,-2.5969,-2.6512,-2.6942,-2.8038,-3.051,-3.5144,-3.9425,-4.4098,-4.9568,-5.2829,-5.4888,-5.5666,-5.4762,-5.206,-4.7256,-4.3124,-4.1424,-4.2423,-4.9101,-5.414,-5.6969,-5.9264,-6.1352,-6.3391,-6.3916,-6.4286,-6.4426,-6.4816,-6.4257,-6.3302,-6.2096,-6.1505,-6.1095,-5.959,-5.9056,-5.8905,-5.7399,-5.497,-5.2117,-5.0519,-4.8267,-4.5908,-4.5564,-4.5086,-4.455,-4.4591,0.0,0.0,0.0,0.0,0.0,0.0,0.0,0.0,0.0,0.0,0.0,0.0,0.0,0.0,0.0,0.0,0.0,0.0,0.0,0.0,0.0,0.0,0.0,0.0,-1.2168,-1.4397,-1.3311,-0.973,-0.6681,-0.5703,-0.4659,-0.351,-0.1875,0.1883,0.4837,0.6565,1.0416,1.3694,1.5331,1.6635,1.8016,1.9954,2.0856,2.3123,2.6365,2.8926,3.1096,3.266,3.4461,3.5459,3.5459,3.3993,3.2436,3.0823,2.9393,2.8045,2.6614,2.6854,2.6965,2.7356,0.0,0.0,0.0,0.0,3.5454,3.6992,-2.3185,-2.4394,-2.5467,-2.5522,-2.6707,-2.761,-2.761,-2.9235,-3.2818,-3.9301,-4.1941,-4.6125,-5.381,-5.4561,-5.5013,-5.6118,-5.3256,-4.9571,-4.5181,-4.3846,-4.6293,-5.3412,-5.5783,-5.8759,-6.3026,-6.3109,-6.3552,-6.4302,-6.5475,-6.6368,-6.6696,-6.7307,-6.719,-6.6457,-6.456,-6.3495,-6.2868,-6.0989,-6.0074,-5.9741,-5.949,-5.7755,-5.5305,-5.3882,-5.2719,-5.1706,-5.0954,-5.0676,-5.0791,-5.1718,0.0,0.0,0.0,0.0,0.0,0.0,0.0,0.0,0.0,0.0,0.0,0.0,0.0,0.0,0.0,0.0,0.0,0.0,0.0,0.0,0.0,0.0,0.0,0.0,-1.6925,-2.0436,-2.2546,-1.68,-1.1304,-0.8813,-0.6088,-0.4322,-0.3979,0.063,0.3809,0.4089,0.9465,1.2746,1.3088,1.5921,0.0,0.0,0.0,2.1607,2.1983,2.4421,2.5749,2.5771,2.6192,2.6393,2.6403,2.6554,2.6512,2.6512,2.6097,2.6136,2.6165,2.6184,2.6213,2.6213,2.6823,2.7065,2.7621,3.0723,3.2006,3.23,-2.3956,-2.4794,-2.5577,-2.6176,-2.7049,-2.761,-2.761,-2.9235,-3.2818,-3.9301,-4.1941,-4.6125,-5.381,-5.4561,-5.5013,-5.6118,-5.3607,-5.0869,-4.8338,-5.1316,-5.4111,-5.6149,-6.0033,-6.3482,-6.6328,-6.6356,-6.7371,-6.9398,-7.0297,-7.0166,-6.9221,-6.985,-6.9471,-6.8335,-6.6844,-6.6176,-6.6011,-6.4618,-6.3219,-6.1913,-6.2866,-6.0853,-5.7549,-5.9129,-5.8954,-5.815,-6.0357,-6.0757,-6.0454,-6.0986,-5.9797,-5.8077,-5.7498,-5.3758,0.0,0.0,0.0,0.0,0.0,0.0,0.0,0.0,0.0,0.0,0.0,0.0,0.0,0.0,0.0,0.0,0.0,0.0,0.0,-2.3104,-2.6848,-2.9219,-2.6596,-2.1657,-1.637,-1.1629,-0.8971,-0.6624,-0.419,-0.1057,0.1706,0.4091,0.7578,1.0711,1.3087,1.6107,1.7738,1.8036,1.8565,1.9785,2.221,2.2742,2.4311,2.6463,2.6724,0.0,2.6844,2.4484,2.3431,2.3423,2.112,2.0134,2.0504,2.0407,2.054,2.1081,2.5598,2.7707,2.8058,2.882,2.9092,2.9103,-2.5427,-2.5819,-2.6218,-2.725,-2.8125,-2.8457,-2.8128,-2.9744,-3.2669,-3.7456,-3.9727,-4.3273,-4.9161,-4.9489,-4.9671,-5.0525,-5.0364,-4.9997,-4.944,-5.5509,-6.0023,-6.2124,-6.5475,-6.7841,-6.9016,-6.9472,-7.0075,-7.0889,-7.1906,-7.2001,-7.1454,-7.21,-7.1983,-7.1366,-6.9678,-6.8766,-6.8427,-6.6501,-6.5108,-6.4354,-6.4736,-6.3279,-6.1225,-6.1821,-6.2019,-6.2195,-6.4154,-6.5167,-6.5988,-6.7925,-6.8498,-6.8472,-6.8626,-6.4872,-5.84,0.0,0.0,0.0,0.0,0.0,0.0,0.0,0.0,0.0,0.0,0.0,0.0,0.0,0.0,-2.3921,-2.4393,0.0,-3.1614,-2.7108,-3.1306,-3.3455,-2.8234,-2.5462,-2.18,-1.6595,-1.2532,-0.9012,-0.6236,-0.3557,-0.0848,0.1951,0.4787,0.7901,1.0924,1.4012,1.6286,1.8091,1.8023,1.8677,2.0309,2.0385,2.1087,2.2633,2.2578,2.2628,2.2536,2.1292,2.0705,2.0569,1.9296,1.8776,1.8993,1.9061,1.9183,1.9537,2.2401,2.3549,2.3876,2.5608,2.635,2.6594,-2.7023,-2.7162,-2.7343,-2.845,-2.9153,-2.9415,-2.8876,-3.0223,-3.2426,-3.5451,-3.7372,-4.0034,-4.4172,-4.4023,-4.3728,-4.3862,-4.7503,-5.002,-5.0513,-5.8892,-6.5047,-6.7858,-7.0177,-7.1308,-7.1308,-7.1816,-7.1816,-7.1308,-7.2385,-7.2834,-7.2744,-7.3402,-7.3702,-7.3702,-7.2079,-7.1034,-7.0541,-6.8428,-6.7324,-6.6982,-6.6623,-6.6173,-6.5693,-6.4887,-6.4639,-6.5076,-6.6373,-6.7361,-6.8678,-7.2654,-7.4897,-7.6338,-7.8271,-7.4251,-6.6845,-5.6735,-4.668,0.0,0.0,0.0,0.0,0.0,0.0,0.0,0.0,-2.8076,-2.9888,-3.2313,-3.1807,-3.1121,-3.1208,-3.4251,-3.5245,-3.0817,-3.4467,-3.594,-2.9975,-2.8344,-2.6045,-2.1397,-1.6042,-1.1541,-0.8253,-0.5611,-0.296,-0.0218,0.2848,0.5513,0.8057,1.1398,1.4575,1.722,1.7873,1.8158,1.8321,1.8355,1.8355,1.8355,1.8511,1.8511,1.8409,1.8531,1.864,1.8762,1.8816,1.8993,1.9203,1.9237,1.9325,1.9434,1.9393,1.9305,1.9447,2.2242,2.326,2.3754,-2.7837,-2.8587,-2.9174,-2.9406,-2.951,-2.9564,-2.9475,-3.0133,-3.1896,-3.5469,-3.6613,-3.8699,-4.2807,-4.269,-4.1753,-4.0414,-4.907,-5.4414,-5.3848,-6.3919,-7.0042,-7.048,-7.1864,-7.2684,-7.2684,-7.2774,-7.2774,-7.2684,-7.2834,-7.2595,-7.2026,-7.2714,-7.3013,-7.3013,-7.2745,-7.2686,-7.2626,-7.2238,-7.12,-6.9811,-7.0737,-7.0961,-7.0647,-7.104,-6.9486,-6.7511,-7.06,-6.9957,-6.8593,-7.4336,-7.5306,-7.4942,-7.9773,-7.6897,-7.0042,-6.1287,-5.1262,-4.096,-3.1583,-2.6086,-2.1913,-1.6856,-1.9985,-2.5916,0.0,-3.5091,-3.8399,-4.4649,-4.4375,-4.3284,-4.4535,-4.3917,-4.2515,-4.0221,-3.9338,-3.7799,-3.475,-3.0622,-2.6885,-2.4143,-1.8964,-1.3621,-0.8458,-0.5708,-0.3019,-0.0219,0.2879,0.4703,0.5202,1.0312,1.3709,1.4154,1.679,1.8158,1.8321,1.8443,1.8511,1.8511,1.8654,1.8728,1.8708,1.8728,1.8742,1.8782,1.904,1.9169,1.9217,1.9345,1.9413,1.9413,1.9271,1.9217,1.9237,1.9998,2.0109,2.0359,-2.8381,-2.9355,-3.0075,-3.0619,-3.0731,-3.0462,-2.9684,-3.0103,-3.0921,-3.2115,-3.2809,-3.3965,-3.6042,-3.5713,-3.539,-3.548,-4.5549,-5.2159,-5.3048,-6.395,-7.038,-7.038,-7.1607,-7.2325,-7.2325,-7.2714,-7.2714,-7.2325,-7.2325,-7.2176,-7.1906,-7.2176,-7.2535,-7.2924,-7.2924,-7.2924,-7.2894,-7.2475,-7.2105,-7.1774,-7.2418,-7.288,-7.3194,-7.4426,-7.382,-7.2013,-7.0154,-6.8277,0.0,-7.2156,-7.3429,-7.4106,-7.9954,-7.6598,-6.8928,-6.0774,-5.1588,-4.3579,-4.1227,-3.3663,-2.8592,-3.73,-3.7934,-3.8371,-4.5677,-4.7187,-4.8291,-5.294,-5.1384,-4.9153,-4.9109,-4.7433,-4.473,-4.0141,-3.887,-3.7226,-3.3414,-3.1328,-2.8584,-2.4587,-2.2125,-1.7487,-0.8936,-0.7188,-0.4738,-0.044,0.1108,0.2679,0.4497,0.6977,0.9925,1.3624,1.4851,1.6505,1.8321,1.8552,1.862,1.8531,1.8694,1.8708,1.862,1.862,1.8674,1.8782,1.9081,1.9203,1.9203,1.9271,1.9291,1.9291,1.9217,1.9203,1.9217,1.9447,1.9522,1.9535,-2.8793,-2.9875,-3.0837,-3.1424,-3.139,-3.0941,-2.9983,-3.0073,-3.0073,-2.9654,-2.9804,-3.0163,-3.0672,-3.0283,-3.0522,-3.1839,-4.1055,-4.8267,-5.1708,-6.1882,-6.8375,-6.9662,-7.0919,-7.1607,-7.1607,-7.2116,-7.2206,-7.1876,-7.2189,-7.2327,-7.2357,-7.2682,-7.3181,-7.3669,-7.3395,-7.3224,-7.3194,-7.2349,-7.2409,-7.3234,-7.3076,-7.3718,-7.4929,-7.6059,-7.5297,-7.3042,-6.8968,-6.6388,-6.5077,-6.7163,-6.7646,-6.8255,-7.3445,-7.0056,-6.2947,-5.6766,-4.9001,-4.2911,-4.5239,-4.0308,-3.7846,-5.2302,-5.2591,-5.0826,-5.6558,-5.6999,-5.6652,-5.8662,-5.5913,-5.2822,-5.1368,-4.9163,-4.5629,-3.9635,-3.8508,-3.6854,-3.2785,-3.1314,-2.8968,-2.4546,-2.3523,-1.9348,-1.0024,-0.8671,-0.6229,-0.1537,-0.0443,0.089,0.3123,0.4047,0.6996,1.2204,1.3256,1.5151,1.8321,1.8565,1.864,1.8531,1.8694,1.8708,1.8599,1.8599,1.8654,1.8782,1.9027,1.9149,1.9149,1.9149,1.9149,1.9128,1.9094,1.9115,1.9169,1.9305,1.9393,1.9447,-2.9002,-3.0329,-3.1482,-3.1482,-3.0971,-3.0522,-3.0492,-2.9983,-2.9594,-2.9594,-2.9056,-2.8667,-2.8697,-2.8667,-2.9175,-3.0462,-3.6776,-4.3688,-5.078,-5.8201,-6.4336,-6.8824,-7.026,-7.0919,-7.0919,-7.0949,-7.1278,-7.1876,-7.2762,-7.3138,-7.3323,-7.4794,-7.5496,-7.5443,-7.4557,-7.4159,-7.4034,-7.247,-7.2728,-7.3942,-7.2705,-7.3866,-7.6515,-7.5931,-7.264,-6.8359,-6.8175,-6.5164,-6.0867,-5.9019,-5.6523,-5.4622,-5.7149,-5.4801,-5.0767,-4.8971,-4.3186,-3.7853,-3.9843,-4.4038,-4.8612,-5.1629,-5.7295,-6.2065,-6.1757,-6.1982,-6.2231,-6.1544,-5.8385,-5.5038,-5.3043,-4.9762,-4.6064,-4.1385,-3.9226,-3.7478,-3.5264,-3.0988,-2.709,-2.4567,-2.2029,-1.8172,-1.2735,-0.978,-0.7098,-0.4313,-0.1547,0.0,0.0222,0.2899,0.6062,0.9275,1.2213,1.5208,1.8321,1.8464,1.8531,1.8531,1.8694,1.8762,1.8762,1.8762,1.8762,1.8762,1.8918,1.8993,1.8993,1.8993,1.8993,1.8993,1.883,1.8871,1.9006,1.9149,1.9305,1.9447,-2.9002,-3.0329,-3.1482,-3.1482,-3.0971,-3.0372,-2.9953,-2.9355,-2.8757,-2.8308,-2.8068,0.0,0.0,0.0,0.0,0.0,-3.5519,-4.0666,-4.4436,-5.4371,-6.0984,-6.2989,-6.7298,-6.9842,-7.029,-7.029,-7.1044,-7.2731,-7.3108,-7.3807,-7.488,-7.5348,-7.5579,-7.5579,-7.5252,-7.4857,-7.4328,-7.3854,-7.3854,-7.4233,-7.4429,-7.3494,-7.2178,-7.2892,-6.8404,-6.1415,0.0,-5.4917,-5.2541,-5.2028,-5.1074,-5.1101,-5.6605,-5.3344,-4.7049,-4.4872,-4.2719,-4.318,-5.2934,-5.5651,-5.7096,-6.2913,-6.4986,-6.561,-6.5411,-6.3903,-6.2859,-6.3867,-6.0728,-5.7189,-5.5185,-5.1662,-4.7238,-4.1468,-3.9111,-3.6601,-3.2971,-2.9772,-2.6897,-2.438,-2.184,-1.88,-1.5459,-1.2685,-0.9203,-0.4557,-0.3287,-0.1986,0.0,0.0893,0.3822,0.9046,1.0234,1.3241,1.8321,1.8464,1.8531,1.8531,1.8694,1.8762,1.8762,1.8762,1.8762,1.8762,1.8816,1.883,1.883,1.883,1.883,1.883,1.8782,1.885,1.9006,1.9149,1.9359,1.959,-2.9407,-3.0569,-3.1482,-3.1482,-3.0971,0.0,0.0,0.0,0.0,0.0,0.0,0.0,0.0,0.0,0.0,0.0,0.0,-3.7147,-4.0837,-4.8588,-5.4352,-5.7193,-6.0754,-6.3139,-6.4114,-6.3759,-6.4718,-6.6883,-6.935,-7.1108,-7.252,-7.4876,-7.5919,-7.5658,-7.508,-7.4762,-7.4457,-7.3644,-7.2939,-7.2316,-7.1644,-6.9263,-6.6087,-6.5593,-6.0604,0.0,-4.8996,-4.5512,-4.2916,-4.2966,-4.3167,-4.4422,-5.0183,-4.9071,-4.5838,-4.7074,-4.6562,-4.8511,-6.1972,-6.408,-6.3942,-6.9913,-7.0419,-6.9346,-6.9009,-6.697,-6.5618,-6.6803,-6.3687,-6.0046,-5.732,-5.3394,-4.8671,-4.2873,-3.9687,-3.6616,-3.3157,-3.014,-2.749,-2.5787,-2.25,-1.988,-1.8358,-1.5553,-1.2098,-0.7542,-0.5445,-0.3509,-0.1543,-0.0446,0.2247,0.7435,0.8601,1.1585,1.6639,1.7921,1.8511,1.862,1.8708,1.8762,1.8762,1.7588,1.7104,1.7104,1.7104,1.7104,1.7123,1.8351,1.885,1.885,1.8905,1.9006,1.9169,1.9305,1.9522,1.9732,-3.0262,-3.0955,-3.1482,0.0,0.0,0.0,0.0,0.0,0.0,0.0,0.0,0.0,0.0,0.0,0.0,0.0,0.0,0.0,-3.9493,-4.1361,-4.5108,-5.1633,-5.1456,-5.1894,-5.3333,-5.2621,-5.3333,-5.5516,-6.1951,-6.5515,-6.6396,-7.2854,-7.5506,-7.4702,-7.3276,-7.3006,-7.3464,-7.1358,-6.962,-6.794,-6.4425,-6.1428,-5.8598,-5.5029,-4.9872,-4.4236,-4.2008,-3.7637,-3.2894,-3.2829,-3.3837,-3.5751,-3.9292,-4.2894,-4.7315,-5.4874,-5.4431,-5.4184,-6.6704,-6.9294,-6.9284,-7.2724,-7.3475,-7.3166,-7.2576,-7.1106,-6.9873,-6.9926,-6.6607,-6.2535,-5.8695,-5.4452,-4.9897,-4.5157,-4.0824,-3.7494,-3.5665,-3.1487,-2.8646,-2.8226,-2.3829,-2.0621,-2.0815,-1.8395,-1.5553,-1.2932,-0.7605,-0.4396,-0.4146,-0.1555,0.1344,0.4471,0.737,1.0301,1.3547,1.6639,1.8242,1.8523,1.8284,1.8284,1.8278,1.5232,1.3824,1.3824,1.3824,1.4057,1.4311,1.7506,1.8751,1.9006,1.9169,1.9305,1.9468,1.961,1.9766,1.9888,0.0,0.0,0.0,0.0,0.0,0.0,0.0,0.0,0.0,0.0,0.0,0.0,0.0,0.0,0.0,0.0,0.0,0.0,-3.2863,-3.7841,-4.2003,-4.4714,-4.8511,-5.1087,-5.2528,-5.2371,-5.3376,-5.5601,-5.7279,-5.8807,-6.0147,-6.1919,-6.2618,-6.2415,-6.2064,-6.1622,-6.1287,-6.0731,-5.9598,-5.8178,-5.6892,-5.3635,-4.9517,-4.9195,-4.4041,-3.7044,-3.7539,-3.5172,-3.2023,-3.3553,-3.8531,-4.4934,-4.9735,-5.3158,-5.6522,-6.2368,-6.5406,-6.8255,-7.4559,-7.6514,-7.6642,-7.6703,-7.581,-7.4966,-7.4775,-7.0923,-6.6858,-6.5014,-5.9859,-5.446,-5.1172,-4.9003,-4.6721,-4.3443,-4.0286,-3.7574,-3.5982,-3.1435,-2.8367,-2.8684,-2.4144,-2.0824,-2.101,-1.8567,-1.5704,-1.2838,-0.9483,-0.6507,-0.436,-0.1546,0.1332,0.4432,0.7306,1.0211,1.3652,1.4402,1.5033,1.5088,1.2854,1.172,1.172,1.102,1.0548,1.0548,1.0548,1.2001,1.4195,1.5162,1.6898,1.9169,1.9305,1.9468,1.9624,1.9766,1.9976,2.0207,0.0,0.0,0.0,0.0,0.0,0.0,0.0,0.0,0.0,0.0,0.0,0.0,0.0,0.0,0.0,0.0,0.0,0.0,0.0,-3.4441,-3.7391,-3.8796,-4.1374,-4.3384,-4.4487,-4.381,-4.4788,-4.7374,-4.8629,-5.0259,-5.2097,-5.3721,-5.4296,-5.3991,-5.3991,-5.3923,-5.3856,-5.3856,-5.2736,0.0,0.0,-4.5892,-4.1669,-4.0525,-3.6955,-3.2732,-3.3696,-3.4404,-3.5731,-4.1228,-4.7035,-5.2865,-5.7739,-6.1459,-6.5227,-7.1207,-7.3275,-7.4627,-7.9505,-8.0674,-8.0066,-7.7987,-7.6736,-7.5404,-7.2697,-6.8659,-6.4351,-6.0266,-5.4589,-4.982,-4.8177,-4.61,-4.456,-4.44,-4.0987,-3.8331,-3.7414,-3.3381,-3.0403,-3.0702,-2.5977,-2.283,-2.294,-1.9253,-1.64,-1.4809,-1.078,-0.7165,-0.4384,-0.1552,0.0667,0.2434,0.5299,0.8417,1.1612,1.1847,1.1767,1.181,1.0273,0.9379,0.9379,0.7972,0.7289,0.731,0.731,0.8293,1.0257,1.3153,1.538,1.7391,1.9052,1.9678,1.9786,1.9997,2.0187,2.0349,0.0,0.0,0.0,0.0,0.0,0.0,0.0,0.0,0.0,-2.8248,-2.8457,-2.8697,-2.8607,-2.8607,0.0,0.0,0.0,0.0,0.0,0.0,-3.2586,-3.3863,-3.3295,-3.3316,-3.4066,-3.278,-3.3423,-3.6028,-3.8633,-4.0865,-4.2861,-4.6075,-4.7259,-4.665,-4.6549,-4.6853,-4.7428,-4.7428,-4.6068,-4.3683,-4.1257,-3.8273,-3.4972,0.0,-3.0428,-3.0453,-3.1035,-3.467,-4.0665,-5.0817,-5.614,-5.9435,-6.4462,-6.88,-7.3222,-7.9485,-7.8958,-7.7321,-8.2262,-8.2928,-8.1293,-7.804,-7.7139,-7.5562,-6.9562,-6.5894,-6.1917,-5.5261,-4.9194,-4.5203,-4.6039,-4.2061,-3.9749,-4.3598,-3.9067,-3.5707,-3.7034,-3.3816,-3.1855,-3.2946,-2.8716,-2.5574,-2.5164,-2.0447,-1.7229,-1.6776,-1.1919,-0.787,-0.4856,-0.1785,0.0223,0.0442,0.3086,0.5968,0.9139,0.8837,0.8724,0.8808,0.8413,0.8209,0.7975,0.5398,0.4011,0.4037,0.4041,0.4299,0.5052,1.0893,1.3847,1.4876,1.8052,1.9669,1.9963,2.0261,2.0363,2.0383,0.0,0.0,0.0,0.0,0.0,0.0,0.0,0.0,0.0,0.0,-3.0013,-2.9205,0.0,0.0,0.0,0.0,0.0,0.0,0.0,0.0,0.0,-3.0852,-3.0735,-3.1038,-3.1765,-3.1529,-3.163,-3.2171,-3.2679,-3.3119,-3.3525,-3.4167,-3.4404,-3.4269,-3.366,-3.3457,-3.3558,-3.3558,-3.2957,-3.1998,-3.209,-3.1381,-3.0183,-2.9533,-2.9282,0.0,-3.1831,-3.4866,-3.9567,-5.1414,-5.8342,-6.3343,-7.1542,-7.647,-7.9742,-8.2223,-8.2964,-8.3001,-8.3494,-8.345,-8.2715,-8.0204,-7.9095,-7.7374,-7.2492,-6.5746,-5.8116,-4.9515,-3.9247,-3.2971,-3.6759,-2.7525,-2.1803,-2.9299,-2.2596,-1.8532,-2.4697,-2.4474,-2.605,-3.2169,-3.0179,-2.7359,-2.5124,-2.1874,-1.815,-1.4084,-1.2831,-1.0925,-0.8155,-0.2899,0.1114,0.3502,0.4125,0.5878,0.8835,0.6525,0.5259,0.5339,0.2812,0.1648,0.1648,0.1177,0.0707,0.0708,0.0713,0.2391,0.5058,0.606,0.9791,1.5099,1.574,1.7863,2.0275,2.0438,2.0505,2.0526,0.0,0.0,0.0,0.0,0.0,0.0,0.0,-3.2497,-3.2677,-3.4382,-3.3455,-3.2018,-3.0313,-2.9535,-2.8974,0.0,0.0,0.0,0.0,0.0,0.0,-2.9533,-2.9533,-2.9668,-3.004,-2.9634,-2.9837,-3.0649,0.0,-2.9262,-3.004,-2.9228,-2.8653,-2.8281,-2.7909,-2.7774,-2.7774,-2.7774,-2.7913,-2.815,-2.8724,-2.887,-2.873,-2.8919,-2.9605,0.0,-3.3105,-3.6024,-3.9958,-4.8002,-5.4154,-6.0638,-7.3232,-7.9228,-8.1339,-8.0024,-8.2309,-8.4358,-8.0339,-8.1403,-8.2998,-8.0326,-7.9058,-7.6367,-6.8118,-6.2066,-5.4789,-4.2848,-3.1877,-2.497,-2.6459,-1.8509,-1.3453,-1.8571,-1.8402,-1.8903,-2.2351,-2.5445,-2.8691,-3.243,-3.0454,-2.7894,-2.5063,-2.2229,-1.9176,-1.5637,-1.3928,-1.1164,-0.666,-0.2448,0.0666,0.1979,0.2181,0.2846,0.4227,0.293,0.206,0.2094,0.0704,0.0,0.0,0.0,0.0,0.0,0.0,0.0963,0.2424,0.4148,0.7875,1.2682,1.4513,1.7363,2.0227,2.0383,2.0438,2.0438,0.0,0.0,0.0,0.0,0.0,0.0,-3.4921,-3.4622,-3.4981,-3.7315,-3.6626,-3.5015,-3.2584,-3.1076,-2.9924,0.0,0.0,0.0,0.0,0.0,0.0,0.0,0.0,0.0,-2.8484,0.0,0.0,-2.9364,-2.7571,0.0,0.0,0.0,0.0,0.0,-2.5676,-2.5609,-2.5609,-2.5609,-2.6107,0.0,0.0,-2.8065,-2.836,0.0,0.0,0.0,0.0,-3.6371,-3.9554,-4.4435,-4.8957,-5.4986,-6.9232,-7.5743,-7.7727,-7.5775,-7.9093,-8.2445,-7.7768,-8.0007,-8.2963,-8.0088,-7.8653,-7.5068,-6.365,-5.8676,-5.2319,-3.7374,-2.6511,-1.9537,-1.8844,-1.1328,-0.6208,-0.9245,-1.2917,-1.6492,-1.937,-2.4812,-2.9469,-3.2138,-3.1163,-2.9057,-2.5724,-2.2941,-2.0555,-1.8344,-1.5002,-1.0766,-0.5809,-0.311,-0.155,-0.0886,-0.0879,-0.0662,0.0,0.0,0.0,0.0,0.0,0.0,0.0,0.0,0.0,0.0,0.0,0.0,0.0243,0.2693,0.6404,1.0419,1.2987,1.6546,2.0119,2.0275,2.0329,2.0349,0.0,0.0,0.0,0.0,0.0,0.0,-3.4352,-3.5489,-3.6716,-3.8123,-3.7674,-3.6712,-3.5277,-3.3336,-3.1166,0.0,0.0,0.0,0.0,0.0,0.0,0.0,0.0,0.0,0.0,0.0,0.0,-2.6996,-2.6793,0.0,0.0,0.0,0.0,0.0,0.0,-2.5609,-2.5609,-2.5609,0.0,0.0,0.0,0.0,0.0,0.0,0.0,0.0,0.0,-3.428,-3.5994,-4.3478,-4.6202,-4.7918,-5.6524,-6.1796,-6.5792,-7.0516,-7.38,-7.6607,-7.9792,-8.2087,-8.2981,-8.0736,-7.9025,-7.5153,-6.4511,-5.8791,-5.127,-3.5448,-2.3652,-1.6571,-1.8023,-0.4264,0.5389,-0.0245,0.4665,0.4768,-0.7467,-1.2788,-1.9543,-3.089,-3.3577,-3.2721,-2.8179,-2.544,-2.2941,-2.0704,-1.6037,-1.1708,-0.8707,-0.8196,-0.6842,-0.4197,-0.4163,-0.2862,0.0,0.0,0.0,0.0,0.0,0.0,0.0,0.0,0.0,0.0,0.0,0.0,0.0,0.0243,0.416,1.0088,1.0412,1.4478,2.0119,2.0275,2.0329,2.0363,0.0,0.0,0.0,0.0,0.0,0.0,-3.5848,-3.6058,-3.6926,-3.9828,-3.926,-3.8304,-3.7463,-3.577,-3.3309,-2.9816,0.0,0.0,0.0,0.0,0.0,0.0,0.0,0.0,0.0,0.0,-2.6691,-2.6691,-2.6691,0.0,0.0,0.0,0.0,0.0,0.0,-2.5609,-2.5609,-2.5609,0.0,0.0,0.0,0.0,0.0,0.0,0.0,0.0,0.0,0.0,-3.5722,-3.8726,-4.0306,-4.1453,-4.3975,-4.68,-5.0862,-5.9649,-6.7981,-7.3985,-7.2272,-7.6911,-8.1731,-7.9473,-7.7739,-7.3831,-6.3193,-5.78,-5.0397,-3.4416,-2.2897,-1.448,-1.0296,0.0401,0.8492,0.8082,0.6579,0.1862,-0.8337,-1.5811,-2.3562,-3.2195,-3.426,-3.196,-2.4111,-2.531,-2.5234,-2.1592,-1.937,-1.7219,-1.4492,-1.0903,-0.8443,-0.7112,-0.709,-0.6678,-0.5407,-0.5456,-0.5508,-0.5565,-0.3748,-0.2823,-0.2823,-0.0942,0.0,0.0,0.0,0.0,0.0,0.0,0.27,0.7177,0.9182,1.2943,1.7234,1.9385,2.0187,2.0227,0.0,0.0,0.0,0.0,0.0,-3.4023,-3.6716,-3.6686,-3.7345,-4.0127,-3.9896,-3.9191,-3.8737,-3.6908,-3.4594,-3.1812,-3.0261,0.0,0.0,0.0,0.0,0.0,0.0,0.0,0.0,0.0,-2.7029,-2.7029,-2.7266,-2.7368,0.0,0.0,-2.6759,-2.6251,0.0,0.0,0.0,0.0,0.0,0.0,0.0,0.0,0.0,0.0,0.0,0.0,0.0,0.0,0.0,0.0,0.0,-3.7382,-3.6516,-3.7923,-4.1836,-5.1765,-6.1491,-6.8762,-6.7678,-7.332,-7.9238,-7.8263,-7.5845,-7.1232,-6.1469,-5.5572,-4.7921,-3.3045,-2.2751,-1.3827,-0.5325,0.187,0.793,1.2045,0.7498,-0.0131,-1.0268,-1.7851,-2.4758,-3.1091,-3.2815,-3.0327,-2.1957,-2.5549,-2.6923,-2.3069,-2.2832,-2.2164,-2.0451,-1.6451,-1.2911,-1.0301,-1.0312,-0.9907,-0.9107,-0.9185,-0.9267,-0.9335,-0.6121,-0.4725,-0.4715,-0.1418,0.0,0.0,0.0,0.0,0.0,0.0,0.1959,0.5195,0.7674,1.1138,1.5114,1.7766,1.9345,2.0139,0.0,0.0,0.0,0.0,0.0,0.0,-3.6297,-3.7554,-3.8362,-3.8422,-3.9086,-3.9334,-3.8826,-3.6173,-3.4457,-3.4462,-3.1799,0.0,0.0,0.0,0.0,0.0,0.0,0.0,0.0,0.0,-2.7772,-2.7772,-2.8586,-2.8958,-2.8958,-2.818,-2.7772,-2.7739,0.0,0.0,0.0,0.0,0.0,0.0,0.0,0.0,0.0,0.0,0.0,0.0,0.0,0.0,0.0,0.0,0.0,0.0,0.0,-3.7531,-4.1345,-4.9098,-5.4144,-5.9357,-6.8903,-7.335,-7.5677,-7.7559,-7.3544,-6.7183,-5.9631,-5.1967,-4.3082,-3.1066,-2.3119,-1.5297,-0.5624,-0.0494,0.4194,1.0128,1.0074,0.387,-1.1567,-1.544,-1.9354,-2.5986,-2.8615,-2.823,-2.4215,-2.6508,-2.7739,-2.6001,-2.5862,-2.6054,-2.6283,-2.6303,-2.2437,-1.3777,-1.3562,-1.2295,-0.9729,-0.9571,-0.9652,-0.9732,-0.6464,-0.479,-0.4756,-0.143,0.0,0.0,0.0,0.0,0.0,0.0,0.1937,0.4873,0.4907,0.8848,1.4756,1.5233,1.7322,2.0139,0.0,0.0,0.0,0.0,0.0,0.0,-3.5669,-3.6148,-3.6716,-3.7614,-3.7549,-3.7609,-3.8003,-3.5838,-3.438,-3.4486,-3.2273,0.0,0.0,0.0,0.0,0.0,0.0,0.0,0.0,-2.8213,-2.9093,-3.0108,-3.0852,-3.1263,-3.1263,-3.048,-2.96,-2.8586,-2.7807,-2.7165,0.0,0.0,0.0,0.0,0.0,0.0,-3.1845,0.0,0.0,0.0,0.0,0.0,0.0,0.0,0.0,0.0,0.0,0.0,0.0,-4.3679,-5.031,-5.6893,-5.963,-6.3973,-6.7402,-6.579,-6.3199,-5.9135,-5.2241,-4.6661,-4.0005,-2.9706,-2.2122,-1.5048,-0.782,-0.177,0.342,0.7662,0.8922,0.3576,-1.2949,-1.6323,-2.1889,-3.4758,-3.1439,-2.8463,-2.9441,-2.7448,-2.6826,-2.8253,-2.8655,-2.8344,-2.6509,-2.6529,-2.524,-2.2446,-2.2463,-2.2117,-2.1454,-1.9403,-1.8658,-1.8823,-1.3626,-1.0143,-0.7766,-0.4715,-0.2123,0.0,0.0,0.0,0.0,0.0,0.0733,0.1721,0.3936,0.7619,1.1567,1.4225,1.7322,2.0139,0.0,0.0,0.0,0.0,0.0,0.0,-3.5429,-3.5699,-3.5968,-3.6267,-3.62,-3.6352,-3.6915,-3.5155,-3.4154,-3.4486,-3.2713,0.0,0.0,0.0,0.0,0.0,0.0,0.0,-2.7772,-2.8586,-2.9973,-3.2036,-3.2747,-3.3423,-3.3964,-3.322,-3.1765,-2.977,-2.9025,-2.7943,0.0,0.0,0.0,0.0,0.0,0.0,-3.2653,0.0,0.0,0.0,0.0,0.0,0.0,0.0,0.0,0.0,0.0,0.0,0.0,0.0,-4.6206,-5.1896,-5.4064,-5.7776,-6.0798,-5.9779,-5.6744,-5.2637,-4.7151,-4.1298,-3.4826,-2.7069,-2.0503,-1.4292,-0.8108,-0.2867,0.0828,0.1669,0.5036,0.1705,-1.528,-1.5483,-1.8886,-3.2282,-2.9996,-2.8243,-3.0395,-2.9004,-2.8974,-3.1216,-3.1708,-3.1433,-2.9754,-2.9856,-2.9902,-2.9902,-2.7818,-2.6923,-2.7226,-2.5451,-2.4295,-2.3343,-1.8331,-1.4144,-1.1071,-0.6601,-0.3542,-0.1655,-0.0476,0.0,0.0,0.0,0.0,0.0247,0.2219,0.5167,0.8121,1.0458,1.4274,1.8355,0.0,0.0,0.0,0.0,0.0,0.0,0.0,-3.5938,-3.5878,-3.4592,-3.4942,-3.5323,-3.5505,-3.4201,-3.3624,-3.4293,-3.3017,0.0,0.0,0.0,0.0,0.0,0.0,0.0,-2.7875,-2.8721,-3.0581,-3.3558,-3.4404,-3.5554,-3.7009,-3.6265,-3.4336,-3.1393,-3.0615,-2.8924,0.0,0.0,0.0,0.0,-3.0892,-3.2046,0.0,0.0,0.0,0.0,0.0,0.0,0.0,0.0,0.0,0.0,0.0,0.0,0.0,0.0,0.0,0.0,0.0,-5.3823,-5.5472,-5.7455,-5.2984,-4.7071,-4.3469,-3.5855,0.0,-2.3281,-1.845,-1.3251,-0.7124,-0.4021,-0.3354,-0.5987,-0.0567,-0.1574,-1.7066,-1.405,-1.3446,-2.2166,-2.6393,-2.8627,-2.8912,-3.1482,-3.3587,-3.4229,-3.4603,-3.4923,-3.5204,-3.5485,-3.5645,-3.5658,-3.063,-2.7875,-2.8266,-2.8253,-2.7086,-2.4285,-2.0929,-1.7569,-1.4445,-0.8062,-0.4988,-0.4516,-0.143,0.0,0.0,0.0,0.0,0.0,0.0,0.1972,0.4924,0.4965,0.9238,1.4832,0.0,0.0,0.0,0.0,0.0,0.0,0.0,0.0,0.0,0.0,-3.3457,-3.3441,-3.3964,-3.2752,-3.2131,0.0,0.0,0.0,0.0,0.0,0.0,0.0,0.0,0.0,-2.8687,-3.0006,-3.2138,-3.5081,-3.7009,-3.843,-3.9343,-3.914,-3.7144,-3.366,-3.2341,-3.0057,0.0,0.0,0.0,0.0,-3.0892,-3.215,0.0,0.0,0.0,0.0,-3.6089,-3.6742,0.0,0.0,0.0,0.0,0.0,0.0,0.0,0.0,-4.1127,-4.2256,-4.2633,0.0,-4.7578,-4.5039,-4.2096,-3.8748,0.0,-2.9378,-2.466,-2.0729,-1.6091,-1.153,-0.8026,-0.844,-0.7147,-0.0699,-0.2047,-0.5616,-1.0438,-2.0825,-2.8413,-2.9353,-3.542,-3.8152,-3.4812,-3.5832,-3.5906,-3.4178,-3.467,-3.5217,-3.5511,-3.5591,-3.5738,-3.5965,-3.4914,-3.4448,-3.4354,-3.2161,-3.0959,-3.0289,-2.4773,-2.0601,-1.7299,-1.1032,-0.7084,-0.4521,-0.1439,0.0,0.0,0.0,0.0,0.0,0.0,0.1972,0.4929,0.4994,0.7782,1.1326,0.0,0.0,0.0,0.0,0.0,0.0,0.0,0.0,0.0,0.0,-3.2736,-3.2516,-3.2541,-3.2146,-3.1916,0.0,0.0,0.0,0.0,0.0,0.0,0.0,0.0,-2.7943,-2.9465,-3.0615,-3.2814,-3.6163,-3.8058,-3.9715,-4.1102,-4.0764,-3.8599,-3.4878,-3.1862,-2.9695,0.0,0.0,0.0,-3.0498,-3.1151,0.0,0.0,0.0,0.0,0.0,-3.5633,-3.6161,0.0,-3.8788,-3.9904,-4.0345,0.0,0.0,0.0,0.0,-3.8844,-3.8435,-3.721,-4.0148,-4.2788,-3.96,-3.7102,-3.4307,-3.014,-2.595,-2.1696,-1.7583,-1.4087,-1.0654,-0.6782,-0.793,-0.9705,-1.022,-1.1135,-1.3403,-1.7829,-2.9948,-3.7369,-3.5445,-4.1353,-4.3538,-3.8767,-3.7733,-3.6462,-3.4071,-3.4576,-3.507,-3.5231,-3.5618,-3.5912,-3.6072,-3.7754,-3.7934,-3.6513,-3.5054,-3.3604,-3.2373,-2.7626,-2.3742,-2.0512,-1.4544,-0.994,-0.6691,-0.3617,-0.1461,0.0,0.0,0.0,0.0,0.0,0.0989,0.2727,0.2751,0.4779,0.7843,0.0,0.0,0.0,0.0,0.0,0.0,0.0,0.0,0.0,0.0,0.0,0.0,0.0,0.0,0.0,0.0,0.0,0.0,0.0,0.0,0.0,0.0,-2.8484,-2.8755,-3.0412,-3.1055,-3.3186,-3.6941,-3.8565,-4.0392,-4.2455,-4.1948,-3.9546,-3.5419,-3.1215,-2.9435,-2.9647,-2.8969,-2.9817,-3.1568,-3.1458,0.0,0.0,0.0,0.0,0.0,0.0,0.0,0.0,-3.8823,-4.0146,-4.06,-4.1155,0.0,0.0,0.0,0.0,0.0,-3.4045,-3.6413,-3.8977,-3.8018,-3.5158,-3.1836,-2.9164,-2.449,-1.9323,-1.4543,-1.3636,-1.2213,-0.7559,-0.9998,-1.5665,-2.5133,-2.2846,-2.2409,-2.9624,-3.7419,-4.1677,-3.9858,-4.466,-4.629,-4.1609,-3.9659,-3.7506,-3.472,-3.5061,-3.5207,-3.4883,-3.5605,-3.6235,-3.6693,-3.9516,-3.9863,-3.7713,-3.7579,-3.6171,-3.3702,-3.0092,-2.6926,-2.3785,-1.767,-1.3334,-0.9847,-0.6545,-0.3425,-0.074,-0.0247,0.0,0.0,0.0,0.0,0.0,0.0,0.1761,0.4315,0.0,0.0,0.0,0.0,0.0,0.0,0.0,0.0,0.0,0.0,0.0,0.0,0.0,0.0,0.0,0.0,0.0,0.0,0.0,0.0,0.0,-3.0852,-2.9533,-2.9803,-3.1901,-3.207,-3.3964,-3.7719,-3.9851,-4.1677,-4.3267,-4.3809,-4.1035,-3.5531,-3.4129,-3.2245,-3.0107,-2.9995,-3.0894,-3.2375,-3.1678,0.0,0.0,0.0,0.0,0.0,0.0,0.0,0.0,-3.6348,-3.8591,-4.0405,-3.9043,0.0,0.0,0.0,0.0,0.0,-3.3502,-3.2586,-3.3073,-3.752,-3.3318,-2.8664,-3.0713,-2.4605,-1.7433,-1.3534,-1.7387,-2.0987,-1.9514,-2.9278,-3.6195,-3.2244,-2.993,-2.9164,-3.0377,-3.6062,-4.0054,-4.0053,-4.4801,-4.7163,-4.4464,-4.4304,-4.2369,-3.7806,-3.7768,-3.7202,-3.5471,-3.5618,-3.6849,-3.9392,-3.9921,-4.1195,-4.3028,-4.1058,-4.008,-3.9878,-3.4133,-2.9929,-2.6974,-2.0885,-1.6385,-1.3205,-0.751,-0.4646,-0.3938,-0.1234,0.0,0.0,0.0,0.0,0.0,0.0,0.025,0.1254,0.0,0.0,0.0,0.0,0.0,0.0,0.0,0.0,0.0,0.0,0.0,0.0,0.0,0.0,0.0,0.0,0.0,0.0,0.0,0.0,-3.1732,-3.2916,-3.1935,-3.1833,-3.2882,-3.4472,-3.6772,-3.9681,-4.2354,-4.4181,-4.5196,-4.2925,-3.9768,-3.5891,-3.3947,-3.2391,-3.1166,-3.0961,-3.1531,-3.2596,0.0,0.0,0.0,0.0,0.0,0.0,0.0,0.0,0.0,0.0,-3.7973,-3.9781,-3.8801,0.0,0.0,0.0,0.0,0.0,-3.0631,-2.864,-2.944,-3.9801,-3.7901,-3.3709,-3.4377,-3.3932,-2.9897,-1.7473,-2.0288,-2.4497,-2.3273,-2.8838,-3.5558,-4.1422,-4.4546,-4.6373,-4.7119,-4.889,-4.9805,-4.8708,-4.9989,-4.942,-4.5688,-4.5507,-4.4219,-4.0642,-4.079,-4.0513,-3.9608,-3.9762,-4.0645,-4.2037,-4.2398,-4.322,-4.4479,-4.1937,-4.054,-4.0476,-3.4836,-3.0566,-2.7647,-2.3323,-1.8851,-1.425,-1.1443,-0.8084,-0.4675,-0.3202,-0.1479,0.0,0.0,0.0,0.0,0.0,0.0,0.0252,0.0,0.0,0.0,0.0,0.0,0.0,0.0,0.0,0.0,0.0,0.0,0.0,0.0,0.0,0.0,0.0,0.0,0.0,0.0,-3.136,-3.2273,-3.4167,-3.4201,-3.4539,-3.5216,-3.7313,-3.9681,-4.2252,-4.4925,-4.6346,-4.6413,-4.2102,-3.8728,-3.6195,-3.3791,-3.2567,-3.2256,-3.1853,-3.2155,-3.2852,0.0,0.0,0.0,0.0,0.0,0.0,0.0,0.0,0.0,0.0,0.0,0.0,0.0,0.0,0.0,-3.6452,-3.4631,-3.2814,-2.9131,-2.7198,-2.8965,-4.0364,-4.0187,-3.7935,-4.09,-4.3668,-4.1228,-2.5987,-2.8339,-3.2752,-3.1406,-3.1546,-3.5957,-4.8507,-5.4215,-5.8104,-6.0981,-5.9781,-5.7754,-5.6053,-5.3844,-5.088,-4.6967,-4.6679,-4.5922,-4.3529,-4.3619,-4.3623,-4.3106,-4.3434,-4.3935,-4.4548,-4.4549,-4.4848,-4.5389,-4.1869,-4.0197,-4.0148,-3.5337,-3.1378,-2.8461,-2.5988,-2.1788,-1.6684,-1.5392,-1.1784,-0.7128,-0.5654,-0.345,-0.0987,-0.0247,0.0,0.0,0.0,0.0,0.0,0.0,0.0,0.0,0.0,0.0,0.0,0.0,0.0,0.0,0.0,0.0,0.0,0.0,0.0,0.0,0.0,0.0,0.0,0.0,-3.1833,-3.2577,-3.3457,-3.5453,-3.7821,-4.0595,-4.0155,-4.1711,-4.5399,-4.6989,-4.709,-4.5703,-4.2736,-3.9565,-3.6271,-3.5231,-3.417,-3.3087,-3.2693,-3.2999,-3.366,-3.2926,0.0,0.0,0.0,0.0,0.0,0.0,0.0,0.0,0.0,0.0,0.0,0.0,0.0,-3.9193,-3.6376,-3.8261,-3.9466,-3.1556,-3.1008,-3.3187,-3.5893,-3.4269,-3.6133,-5.1744,-4.8921,-4.2545,-4.0644,-4.7317,-5.3266,-5.2322,-5.1348,-5.0604,-5.0209,-5.0339,-5.2992,-6.085,-5.8469,-5.603,-5.5879,-5.2263,-4.9699,-4.9324,-4.9694,-4.89,-4.6502,-4.636,-4.5533,-4.3454,-4.3318,-4.4581,-4.7021,-4.4972,-4.5006,-4.7111,-4.231,-4.0092,-4.069,-3.7477,-3.4452,-3.1612,-2.9146,-2.621,-2.2732,-1.7043,-1.4481,-1.3504,-0.7373,-0.4675,-0.4186,-0.1234,0.0,0.0,0.0,0.0,0.0,0.0,0.0,0.0,0.0,0.0,0.0,0.0,0.0,0.0,0.0,0.0,0.0,0.0,0.0,0.0,0.0,0.0,0.0,0.0,-3.1461,-3.2706,-3.5153,-3.6165,-3.8363,-4.2042,-4.3064,-4.5162,-4.8443,-4.8545,-4.7597,-4.5602,-4.1834,-3.8734,-3.6271,-3.4866,-3.4418,-3.4635,-3.3716,-3.4137,-3.5202,-3.3366,-3.2302,0.0,0.0,0.0,0.0,0.0,0.0,0.0,0.0,-3.5646,-3.7605,-3.7479,-3.8591,-3.9252,-3.5608,-3.4406,-3.3332,-2.9074,-3.0374,-3.4686,-4.1764,-4.1123,-4.105,-4.9715,-5.6592,-5.8563,-4.9605,-5.204,-5.5672,-5.5445,-5.3945,-5.4348,-5.9331,-5.4216,-5.2681,-6.1234,-6.0195,-5.8011,-5.6929,-5.4102,-5.163,-5.0483,-5.0469,-5.0339,-4.9736,-4.9579,-4.9226,-4.8373,-4.8373,-4.8786,-4.9806,-4.7544,-4.5956,-4.5431,-4.164,-3.926,-3.8202,-3.6843,-3.4747,-3.2044,-2.9291,-2.6602,-2.3588,-1.9434,-1.6617,-1.4486,-1.2028,-0.86,-0.4673,-0.1234,0.0,0.0,0.0,0.0,0.0,0.0,0.0,0.0,0.0,0.0,0.0,0.0,0.0,0.0,0.0,0.0,0.0,0.0,0.0,0.0,0.0,0.0,0.0,-3.1529,-3.1686,-3.2951,-3.5578,-3.6545,-3.8818,-4.2617,-4.4561,-4.6805,-4.929,-4.8843,-4.7454,-4.5137,-4.1185,-3.8664,-3.7461,-3.5551,-3.5533,-3.6853,-3.5235,-3.5238,-3.6119,-3.388,-3.239,0.0,0.0,0.0,0.0,0.0,0.0,0.0,0.0,-3.4506,-3.6171,-3.6756,-3.7649,-3.7899,-3.492,-3.3787,-3.25,-2.7969,-3.1552,-3.7794,-4.2896,-4.5968,-4.8813,-5.2636,-5.8931,-6.211,-5.5786,-5.802,-6.017,-5.7141,-5.5227,-5.5786,-6.1038,-5.5878,-5.3909,-6.1943,-6.1471,-5.9444,-5.7446,-5.5301,-5.3178,-5.0953,-5.0918,-5.1113,-5.1406,-5.1426,-5.1426,-5.1426,-5.1426,-5.1426,-5.1426,-4.8977,-4.6653,-4.4019,-4.1109,-3.8624,-3.65,-3.6206,-3.5196,-3.343,-3.0798,-2.7887,-2.5156,-2.2156,-1.8906,-1.6092,-1.5144,-1.0783,-0.4673,-0.1234,0.0,0.0,0.0,0.0,0.0,0.0,0.0,0.0,0.0,0.0,0.0,0.0,0.0,0.0,0.0,0.0,0.0,0.0,0.0,0.0,0.0,0.0,0.0,-3.2313,-3.2715,-3.3294,-3.409,-3.6716,-3.9594,-4.2581,-4.4347,-4.601,-4.7507,-4.7758,-4.6601,-4.4113,-4.1064,-3.9834,-4.0131,-3.7682,-3.7842,-3.9717,-3.7331,-3.6303,-3.6193,-3.4504,-3.2994,-3.1831,0.0,0.0,0.0,0.0,0.0,0.0,0.0,-3.3785,-3.3349,-3.7081,-3.6783,-3.492,-3.4577,-3.8077,-3.9777,-2.9461,-3.5512,-4.3251,-3.6846,-4.6743,-5.9034,-6.3154,-5.4709,-4.9025,-5.936,-6.7324,-6.939,-5.9833,-5.7223,-5.5751,-5.3576,-5.3303,-5.5977,-6.2795,-6.1739,-5.9444,-5.7469,-5.5603,-5.3529,-5.0993,-5.1191,-5.1426,-5.1426,-5.1426,-5.1426,-5.1426,-5.1426,-5.1426,-5.1426,-4.9176,-4.6513,-4.3863,-4.1193,-3.8638,-3.65,-3.6219,-3.6233,-3.6527,-3.3697,-3.0931,-2.7967,-2.4952,-2.1993,-1.8972,-1.5718,-1.0726,-0.4675,-0.1234,0.0,0.0,0.0,0.0,0.0,0.0,0.0,0.0,0.0,0.0,0.0,0.0,0.0,0.0,0.0,0.0,0.0,0.0,0.0,0.0,0.0,0.0,0.0,-3.2313,-3.1924,-3.2383,-3.374,-3.5384,-3.6946,-3.8473,-4.0377,-4.2996,-4.6204,-4.5818,-4.4613,-4.2659,-4.0552,-3.9802,-4.0167,-3.9322,-3.9296,-3.979,-3.7918,-3.7477,-3.7808,-3.5569,-3.4175,-3.338,0.0,0.0,0.0,0.0,0.0,0.0,0.0,0.0,0.0,-3.4327,-3.5033,-3.6035,-3.8185,-3.9431,-4.0064,-4.0041,-4.6728,-5.3512,-5.2428,-5.6152,-6.0776,-6.3485,-6.0422,-5.6193,-5.2902,-6.3578,-7.0875,-6.1685,-5.8947,-5.9201,-6.2948,-5.8327,-5.6557,-6.3394,-6.4025,-6.249,-5.8865,-5.7952,-5.5842,-5.1617,-5.1367,-5.1426,-5.1426,-5.1426,-5.1426,-5.1426,-5.1426,-5.1426,-5.1426,-5.0743,-4.8288,-4.3863,-4.3041,-4.0499,-3.65,-3.6433,-3.654,-3.66,-3.38,-3.193,-3.0931,-2.5719,-2.3121,-2.2195,-1.6807,-1.2252,-0.8106,-0.4675,-0.1972,0.0,0.0,0.0,0.0,0.0,0.0,0.0,0.0,0.0,0.0,0.0,0.0,0.0,0.0,-3.5622,-3.5622,0.0,0.0,0.0,0.0,0.0,0.0,-3.2747,-3.2398,-3.2676,-3.381,-3.5187,-3.6392,-3.7425,-3.9242,-4.0817,-4.2151,-4.3129,-4.2687,-4.1066,-4.1251,-4.1582,-4.2014,-4.2304,-4.2225,-4.1662,-3.9753,-3.9074,-3.9217,-3.7036,-3.5727,-3.4915,0.0,0.0,0.0,0.0,0.0,0.0,0.0,0.0,0.0,-3.196,-3.4311,-3.7033,-3.6505,-3.9948,-4.3801,-4.342,-5.1294,-5.9908,-6.1377,-6.426,-6.6543,-6.5232,-6.4319,-6.1701,-5.4889,-6.5013,-7.3168,-6.6806,-6.5167,-6.5914,-6.9315,-6.4704,-6.1827,-6.5518,-6.5538,-6.3668,-5.9294,-5.8814,-5.6781,-5.1794,-5.1426,-5.1426,-5.1426,-5.1426,-5.1426,-5.1426,-5.1426,-5.1426,-5.1426,-5.1426,-4.899,-4.3863,-4.3863,-4.1325,-3.65,-3.65,-3.6647,-3.6927,-3.5113,-3.3612,-3.2168,-2.6088,-2.3072,-2.1704,-1.6789,-1.3467,-1.1299,-0.6641,-0.3692,-0.1728,-0.0495,0.0,0.0,0.0,0.0,0.0,0.0,0.0,0.0,0.0,0.0,0.0,-3.5622,-3.5622,-3.5622,0.0,0.0,0.0,-3.552,-3.4167,-3.3322,-3.3322,-3.348,-3.374,-3.409,-3.5794,-3.7319,-3.8511,-3.9801,-3.9227,-3.6661,-4.0075,-4.0906,-3.9474,-4.2597,-4.4294,-4.4746,-4.5794,-4.5542,-4.4232,-4.1915,-4.0628,-4.0049,-3.8611,-3.7401,-3.6344,-3.5457,0.0,0.0,0.0,0.0,0.0,0.0,0.0,0.0,-3.0084,-3.375,-3.7029,-3.1978,-3.9697,-4.8681,-4.2932,-5.1707,-6.3055,-6.566,-7.1189,-7.4504,-6.8861,-6.7554,-6.63,-6.1958,-6.9245,-7.5667,-7.2679,-7.3178,-7.3813,-7.2952,-7.1184,-6.9471,-6.8622,-6.6772,-6.3741,-5.9681,-5.8997,-5.6968,-5.2161,-5.162,-5.1426,-5.1426,-5.1426,-5.1426,-5.1426,-5.1426,-5.1426,-5.1426,-5.1426,-4.899,-4.4273,-4.4306,-4.1775,-3.6924,-3.6964,-3.6907,-3.6941,-3.6941,-3.5323,-3.216,-2.6491,-2.2321,-1.9447,-1.6226,-1.4886,-1.3988,-0.8106,-0.566,-0.4929,-0.1741,-0.0502,-0.0506,0.0,0.0,0.0,0.0,0.0,0.0,0.0,0.0,-3.5622,-3.5622,-3.5622,-3.5622,-3.5622,-3.5081,0.0,-3.4742,-3.3389,-3.251,-3.251,-3.2582,-3.3059,-3.4051,-3.6122,-3.7474,-3.801,-3.7566,-3.674,-3.5545,-3.8087,-3.9146,-3.8777,-4.2346,-4.4263,-4.4745,-4.559,-4.4455,-4.1772,-4.0178,-3.9164,-3.8588,-3.8436,-3.8027,-3.7316,-3.5817,-3.4251,0.0,0.0,0.0,0.0,0.0,0.0,0.0,-2.8911,-2.9515,-3.0999,-3.4276,-3.8173,-4.3256,-5.1942,-5.894,-6.5283,-7.1154,-7.5466,-7.8184,-7.734,-7.7167,-7.3113,-5.8647,-6.6206,-7.378,-6.7899,-7.1179,-7.4318,-7.2981,-7.1372,-6.9962,-6.8675,-6.6938,-6.4877,-6.209,-5.9908,-5.7709,-5.4548,-5.2527,-5.1426,-5.1426,-5.1426,-5.1426,-5.1426,-5.1426,-5.1426,-5.1426,-5.1426,-4.9996,-4.7137,-4.7438,-4.4923,-3.989,-4.0138,-3.9004,-3.6941,-3.6941,-3.5323,-3.2172,-2.8738,-2.5679,-2.2488,-1.9715,-1.7161,-1.4486,-1.3255,-1.1092,-0.8683,-0.5222,-0.4019,-0.356,0.0,0.0,0.0,0.0,0.0,0.0,0.0,0.0,-3.6062,-3.5656,-3.5318,-3.5081,-3.5081,-3.4404,0.0,0.0,-3.2949,-3.2313,-3.2313,-3.2861,-3.3904,-3.5521,-3.737,-3.7853,-3.6679,-3.6318,-3.5431,-3.4159,-3.5773,-3.7179,-3.8366,-4.205,-4.409,-4.4745,-4.5553,-4.4189,-4.1256,-4.0591,-4.0072,-3.964,-3.9677,-3.9366,-3.8675,-3.6638,-3.4606,-3.264,-3.0992,0.0,0.0,0.0,0.0,0.0,0.0,0.0,-3.1335,-3.1563,-3.6841,-4.4531,-5.3321,-5.994,-6.632,-7.469,-7.8213,-7.9735,-8.0107,-8.0479,-7.8203,-6.9392,-7.2262,-7.5123,-7.1218,-7.2865,-7.4892,-7.4768,-7.2282,-7.0521,-7.05,-6.7841,-6.5199,-6.2848,-6.0271,-5.7894,-5.5283,-5.2912,-5.1426,-5.1426,-5.1426,-5.1426,-5.1426,-5.1426,-5.1426,-5.1426,-5.1641,-5.0618,-4.796,-4.8538,-4.6838,-4.2823,-4.3185,-4.1722,-3.9067,-3.7659,-3.5399,-3.2359,-2.9533,-2.6772,-2.3909,-2.0793,-1.871,-1.7035,-1.5244,-1.3815,-1.1931,-0.8488,-0.6301,-0.484,0.0,0.0,0.0,0.0,0.0,0.0,0.0,0.0,0.0,-3.5645,-3.5081,-3.4641,-3.4506,-3.3829,-3.3355,0.0,0.0,0.0,-3.219,-3.3529,-3.5101,-3.6887,-3.8263,-3.7923,-3.564,-3.5608,-3.4869,-3.3417,-3.3999,-3.5602,-3.8204,-4.1674,-4.3791,-4.4745,-4.5259,-4.3922,-4.1303,-4.1037,-4.0767,-4.0602,-4.0348,-3.9945,-3.9257,-3.6856,-3.4408,-3.2035,-3.0512,-2.9664,-2.9124,-2.7875,0.0,0.0,0.0,0.0,-3.2111,-2.7191,-3.3881,-4.3956,-4.8858,-5.7197,-6.681,-7.6608,-7.9566,-8.004,-8.0175,-8.075,-8.1494,-8.2272,-8.0122,-7.7804,-7.7058,-7.6069,-7.5669,-7.6604,-7.358,-7.1407,-7.2313,-6.9135,-6.5692,-6.3378,-6.0632,-5.8057,-5.6034,-5.3084,-5.1426,-5.1426,-5.1426,-5.1426,-5.1426,-5.1426,-5.1426,-5.1426,-5.1855,-5.1083,-4.8873,-4.9403,-4.8532,-4.5859,-4.5611,-4.4258,-4.1781,-3.9194,-3.6341,-3.3596,-2.9922,-2.7225,-2.4958,-2.1173,-1.9786,-1.9622,-1.6796,-1.5836,-1.545,-1.2045,-0.9106,-0.6633,0.0,0.0,0.0,0.0,0.0,0.0,0.0,0.0,0.0,0.0,-3.552,-3.5216,-3.4573,-3.3829,-3.3152,-3.2476,-3.1765,-3.1487,-3.1834,0.0,0.0,-3.6035,-3.6879,-3.7158,-3.6802,-3.5224,-3.464,-3.5106,-3.4266,-3.5483,-3.8664,-4.1225,-4.3277,-4.4672,-4.4085,-4.2558,-4.0356,-3.8491,-3.7749,-3.7773,-3.7306,-3.7181,-3.6967,-3.4556,-3.2811,-3.1427,-2.9859,-2.8618,-2.7709,-2.7806,-2.7384,0.0,0.0,0.0,-2.553,-2.474,-2.5859,-2.9105,-3.6805,-5.1539,-6.7069,-7.6707,-7.9194,-7.9431,-8.004,-8.075,-8.1494,-8.2272,-8.15,-8.0344,-7.9483,-7.8092,-7.6896,-7.6854,-7.4838,-7.3142,-7.2655,-7.0421,-6.7996,-6.5889,-6.1554,-5.863,-5.8263,-5.4209,-5.1426,-5.1426,-5.1426,-5.1426,-5.1426,-5.1426,-5.1426,-5.1426,-5.1855,-5.2048,-5.2,-5.2483,-5.1629,-4.9221,-4.7076,-4.4641,-4.217,-4.1947,-4.0293,-3.7214,-3.1371,-2.8752,-2.8289,-2.242,-1.9976,-1.9888,-1.9502,-1.93,-1.9077,-1.5676,-1.4267,-1.3073,0.0,0.0,0.0,0.0,0.0,0.0,0.0,0.0,0.0,0.0,0.0,-3.5182,-3.3998,-3.322,-3.2476,-3.1732,-3.1393,-3.156,-3.2429,-3.3775,-3.486,-3.5648,-3.6281,-3.6245,-3.5541,-3.4527,-3.4039,-3.4181,-3.3469,-3.5275,-3.9386,-4.0451,-4.2286,-4.4672,-4.4063,-4.2848,-4.1185,-3.9555,-3.8628,-3.8202,-3.7441,-3.8133,-3.9082,-3.4871,-3.3716,-3.3762,-2.9669,-2.8059,-2.7758,-2.6998,-2.6961,-2.7131,-2.6637,0.0,0.0,0.0,-2.3255,-2.4881,-3.5226,-5.184,-6.7565,-7.2313,-7.7543,-8.1633,-8.1765,-8.2325,-8.2915,-8.2951,-8.3027,-8.2399,-8.0191,-7.8408,-7.7262,-7.6854,-7.5012,-7.3442,-7.2655,-7.0583,-6.8498,-6.6429,-6.3025,-6.0271,-5.8997,-5.5492,-5.2912,-5.1426,-5.1426,-5.1426,-5.1426,-5.1426,-5.1543,-5.1777,-5.2207,-5.2637,-5.3066,-5.3516,-5.3313,-5.2459,-5.1577,-5.001,-4.7322,-4.6142,-4.3156,-3.8286,-3.3805,-3.1243,-2.9389,-2.4754,-2.1822,-2.0119,-2.0098,-2.1384,-2.2928,-2.1477,-1.9813,-1.7898,0.0,0.0,0.0,0.0,0.0,0.0,0.0,0.0,0.0,0.0,0.0,-3.5419,-3.41,0.0,0.0,0.0,-3.1453,-3.1823,-3.3001,-3.3781,-3.4474,-3.5023,-3.5433,-3.5235,-3.4286,-3.3561,-3.3232,-3.3379,-3.2866,-3.5092,-3.99,-4.0394,-4.2373,-4.5434,-4.4692,-4.3669,-4.2483,-4.1089,-4.0108,-3.9469,-3.8764,-3.9776,-4.1212,-3.6972,-3.6415,-3.7118,-3.1044,-2.9039,-2.8914,-2.6985,-2.6844,-2.7437,-2.6873,-2.5517,0.0,0.0,0.0,-2.3805,-3.4996,-4.884,-6.1477,-6.7057,-7.4139,-8.0351,-8.2858,-8.3797,-8.4081,-8.3978,-8.4412,-8.3985,-8.1036,-7.916,-7.7941,-7.7516,-7.585,-7.4241,-7.2655,-7.1041,-6.9135,-6.6429,-6.3929,-6.1554,-5.8997,-5.6595,-5.3998,-5.162,-5.1426,-5.1426,-5.1426,-5.1426,-5.1641,-5.207,-5.25,-5.291,-5.3359,-5.3808,-5.4297,-5.4844,-5.5156,-5.4052,-5.1477,-4.9367,-4.5254,-3.9863,-3.608,-3.33,-3.1223,-2.7887,-2.4972,-2.2854,-2.2717,-2.4467,-2.6566,-2.6557,-2.5098,-2.2931,0.0,0.0,0.0,0.0,0.0,0.0,0.0,0.0,0.0,0.0,0.0,-3.64,-3.5588,-3.4201,-3.3223,-3.2945,-3.2221,-3.2161,-3.3147,-3.3595,-3.3853,-3.389,-3.3917,0.0,-3.3817,-3.2339,-3.2265,-3.378,-3.2973,-3.5092,-3.9968,-4.1839,-4.4475,-4.7467,-4.5929,-4.4739,-4.3798,-4.2004,-4.1132,-4.0959,-4.0729,-4.1034,-4.1534,-4.1209,-4.1318,-4.0928,-3.5001,-3.2482,-3.1428,-2.8519,-2.7404,-2.7314,-2.7243,-2.6308,-2.4912,0.0,0.0,0.0,-3.3345,-3.7753,-4.3947,-6.2142,-6.7869,-7.1796,-8.2348,-8.4376,-8.4274,-8.5035,-8.5515,-8.5018,-8.259,-8.1284,-8.0238,-7.9375,-7.8244,-7.6447,-7.3024,-7.2348,-7.0745,-6.6601,-6.3929,-6.1554,-5.8997,-5.6595,-5.3998,-5.162,-5.1426,-5.1426,-5.1426,-5.1426,-5.1641,-5.207,-5.25,-5.291,-5.3359,-5.3808,-5.4453,-5.5273,-5.5293,-5.4204,-5.2091,-4.9515,-4.687,-4.3459,-3.7569,-3.496,-3.4959,-3.1484,-3.0254,-3.0244,-2.9985,-3.0244,-3.0482,-3.0254,-2.9995,-2.9488,0.0,0.0,0.0,0.0,0.0,0.0,0.0,0.0,0.0,0.0,0.0,0.0,0.0,-3.4775,-3.3736,-3.3459,-3.2993,-3.2822,-3.3166,-3.3578,-3.3807,-3.3807,-3.3807,-3.3807,-3.3807,-3.2228,-3.2192,-3.3807,-3.2485,-3.4578,-3.9932,-4.0837,-4.3191,-4.6545,-4.6751,-4.6399,-4.5521,-4.3402,-4.2007,-4.1549,-4.6278,-4.921,-5.0624,-4.9215,-4.9993,-5.1069,-4.5627,-4.2747,-4.1842,-4.4685,-4.1317,-3.5894,-3.5549,-3.0696,-2.4748,-2.231,-2.1729,-2.2848,-2.7258,-3.3469,-4.0701,-4.8949,-5.6432,-6.2885,-6.687,-7.3596,-7.8948,-7.9026,-8.3636,-8.747,-8.6605,-8.3763,-8.0935,-7.9569,-7.8413,-7.6622,-7.3052,-7.2506,-7.0907,-6.6601,-6.5372,-6.3201,-5.918,-5.8079,-5.574,-5.142,-5.1269,-5.1308,-5.1035,-5.1289,-5.1758,-5.2461,-5.2637,-5.3047,-5.3789,-5.3945,-5.4453,-5.5312,-5.5312,-5.5244,-5.5204,-5.0535,-4.8162,-4.7051,-4.1026,-3.737,-3.5462,-3.4244,-3.257,-3.0714,-3.0573,-3.1837,-3.3953,-3.3796,-3.374,-3.3538,0.0,0.0,0.0,0.0,0.0,0.0,0.0,0.0,-3.8104,-3.7576,0.0,0.0,0.0,0.0,-3.4603,-3.3977,-3.3821,-3.3698,-3.3408,-3.3634,-3.3807,-3.3807,-3.3876,-3.3954,-3.3954,-3.3006,-3.304,-3.4105,-3.33,-3.5131,-3.9378,-4.0274,-4.2509,-4.5697,-4.6337,-4.6701,-4.6703,-4.5035,-4.3574,-4.2934,-4.879,-5.1788,-5.294,-5.5449,-5.7,-5.7575,-5.5977,-5.4177,-5.3117,-5.6851,-5.1809,-4.3725,-4.2393,-3.4148,-2.4393,-2.1645,-2.1309,-2.2232,-2.3839,-2.9045,-3.5349,-4.1005,-4.7398,-5.353,-5.827,-6.7622,-7.5349,-7.6036,-8.3362,-8.9612,-8.8871,-8.6253,-8.3325,-8.083,-7.9619,-7.7526,-7.3052,-7.2506,-7.0907,-6.6601,-6.6112,-6.4104,-5.9362,-5.8814,-5.6652,-5.1401,-5.1269,-5.1308,-5.1035,-5.1426,-5.2051,-5.2891,-5.3066,-5.3437,-5.4023,-5.4023,-5.4453,-5.5312,-5.5312,-5.5976,-5.701,-5.1053,-4.8702,-4.8833,-4.2911,-3.9214,-3.7225,-3.7225,-3.6191,-3.4448,-3.4212,-3.552,-3.773,-3.7459,-3.7299,-3.7299,0.0,0.0,0.0,0.0,0.0,0.0,-3.6901,-3.8068,-3.8908,-3.8908,0.0,0.0,0.0,0.0,0.0,-3.4614,-3.4827,-3.4724,-3.388,-3.3807,-3.3807,-3.3807,-3.4043,-3.4176,-3.42,-3.4475,-3.462,-3.4713,-3.5413,-3.6675,-3.8342,-4.0321,-4.2612,-4.5095,-4.469,-4.5468,-4.7029,-4.6561,-4.5786,-4.5057,-4.8109,-4.8354,-4.8186,-5.9838,-6.246,-6.0489,-6.5692,-6.6443,-6.48,-6.403,-5.7774,-4.9782,-4.6433,-3.5718,-2.3962,-2.1928,-2.1644,-2.2304,0.0,0.0,0.0,-3.9163,-4.1155,-4.3731,-5.7673,-6.7004,-7.3604,-7.6685,-8.4769,-9.0858,-8.9175,-8.8734,-8.7176,-8.3443,-8.1987,-7.9345,-7.3393,-7.2506,-7.0907,-6.6601,-6.6112,-6.4279,-5.9362,-5.8814,-5.6781,-5.1774,-5.1426,-5.1426,-5.1426,-5.1875,-5.25,-5.334,-5.3789,-5.4023,-5.4023,-5.4023,-5.4453,-5.5312,-5.5312,-5.5996,-5.701,-5.1088,-4.8702,-4.8833,-4.315,-4.0481,-4.0481,-4.0481,-4.0842,-4.131,-4.1016,-4.1082,-4.131,-4.1016,-4.0735,-4.0548,0.0,0.0,0.0,0.0,0.0,-3.7998,-3.9002,-3.9528,-3.9765,0.0,0.0,0.0,-4.0297,-3.9511,-3.831,-3.6778,-3.6208,-3.5569,-3.4697,-3.4137,-3.3807,-3.3807,-3.3876,-3.3993,-3.42,-3.3172,-3.3285,-3.4713,-3.3694,-3.4977,-3.8328,-3.9237,-4.1022,-4.3577,-4.43,-4.446,-4.4064,-4.3893,-4.4364,-4.6079,-5.5616,-6.1195,-6.4672,-7.2921,-7.701,-7.8563,-8.0056,-7.9068,-7.7767,-8.2021,-7.162,-5.4044,-3.8135,-2.9856,-2.5698,-2.4493,-2.4371,-2.4908,-2.5716,0.0,0.0,0.0,0.0,0.0,-4.5049,-5.0939,-5.8588,-7.3465,-7.9023,-8.3288,-9.0432,-9.1015,-8.8787,-8.4402,-8.2434,-7.9345,-7.3393,-7.2506,-7.0907,-6.6601,-6.6112,-6.4827,-6.1733,-5.9908,-5.7371,-5.3923,-5.2175,-5.1426,-5.1426,-5.2441,-5.3125,-5.3359,-5.3789,-5.4023,-5.4023,-5.4023,-5.4453,-5.5312,-5.5605,-5.6426,-5.7458,-5.1696,-4.9311,-4.9209,-4.3236,-4.0481,-4.0481,-4.0695,-4.1016,-4.131,-4.1016,-4.1082,-4.1269,-4.0762,-4.0695,-4.0842,0.0,0.0,-3.7049,-3.8602,-3.9129,-3.961,-4.0442,-4.0561,-4.0426,0.0,0.0,0.0,-4.0546,-4.1137,-4.0662,-3.8689,-3.7771,-3.6817,-3.5642,-3.4761,-3.4174,-3.3807,-3.4055,-3.4237,-3.442,-3.4034,-3.4206,-3.5016,-3.4387,-3.5148,-3.7167,-3.8191,-3.949,-4.0974,-4.2047,-4.2352,-4.2057,-4.1253,-4.3604,-4.8455,-5.5696,-6.0778,-6.5188,-7.5518,-7.9555,-8.0692,-8.8094,-8.9115,-8.7807,-9.3229,-8.2669,-6.3087,-3.9255,-3.2223,-3.1889,-2.7191,-2.6129,-2.673,-2.7957,-2.7752,-2.7595,-2.9327,0.0,0.0,-3.7295,-4.3202,-5.2107,-6.8951,-7.2797,-7.6072,-8.5866,-8.39,-8.0294,-7.8865,-7.7814,-7.6234,-7.3784,-7.2746,-7.0741,-6.7183,-6.6094,-6.4852,-6.2313,-6.0156,-5.7577,-5.4925,-5.2771,-5.1582,-5.1933,-5.2676,-5.3262,-5.3633,-5.3887,-5.4023,-5.4023,-5.4023,-5.4551,-5.5566,-5.582,-5.6699,-5.7925,-5.1958,-4.9459,-4.9356,-4.3279,-4.0548,-4.0655,-4.0842,-4.1016,-4.1163,-4.1122,-4.1122,-4.1122,-4.0762,-4.0695,-4.0762,0.0,0.0,-3.8334,-4.0084,-4.0903,-4.1373,-4.1542,-4.1441,-4.1136,0.0,-4.051,-4.0707,-4.1202,-4.2772,-4.2846,-4.0529,-3.9386,-3.8175,-3.667,-3.5634,-3.4743,-3.4007,-3.4547,-3.4809,-3.4753,-3.5911,-3.6171,-3.5493,-3.6122,-3.6199,-3.5815,-3.7368,-3.8161,-3.8359,-3.8983,-3.9839,-4.0626,-3.9199,-4.358,-5.16,-5.2672,-5.499,-5.9412,-7.3973,-7.7335,-7.6366,-9.23,-9.6523,-9.4871,-9.6489,-8.8898,-7.4092,-4.6574,-4.0367,-4.1198,-3.1422,-2.8654,-2.9098,-3.0587,-2.9863,-2.9385,-3.1967,-3.0554,0.0,-3.4427,-4.0796,-4.9638,-6.3111,-6.537,-6.7616,-7.6365,-7.1234,-6.6544,-6.9134,-7.0262,-7.1319,-7.3192,-7.1687,-6.9417,-6.6599,-6.5122,-6.3693,-6.2089,-5.988,-5.7806,-5.5595,-5.2912,-5.1836,-5.2598,-5.2734,-5.3144,-5.3926,-5.4004,-5.4023,-5.4023,-5.4023,-5.4668,-5.5937,-5.5976,-5.6894,-5.8314,-5.2552,-4.9724,-4.9589,-4.3504,-4.0872,-4.0869,-4.0909,-4.0949,-4.0976,-4.1203,-4.1122,-4.0909,-4.0869,-4.0722,-4.0548,-3.8044,-3.8076,-3.8667,-4.1352,-4.203,-4.2489,-4.3741,-4.2861,-4.2252,-4.2692,-4.3123,-4.3819,-4.5054,-4.4776,-4.4052,-4.291,-4.0891,-3.9239,-3.8285,-3.6472,-3.533,-3.5182,-3.5484,-3.5475,-3.5054,-3.5293,-3.5423,-3.5493,-3.4968,-3.5661,-3.7507,-3.7343,-3.7937,-3.914,-3.8712,-3.8706,-3.9064,-3.9927,-4.5456,-5.4054,-5.8921,-6.6632,-7.6301,-8.6729,-9.1951,-9.4113,-9.8318,-9.9453,-9.6752,-8.1671,-7.9595,-7.9022,-5.4215,-4.9723,-5.2075,-4.3544,-3.8901,-3.6015,-3.3822,-3.3033,-3.2758,-3.2934,-3.3168,0.0,-3.9527,-3.703,-3.845,-5.5473,-5.319,-5.132,-6.15,-6.2205,-6.0563,-5.8408,-6.4275,-6.8268,-6.5715,-6.4507,-6.2389,-5.8569,-5.7897,-5.9256,-6.3588,-6.044,-5.805,-5.7481,-5.3972,-5.2031,-5.2187,-5.2851,-5.332,-5.3476,-5.3848,-5.4023,-5.4023,-5.4023,-5.4668,-5.5937,-5.6289,-5.7187,-5.8333,-5.4918,-5.2038,-4.9573,-4.5857,-4.2855,-4.0588,-4.0802,-4.1056,-4.1229,-4.1056,-4.0949,-4.0869,-4.0655,-4.0655,-4.0842,-3.8492,-3.858,-3.9335,-4.2328,-4.2861,-4.3369,-4.4891,-4.4485,-4.4012,-4.4012,-4.4785,-4.5281,-4.5142,-4.5296,-4.4854,-4.3608,-4.2029,-4.0657,-3.9549,-3.8116,-3.6995,-3.6362,-3.6608,-3.6616,-3.6362,-3.6042,-3.5944,-3.6122,-3.5276,-3.5545,-3.6815,-3.6997,-3.8602,-4.1201,-3.9198,-3.9737,-4.2247,-4.3197,-4.8529,-5.6702,-6.0806,-6.8371,-7.8302,-8.8285,-9.3272,-9.5616,-10.0007,-10.1914,-9.9988,-8.5177,-8.1554,-8.0583,-6.5437,-5.8097,-5.4268,-4.9758,-4.4615,-3.9734,-3.6426,-3.5425,-3.512,-3.4805,-3.4299,0.0,0.0,-3.5344,-3.5974,-5.0395,-4.5468,-4.1543,-5.1786,-4.9737,-4.7013,-4.8878,-5.398,-5.6359,-5.2743,-6.151,-6.7014,-6.3593,-6.237,-6.2017,-6.2762,-5.9947,-5.7094,-5.4946,-5.28,-5.1855,-5.207,-5.2891,-5.3457,-5.3691,-5.4121,-5.4453,-5.4668,-5.4453,-5.5,-5.6269,-5.6699,-5.748,-5.8333,-5.567,-5.3415,-5.1618,-4.701,-4.4075,-4.2573,-4.1167,-4.0722,-4.1122,-4.0976,-4.0842,-4.0695,-4.0508,-4.0588,-4.0695,-3.8854,-3.9016,-3.9785,-4.2719,-4.3335,-4.3944,-4.5466,-4.5568,-4.5411,-4.5234,-4.6427,-4.7124,-4.6873,-4.7375,-4.7342,-4.6497,-4.5041,-4.3446,-4.1816,-4.0737,-3.9714,-3.8753,-3.8232,-3.815,-3.8665,-3.7548,-3.6892,-3.6699,-3.5968,-3.5699,-3.5892,-3.6586,-3.8811,-4.2116,-4.0122,-4.1949,-4.6555,-4.7624,-5.3081,-6.1205,-6.4146,-6.8897,-7.551,-8.6849,-9.0735,-9.1325,-9.9989,-10.3711,-10.289,-9.2969,-8.7963,-8.436,-7.4926,-6.5799,-5.7725,-5.3637,-4.8327,-4.2831,-3.8863,-3.7669,-3.7348,-3.6607,-3.5353,-3.4587,0.0,0.0,0.0,-4.4662,-3.9213,-3.5224,-4.2926,-3.7679,-3.3916,-3.9417,-4.3124,-4.429,-4.1566,-5.8196,-6.895,-6.4346,-6.2603,-6.1129,-5.9449,-5.8075,-5.5786,-5.1735,-5.1113,-5.123,-5.1914,-5.2773,-5.3437,-5.3887,-5.4414,-5.4883,-5.5312,-5.498,-5.541,-5.6582,-5.6933,-5.7598,-5.8333,-5.631,-5.4691,-5.3722,-4.8601,-4.6228,-4.5589,-4.2935,-4.2206,-4.2453,-4.1995,-4.1614,-4.1423,-4.1423,-4.1423,-4.1409,-3.9799,-3.9368,-3.962,-4.2011,-4.2963,-4.3944,-4.5466,-4.5128,-4.5412,-4.7195,-4.8735,-5.1596,-5.6473,-5.4894,-5.4437,-5.6795,-5.3254,-4.9748,-4.7062,-4.4953,-4.3919,-4.4179,-4.0935,-4.0169,-4.2437,-3.9454,-3.7469,-3.6699,-3.5968,-3.5993,-3.6738,-3.6162,-3.6873,-3.8787,-4.1466,-4.4843,-4.8798,-5.2601,-6.0205,-7.0242,-7.5741,-7.6247,-7.5232,-8.9298,-9.1642,-8.8891,-10.0108,-10.4609,-10.3711,-9.3164,-9.446,-9.6888,-7.6112,-7.2866,-7.3597,-5.7836,-5.1506,-4.8081,-4.1423,-4.0245,-4.0271,-3.7191,-3.7663,-3.814,-3.4853,0.0,-3.4294,-3.4186,0.0,-3.1229,-3.1196,0.0,0.0,-2.8914,-3.5647,-4.0666,-3.9888,-4.8851,-5.13,-4.051,-3.9845,-4.3805,-5.253,-5.4385,-5.3991,-5.1617,-5.0019,-4.9844,-5.1426,-5.2324,-5.2988,-5.3418,-5.4238,-5.4883,-5.5312,-5.5254,-5.5683,-5.6582,-5.664,-5.7324,-5.8535,-5.8131,-5.6703,-5.44,-5.3305,-5.1337,-4.9307,-4.8483,-4.8364,-4.8484,-4.5665,-4.4698,-4.4654,-4.4654,-4.4654,-4.4192,-4.0003,-3.985,-4.0184,-4.1963,-4.2557,-4.3436,-4.5399,-4.6515,-4.7466,-4.833,-4.9713,-5.2325,-5.695,-5.4351,-5.4894,-6.1298,-5.8136,-5.5685,-5.5491,-5.2291,-5.0713,-5.1519,-4.5103,-4.2982,-4.6167,-4.1374,-3.8377,-3.7493,-3.6353,-3.5968,-3.6342,-3.6437,-3.8684,-4.281,-4.7157,-5.2285,-5.8048,-6.2959,-6.6289,-6.8717,-7.4299,-7.373,-7.1356,-8.7536,-9.2876,-9.2969,-10.2304,-10.5898,-10.5703,-10.2187,-9.7773,-9.3405,-9.1559,-8.0415,-6.7886,-6.6543,-5.7839,-4.842,-4.7377,-4.7415,-4.6934,-4.3821,-4.3943,-4.3155,-3.6361,-3.4736,-3.4401,-3.3482,0.0,0.0,0.0,0.0,0.0,0.0,-3.1864,-3.3888,-3.2533,-3.6304,-4.0034,-4.2053,-4.3209,0.0,-5.178,-4.7391,-4.5719,-4.9826,-4.7231,-4.639,-4.8403,-5.1459,-5.3398,-5.4101,-5.4726,-5.5371,-5.6055,-5.5801,-5.5976,-5.6601,-5.709,-5.7617,-5.8144,-5.8418,-5.7774,-5.6326,-5.4521,-5.2949,-5.1713,-4.9952,-4.9476,-4.9589,-4.8404,-4.6757,-4.5145,-4.5145,-4.3968,-4.236,-4.0087,-4.0087,-4.0426,-4.1508,-4.1847,-4.2692,-4.4756,-4.6758,-4.838,-4.9164,-5.0611,-5.3654,-5.9046,-5.6104,-5.7505,-6.683,-6.4054,-6.2327,-6.3624,-5.8897,-5.7313,-6.0172,-5.044,-4.6968,-5.134,-4.4986,-4.0701,-3.8891,-3.7101,-3.6496,-3.696,-3.704,-3.975,-4.4731,-4.9925,-5.6844,-6.4942,-7.0606,-7.3609,-7.4882,-7.8589,-7.7853,-7.576,-8.7092,-9.2917,-9.5922,-10.3616,-10.5312,-10.4414,-10.7304,-10.0898,-9.3007,-9.9902,-8.6619,-6.9258,-7.3825,-6.5733,-5.5443,-5.5954,-5.4567,-5.2522,-5.0508,-4.7998,-4.4539,-3.9068,-3.6408,-3.5108,-3.509,-3.4198,0.0,0.0,0.0,-2.9792,-2.9944,0.0,-2.8887,-2.709,-2.7865,-3.1832,-4.0265,-4.3467,0.0,0.0,-4.0841,-3.9535,-4.6288,-4.293,-4.228,-4.6195,-4.9769,-5.2522,-5.4629,-5.5098,-5.5723,-5.6582,-5.6269,-5.6269,-5.6601,-5.7324,-5.7676,-5.7695,-5.8144,-5.8183,-5.7871,-5.5577,-5.4727,-5.4597,-5.2621,-5.2025,-5.2372,-5.2476,-4.9971,-4.6453,-4.5517,-4.3917,-4.1885,-4.0087,-4.0087,-4.0087,-4.0155,-4.0764,-4.1745,-4.3267,-4.473,-4.6742,-4.967,-5.1969,-5.6958,-6.6497,-6.3784,-6.5406,-7.5639,-7.267,-7.0225,-7.0275,-6.3408,-6.2694,-7.0296,-5.71,-5.2507,-5.875,-5.1154,-4.5077,-4.0813,-3.8361,-3.8001,-3.9521,-3.7808,-3.844,-4.1216,-4.6985,-5.5623,-6.6252,-7.2381,-8.3146,-9.598,-9.5642,-9.5018,-9.384,-8.9936,-9.0878,-9.5219,-10.281,-10.1914,-9.8008,-10.3711,-10.4687,0.0,-9.3243,-9.0457,-8.8373,-7.7605,-7.4811,-7.3842,-6.7291,-6.0604,-5.5463,-5.55,-4.7335,-4.0031,-4.3083,-3.98,-3.6391,-3.6947,-3.7006,-3.679,-3.6026,-3.437,-3.2458,0.0,0.0,0.0,0.0,-2.6523,-2.6251,-2.5459,-3.1053,0.0,0.0,-3.6366,-3.8216,0.0,-3.6832,-3.8233,-4.5878,-4.6819,-4.9367,-5.459,-5.5098,-5.5723,-5.6582,-5.6582,-5.6582,-5.6601,-5.7031,-5.7226,-5.7246,-5.7676,-5.7871,-5.7851,-5.7832,-5.7886,-5.8275,-5.8294,-5.8567,-5.8975,-5.9384,-5.5546,-4.9863,-4.6791,-4.5591,-4.5372,-4.0832,-4.0832,-4.0663,-4.0155,-4.029,-4.1308,-4.3769,-4.6185,-4.9722,-5.5213,-5.7423,-6.2199,-7.2,-6.9593,-7.1236,-8.1115,-7.8487,-7.7094,-7.8956,-7.2774,-7.1458,-7.7132,-6.4472,-5.8483,-6.1064,-5.3808,-4.7294,-4.1854,-4.0485,-4.014,-4.0691,-4.0461,-4.1125,-4.2887,-5.147,-6.1221,-7.1573,-7.7582,-8.427,-9.0884,-9.1434,-8.9406,-8.7051,-9.557,-9.7477,-9.6622,-10.4427,-10.5925,0.0,-10.7187,-10.6611,-10.4295,-10.1587,-9.5099,-8.7838,-8.4589,-7.7901,-7.2064,-7.3946,-7.1557,-6.8029,-6.5615,-5.8654,-5.0657,-4.4864,-3.9079,-3.4895,-3.4528,-3.584,-3.7953,-4.0589,-3.6763,-3.4038,0.0,0.0,0.0,0.0,-2.5703,-2.5586,-2.5781,-2.7332,0.0,0.0,0.0,0.0,0.0,-3.4396,0.0,-4.2446,-4.537,-4.9423,-5.498,-5.5234,-5.5723,-5.6582,-5.6582,-5.6445,-5.6172,-5.6875,-5.707,-5.6816,-5.7246,-5.7441,-5.7441,-5.7734,-5.7969,-5.8144,-5.8711,-5.9062,-5.8995,-5.7286,-5.5479,-5.3327,-5.0223,-4.6496,-4.3024,-4.1576,-4.117,-4.073,-4.0527,-4.0696,-4.2158,-4.5917,-4.9447,-5.3739,-5.9487,-6.238,-6.6805,-7.4579,-7.2729,-7.4649,-8.3764,-8.1722,-8.1063,-8.3764,-7.8328,-7.7298,-8.2565,-7.2298,-6.7076,-6.8538,-6.0812,-5.3804,-4.7748,-4.427,-4.2539,-4.2539,-4.2253,-4.2714,-4.4196,-5.1447,-6.0652,-7.1194,-7.8106,-8.3553,-8.7627,-8.8364,-8.8119,-8.8362,-9.8133,-9.7452,-9.2662,0.0,-10.6004,-10.4519,-10.769,-10.7303,-10.5599,-10.6101,-9.9763,-9.2202,-9.2132,-8.5628,-7.9082,-8.2189,-7.9263,-7.5291,-7.4587,-6.7297,-5.8668,-5.2615,-4.6857,-4.2688,-4.2354,-4.1244,-4.1904,-4.6991,-4.0282,-3.5032,0.0,0.0,0.0,0.0,-2.5625,-2.5742,-2.6328,0.0,0.0,0.0,0.0,0.0,0.0,0.0,0.0,0.0,-4.3845,-4.8005,-5.4961,-5.5234,-5.5644,-5.6348,-5.6348,-5.6211,-5.5937,-5.666,-5.6758,-5.6367,-5.6953,-5.7129,-5.7012,-5.7617,-5.7871,-5.793,-5.8828,-5.918,-5.9014,-5.7646,-5.641,-5.5213,-5.2235,-4.8512,-4.5523,-4.2286,-4.1204,-4.0527,-4.1204,-4.2016,-4.4316,-4.952,-5.4033,-5.8333,-6.257,-6.6708,-7.0769,-7.4923,-7.4071,-7.6348,-8.4001,-8.295,-8.2604,-8.4606,-8.0226,-8.0321,-8.6847,-8.0317,-7.7739,-8.0386,-7.154,-6.3822,-5.7734,-4.9258,-4.5117,-4.5078,-4.3195,-4.3179,-4.4876,-4.7124,-5.4426,-6.5661,-7.4029,-8.1527,-8.7788,-8.8185,-9.2088,-9.7649,-9.804,-9.1644,-8.4646,-10.0918,-10.2714,-9.8469,-10.5606,-10.7303,-10.6295,-10.5869,-10.4017,-10.1482,-9.9557,-9.7003,-9.4171,-9.1444,-8.367,-7.7366,-8.188,-7.2736,-6.3178,-6.5419,-6.172,-5.8057,-5.8631,-5.2412,-4.8731,-5.5061,-4.511,-3.6226,0.0,0.0,0.0,0.0,0.0,-2.6484,0.0,0.0,0.0,0.0,0.0,0.0,0.0,0.0,0.0,0.0,-4.2197,-4.5322,-5.4189,-5.4753,-5.5162,-5.5801,-5.5609,-5.5629,-5.584,-5.6348,-5.6367,-5.5996,-5.6816,-5.6973,-5.666,-5.75,-5.7871,-5.7969,-5.8828,-5.918,-5.9238,-6.0098,-5.8537,-5.5519,-5.2539,-5.193,-5.2245,-4.2388,-4.2895,-4.3301,-4.2929,-4.4857,-4.8014,-5.2688,-5.6334,-6.1178,-6.8328,-7.1663,-7.5195,-8.0164,-8.2183,-8.4045,-8.6095,-8.5802,-8.6011,-8.7042,-8.4347,-8.5104,-9.0569,-8.6024,-8.3116,-8.2594,-7.3428,-6.5611,-5.9531,-5.1055,-4.6914,-4.6914,-4.554,-4.5142,-4.5663,-4.7355,-5.5094,-6.7036,-7.0133,-8.0276,-9.4669,-9.972,-9.8785,-9.5121,0.0,-9.9448,-9.264,-10.3703,-10.6599,-10.541,-10.7114,-10.7026,-10.5785,-10.4303,-10.2789,-10.0898,-9.7644,-9.5581,-9.3891,-9.2161,-8.7988,-8.4347,-8.5659,-7.6055,-6.6331,-6.634,-6.0015,-5.4412,-5.6074,-5.6031,-5.7099,-6.2252,-5.3592,-4.5927,-4.6713,-3.6613,-2.8496,-2.7734,-2.7734,-2.793,-2.8242,0.0,0.0,0.0,0.0,0.0,0.0,0.0,0.0,0.0,0.0,-4.4709,-5.2578,-5.1473,-5.1685,-5.4023,-5.2628,-5.2799,-5.4531,-5.5918,-5.6523,-5.6426,-5.664,-5.6855,-5.709,-5.7637,-5.8027,-5.8418,-5.8945,-5.918,-5.9238,-5.9765,-5.9895,-5.9029,-5.3872,-5.3372,-5.564,-4.3809,-4.4722,-4.55,-4.5399,-4.9248,-5.3798,-5.7843,-6.1634,-6.6537,-7.3601,-7.6938,-7.9592,-8.1914,-8.5,-8.7042,-8.7347,-8.711,-8.6941,-8.7008,-8.7011,-8.8089,-9.0572,-9.0467,-8.9856,-8.888,-8.1347,-7.37,-6.6234,-5.7796,-5.1601,-4.7578,-4.648,-4.5775,-4.5466,-4.7335,-5.2913,-6.1326,-6.8903,-7.9489,-9.1687,-9.7163,-9.7951,0.0,-10.1862,-10.25,-10.097,-10.5991,-10.781,-10.7811,-10.7713,-10.6516,-10.4892,-10.3105,-10.1292,-9.9177,-9.5802,-9.4477,-9.3591,-9.1781,-8.9575,-8.7908,-8.8314,-8.2108,-7.5654,-7.4603,-6.9241,-6.4871,-6.5923,-6.4426,-6.4399,-6.93,-5.8883,-4.7992,-4.3044,-3.5202,-2.9507,-2.8447,-2.8457,-2.8652,0.0,-2.9785,0.0,0.0,0.0,0.0,0.0,0.0,0.0,0.0,0.0,-4.3876,-5.1621,-5.0618,-5.0478,-5.1973,-5.2069,-5.2737,-5.4043,-5.5566,-5.6406,-5.6582,-5.6582,-5.6816,-5.7246,-5.7676,-5.8144,-5.8594,-5.9004,-5.918,-5.9238,-5.9648,-6.0215,-6.036,-5.6964,-5.7038,-5.8986,-4.5602,-4.6515,-4.7394,-4.797,-5.4023,-6.0082,-6.3792,-6.8082,-7.2737,-7.8017,-8.162,-8.3296,-8.2129,-8.5102,-8.7448,-8.8091,-8.755,-8.6907,-8.6264,-8.8638,-8.9877,-8.9488,-9.3654,-9.6083,-9.6255,-9.0762,-8.3287,-7.3835,-6.5528,-5.664,-4.7422,-4.6385,-4.5465,-4.4778,-4.6985,-5.0303,-5.537,-7.0686,-8.0566,-8.6354,-9.0642,-9.5585,-10.0299,-10.0136,-10.3291,-10.7886,-10.7695,-10.76,-10.76,-10.7408,-10.6023,-10.4016,-10.2206,-9.9948,-9.7336,-9.4448,-9.3791,-9.3531,-9.107,-8.9891,-8.9553,-9.0203,-8.8339,-8.6097,-8.4852,-8.217,-7.9944,-8.0027,-7.477,-7.1311,-7.5616,-6.2709,-4.7739,-3.5825,-3.2788,-3.1366,-2.9695,-3.0187,-3.0489,0.0,0.0,0.0,0.0,0.0,0.0,0.0,0.0,0.0,0.0,0.0,-4.2668,-5.0488,-5.03,-5.0087,-5.0019,-5.2277,-5.3615,-5.4043,-5.5371,-5.6269,-5.6758,-5.664,-5.6855,-5.7324,-5.7695,-5.8144,-5.8652,-5.9004,-5.918,-5.9238,-5.9648,-6.0039,-6.0371,-6.043,-6.0898,-6.1484,-4.5805,-4.7767,-4.9357,-4.8883,-5.6122,-6.3608,-6.8303,-7.2078,-7.5951,-8.0444,-8.3231,-8.4648,-8.4432,-8.6943,-8.8767,-8.8869,-8.8767,-8.8632,-8.8497,-9.0013,-9.1499,-9.3044,-9.5001,-9.6461,-9.7509,-9.1132,-8.2917,-7.301,-6.5257,-5.6328,-4.6484,-4.5449,-4.4861,-4.4753,-4.5673,-5.3184,-6.6001,-7.8629,-8.8454,-9.6052,-10.2285,-10.5497,-10.6514,-10.6412,-10.6912,-10.7717,-10.7633,-10.76,-10.7408,-10.633,-10.5214,-10.3936,-10.1415,-9.9764,-9.8105,-9.4891,-9.4421,-9.4241,-9.1375,-9.0649,-9.0619,-9.0421,-8.7477,-8.4685,-8.4985,-8.2282,-7.9853,-8.0378,-8.0616,-8.037,-7.9563,-6.8483,-5.6,-4.6245,-3.9781,-3.606,-3.5736,-3.8485,-3.8642,0.0,0.0,-3.9258,0.0,0.0,0.0,0.0,0.0,0.0,0.0,0.0,-4.1209,0.0,-4.7084,-4.7911,0.0,0.0,-5.21,-5.4043,-5.5683,-5.6875,-5.7617,-5.6914,-5.7012,-5.7754,-5.7812,-5.832,-5.9062,-5.914,-5.918,-5.9238,-5.9648,-5.9863,-5.998,-6.0312,-6.0547,-6.0664,-4.8545,-4.9695,-5.1342,-5.3415,-5.9736,-6.645,-7.2348,-7.7248,-8.1135,-8.3463,-8.4763,-8.5446,-8.5446,-8.7607,-8.9072,-8.9072,-8.9072,-8.9072,-8.9072,-9.0884,-9.24,-9.3427,-9.5744,-9.7312,-9.7897,-9.4677,-8.6823,-7.408,-6.9092,-5.9903,-4.696,-4.5902,-4.4925,-4.4292,-5.0317,-5.7863,-6.7113,0.0,0.0,-9.6714,-10.4779,-10.8008,-10.7998,-10.8027,-10.7783,-10.7523,-10.6908,-10.66,-10.6407,-10.5674,-10.5174,-10.4087,-10.0685,-9.9707,-9.8855,-9.4623,-9.4747,-9.5538,-9.2203,-9.175,-9.2065,-9.1105,-8.8503,-8.6109,-8.6921,-8.4124,-8.152,-8.1858,-8.2706,-8.207,-7.8195,-7.1337,-6.3579,-5.5261,-4.7133,-4.2085,-4.2275,-4.3711,-4.3464,0.0,0.0,0.0,0.0,0.0,0.0,0.0,0.0,0.0,0.0,0.0,-4.0684,0.0,0.0,0.0,-4.8516,0.0,-5.3172,-5.3379,-5.5762,-5.7246,-5.7851,-5.7207,-5.7265,-5.7871,-5.8086,-5.8594,-5.918,-5.8945,-5.8828,-5.8887,-5.9062,-5.916,-5.918,-5.9629,-5.9805,-5.9805,-5.3713,-5.4317,-5.5815,-6.0082,-6.507,-7.0361,-7.6066,-8.1741,-8.5513,-8.6447,-8.6467,-8.6467,-8.6467,-8.8057,-8.9072,-8.9072,-8.9072,-8.9072,-8.9072,-9.1464,-9.2896,-9.2896,-9.5965,-9.764,-9.764,-9.7787,-9.1198,-7.7418,-7.3773,-6.4453,-4.9953,-4.8427,-4.7905,-4.867,-5.797,0.0,0.0,0.0,-9.4317,-9.7581,-10.4997,-10.8008,-10.8008,-10.8008,-10.7776,-10.7372,-10.6295,-10.5715,-10.5366,-10.4982,-10.4674,-10.3933,-10.0192,-9.9669,-9.938,-9.4659,-9.5348,-9.673,-9.3072,-9.3128,-9.3722,-9.1843,-8.9908,-8.8586,-8.8526,-8.6143,-8.3865,-8.334,-8.3174,-8.1829,-7.7385,-7.434,-6.97,-6.1302,-5.3145,-4.744,-4.6116,-4.7353,-4.7927,0.0,0.0,0.0,-4.3145,0.0,0.0,0.0,0.0,0.0,-4.0195,0.0,0.0,0.0,0.0,-4.7656,-4.793,0.0,-5.4629,-5.3574,-5.6035,-5.7441,-5.7851,-5.7402,-5.75,-5.8027,-5.8359,-5.8933,-5.9874,-6.0036,-5.9657,-5.9199,-5.9199,-5.88,-5.8437,-5.8887,-5.9062,-5.9121,-6.2267,-6.4326,-6.6031,-6.862,-7.3086,-7.7065,-7.9423,-8.3423,-8.6782,-8.8617,-8.8767,-8.8767,-8.8767,-8.897,-8.9072,-8.9072,-8.9072,-8.9072,-8.9072,-9.1464,-9.2896,-9.2896,-9.542,-9.6795,-9.6795,-9.753,-9.3419,-8.4293,-7.719,-6.8288,-5.7687,-5.4424,-5.6914,-6.432,0.0,0.0,0.0,-9.1841,-9.8201,-10.5691,-10.7303,-10.8008,-10.8008,-10.8008,-10.769,-10.7091,-10.621,-10.5599,-10.4905,-10.3405,-10.2904,-10.2393,-9.985,-9.9573,-9.9541,-9.5952,-9.6621,-9.7675,-9.3873,-9.4881,-9.5962,-9.1612,-9.0897,-9.0589,-8.8336,-8.7037,-8.5801,-8.37,-8.3174,-8.2994,-8.2253,-7.9565,-7.352,-6.1662,-5.6163,-5.067,-4.3339,-4.9979,-5.4209,-5.0063,0.0,0.0,0.0,-3.5891,0.0,0.0,-3.3555,0.0,0.0,0.0,0.0,-4.3535,-4.4746,-4.5879,-4.7031,-5.2168,-5.5234,-5.623,-5.6894,-5.7441,-5.7851,-5.7402,-5.7676,-5.8476,-5.8535,-5.9996,-6.254,-6.4556,-6.3731,-6.1657,-6.1657,-6.0003,-5.7969,-5.8418,-5.8594,-5.8652,-6.6434,-6.8009,-6.9951,-7.3782,-7.6621,-7.9604,0.0,-8.6129,-8.8198,-8.9048,-8.9072,-8.9072,-8.9072,-8.9072,-8.8903,-8.8463,-8.8835,-8.9279,-8.9598,-9.1684,-9.3271,-9.4034,-9.5749,-9.6685,-9.6685,-9.7016,-9.3529,-8.5973,-7.7979,-7.0612,-6.3945,-6.0506,-6.3425,-7.1914,0.0,-8.6026,-9.1854,-9.8636,-10.3803,-10.75,-10.789,-10.8008,-10.8008,-10.8008,-10.7317,-10.6171,-10.4894,-10.4098,-10.3288,-10.111,-10.1399,-10.2179,-9.9762,-9.9554,-9.9587,-9.6076,-9.6763,-9.806,-9.533,-9.6296,-9.6997,-9.3082,-9.2207,-9.1423,-8.8366,-8.7167,-8.638,-8.4947,-8.4698,-8.496,-8.5604,-8.2848,-7.7863,-7.0429,-6.6137,-6.0303,-5.0954,-5.8698,-6.2025,-5.3353,0.0,-5.7159,0.0,0.0,0.0,0.0,0.0,0.0,0.0,0.0,0.0,-4.6168,0.0,-5.1268,-5.2168,-5.3886,-5.4941,-5.5469,-5.6914,-5.7695,-5.7871,-5.9611,-6.152,-6.3548,-6.3548,-6.4015,-6.4744,-6.5299,-6.4893,-6.3881,-6.2529,-6.1023,-5.9873,-5.9197,-5.8769,-5.8652,-7.2085,-7.3606,-7.5754,0.0,-8.1524,-8.3193,-8.6577,-8.8198,-8.9072,-8.9072,-8.8903,-8.8835,-8.9072,-8.9072,-8.8801,-8.8057,-8.8837,-8.9385,-8.95,-9.1528,-9.3176,-9.4035,-9.5553,-9.6355,-9.6355,-9.6575,-9.4556,-9.0168,-8.1843,-7.6241,-7.3315,-6.971,-7.2849,0.0,-8.9782,-9.4523,-9.7082,-10.4089,-10.7383,-10.8008,-10.7695,-10.7617,-10.7616,-10.7309,-10.6505,-10.5298,-10.3812,-10.3021,-10.2286,-9.9992,-10.0315,-10.1263,-9.959,-9.9814,-10.0017,-9.694,-9.7412,-9.8619,-9.715,-9.801,-9.8517,-9.5025,-9.3877,-9.2595,-8.9043,-8.7464,-8.6539,-8.609,-8.6449,-8.6958,-8.7347,-8.4953,-8.1078,-7.5497,-7.2609,-6.7014,-5.5672,-6.383,-6.6484,-5.4442,-5.6952,-5.9624,-5.9636,-4.7559,0.0,0.0,0.0,0.0,-3.7465,-4.0289,-4.3715,-4.7485,-5.0197,0.0,-5.4989,-5.5419,-5.6312,-5.8026,-5.974,-6.0557,-6.0557,-6.2973,-6.4992,-6.688,-6.7416,-6.7281,-6.6917,-6.7423,-6.7015,-6.6234,-6.4533,-6.2919,-6.1264,-6.0292,-5.9395,-5.8828,-8.0822,-8.3193,-8.54,-8.8408,-8.8937,-8.897,-8.9038,-8.9038,-8.9072,-8.9072,-8.8463,-8.8294,-8.9004,-8.9072,-8.8801,-8.8057,-8.9117,-8.9465,-8.8704,-9.0996,-9.2376,-9.2376,-9.4421,-9.5511,-9.5511,-9.6282,-9.7422,-9.8856,-9.0449,-8.6676,-8.7281,-8.3166,-8.6847,-9.6901,-9.8028,-10.1484,-10.6601,-10.7617,-10.8008,-10.789,-10.7109,-10.6719,-10.6592,-10.5507,-10.5001,-10.4598,-10.3387,-10.2828,-10.2401,-10.0727,-9.9653,-9.9041,-9.9067,-10.0215,-10.1091,-9.888,-9.9039,-9.9637,-9.9083,-10.0053,-10.0529,-9.7061,-9.5911,-9.4533,-9.0415,-8.8102,-8.6689,-8.6659,-8.8245,-8.9023,-8.7048,-8.612,-8.2777,-7.3914,-7.3155,-6.8616,-5.4234,-6.2818,-6.5895,-5.2806,-5.2824,-5.5468,-5.9341,-5.0256,0.0,0.0,-4.8357,-4.5363,-4.1345,-3.9512,-4.0762,-4.5508,-4.4453,-4.6957,-5.3581,-5.621,-6.039,-6.5912,-6.6611,-6.6857,-6.6857,-6.688,-6.6694,-6.6835,-6.8714,-6.9287,-6.946,-7.1748,-7.1118,-6.87,-6.87,-6.5581,-6.1391,-6.164,-6.0727,-5.918,-8.4315,-8.7182,-8.9528,-9.0378,-9.0594,-9.0425,-8.9918,-8.985,-8.9478,-8.8463,-8.8158,-8.7888,-8.7617,-8.7617,-8.7681,-8.7676,-8.8535,-8.9431,-9.0392,-9.1677,-9.2827,-9.3655,-9.4882,-9.5254,-9.4703,-9.599,-9.7143,-9.8177,-9.0933,0.0,0.0,-9.1064,-9.5277,-10.1378,-10.249,-10.4101,-10.5898,-10.6211,-10.6289,-10.6289,-10.6015,-10.5787,-10.5602,-10.5209,-10.4481,-10.3416,-10.2481,-10.1587,-10.068,-9.9046,-9.9133,-9.9814,-9.9242,-9.9424,-9.948,-9.7514,-9.8618,-10.0097,-9.8077,-9.9763,-10.0808,-9.5154,-9.4678,-9.4112,-8.8257,-8.6441,-8.6509,-8.8334,-8.8125,-8.7706,-8.8005,-8.6748,-8.3057,-7.513,-7.727,-7.5328,-6.2476,-6.7402,-6.952,-6.1306,-6.0705,-6.3123,-6.8661,-6.0828,0.0,0.0,-5.2189,-4.7842,-4.3152,-4.6961,-5.0743,-5.4111,-5.686,0.0,-6.158,-6.1368,-6.2635,-6.5647,-6.6683,-6.7918,-6.9765,-6.9212,-6.9916,-7.1417,-7.2101,-7.2341,-7.2341,-7.2986,-7.3136,-7.2468,-7.0771,-6.9149,-6.7053,-6.4123,-6.2316,-6.1373,-8.595,-8.8966,-9.1305,-9.1305,-9.1305,-9.1034,-9.0324,-9.0222,-8.9782,-8.8564,-8.7922,-8.7701,-8.797,-8.7185,0.0,-8.7562,-8.8439,-8.9447,-9.0754,-9.1712,-9.2551,-9.3345,-9.4153,-9.4485,-9.4259,-9.5483,0.0,-9.7696,-9.4133,-9.3028,-9.4369,-9.7097,-10.0211,-10.3406,-10.4088,-10.4784,-10.5508,-10.5508,-10.5312,-10.4999,-10.451,-10.4075,-10.3599,-10.3406,-10.279,-10.1904,-10.0973,-10.0289,-9.9466,-9.7855,-9.8252,-9.9299,-9.9161,-9.8936,-9.8687,-9.8082,-9.9321,-10.0519,-9.8949,-10.034,-10.1477,-9.7286,-9.6031,-9.4028,-8.7784,-8.6838,-8.7736,-8.9651,-8.9052,-8.8334,-8.8933,-8.7407,-8.4446,-7.9242,-8.0889,-7.9306,-6.9321,-7.3016,-7.3505,-6.4295,-6.5293,-6.8077,0.0,-6.7777,-6.4573,0.0,-5.9636,-5.5557,-5.2946,-5.329,-5.5019,-5.8446,-6.1686,-6.4175,-6.587,-6.5041,-6.6011,-6.8469,-6.9313,-7.0745,-7.2193,-7.1659,-7.2249,-7.3594,-7.3368,-7.3268,-7.3293,-7.3519,-7.3795,-7.3953,-7.2838,-7.1498,-7.0223,-6.6076,-6.4016,-6.2887,-8.6494,-8.9099,-9.144,0.0,-9.1372,0.0,-9.0324,-9.0222,-8.9918,-8.9106,-8.782,-8.7687,-8.9638,-8.7869,-8.6963,-8.7825,0.0,0.0,-9.0042,-9.1173,-9.1803,-9.1803,-9.2648,-9.3413,-9.4077,-9.4924,-9.6133,-9.76,-9.9243,-10.0404,-10.1212,-10.1212,-10.1981,-10.3291,-10.3302,-10.3986,-10.5195,-10.5195,-10.4687,-10.3785,-10.281,-10.1903,-10.1095,-10.0596,-10.0404,-10.0286,-9.935,-9.8916,-9.8592,-9.7068,-9.7018,-9.7855,-9.8606,-9.8589,-9.8542,-9.9965,-10.0597,-10.0765,-10.0908,-10.1729,-10.2434,-10.2204,-9.8697,-9.4007,-8.8904,-8.8693,-8.9741,-9.0489,-9.0579,-9.0339,-8.9771,-8.8095,-8.6359,-8.5013,-8.3726,-8.0748,-7.4575,-7.8611,-7.7275,-6.3785,-6.72,0.0,-7.1333,-7.1874,-7.2537,0.0,-6.9585,-6.7169,-6.7187,-5.8872,-5.5943,-6.0045,-6.0707,-6.3014,-6.7054,-6.7819,-6.9883,-7.372,-7.4197,-7.4423,-7.4397,-7.387,-7.3619,-7.3569,-7.3067,-7.2866,-7.2941,-7.3494,-7.372,-7.382,-7.4322,-7.3183,-7.1077,-6.8193,-6.5858,-6.3795,0.0,0.0,-9.2861,-9.2252,-9.215,-9.1711,-9.0425,-9.0222,-8.9748,-8.8429,-8.7955,-8.8062,-8.8946,-8.8528,-8.91,-9.1157,-9.0394,-9.0304,-9.1285,-9.162,-9.1803,-9.1803,-9.2648,-9.3155,-9.3285,-9.4617,-9.6044,-9.7517,-9.8558,-9.9558,-10.0404,-10.0404,-10.1096,-10.2405,-10.2384,-10.2503,-10.25,-10.25,-10.1992,-10.1205,-10.0689,-10.071,-10.0904,-10.0519,-10.0317,-10.023,-9.9326,-9.8189,-9.703,-9.6052,-9.6236,-9.6801,-9.6068,-9.6928,-9.8308,-9.8217,-9.9112,-10.0006,-9.9009,-10.0589,-10.1939,-9.9286,-9.5284,-9.1233,-8.8978,-8.8304,-8.8634,-9.0309,-8.986,-8.9262,-8.9591,-8.8873,-8.7616,-8.5761,-8.4773,-8.2074,-7.5708,-7.5746,-7.5126,-7.1639,-7.2516,-7.5243,-8.007,-8.0698,-7.8523,0.0,-7.4635,-7.1714,-6.2076,-6.729,-6.9932,-6.8266,-6.8881,-6.9609,-7.0714,-7.1708,-7.3018,-7.4849,-7.4548,-7.4423,-7.4423,-7.4272,-7.3996,-7.3619,-7.3895,-7.4247,-7.4649,-7.4799,-7.5101,-7.5477,-7.5628,-7.5334,-7.459,-7.1624,-6.9292,-6.686,-9.0801,-9.2359,-9.3334,-9.2556,-9.2421,-9.1913,-9.0425,-9.0222,-8.9782,-8.8632,-8.8192,-8.8726,-9.0443,-9.0107,-9.0737,-9.3615,-9.1885,-9.1139,-9.2317,-9.2024,-9.1803,-9.1803,-9.2244,-9.2811,-9.3507,-9.4293,-9.5653,-9.7519,-9.798,-9.8634,-9.9519,-9.9519,-10.0019,-10.102,-10.1026,-10.1021,-10.1015,-10.1015,-10.0383,-9.9557,-9.9268,-9.9288,-9.9442,-9.9201,-9.9319,-9.9401,-9.7923,-9.6787,-9.5901,-9.5161,-9.5441,-9.6164,-9.5905,-9.6527,-9.7349,-9.7141,-9.8468,-9.9745,-9.8711,-10.0506,-10.1548,-9.7954,-9.5532,-9.3028,-9.0153,-8.9082,-8.9172,-9.1117,-9.0249,-8.9412,-9.0369,-8.9531,-8.8215,-8.6838,-8.336,-7.9616,-7.6247,-7.4975,-7.4341,-7.4808,-7.7076,-8.0114,-8.3841,-8.4175,-8.2427,-7.8313,-7.7604,0.0,-7.0121,-7.2987,-7.2837,-6.8918,-7.2041,-7.3333,-7.2288,-7.2891,-7.3494,-7.4096,-7.3795,-7.3644,-7.3644,-7.3644,-7.3619,-7.3619,-7.392,-7.4347,-7.4875,-7.5126,-7.5402,-7.5703,-7.5954,-7.6055,-7.5832,-7.288,-7.0102,-6.7598,-9.1437,-9.2413,-9.3131,-9.2252,-9.2083,-9.1643,-9.0256,-9.0019,-8.9816,-8.9173,-8.8753,-8.9635,-9.254,-9.1914,-9.2402,-9.5431,-9.3383,-9.2315,-9.3197,-9.2464,-9.1987,-9.1987,-9.1877,-9.2566,-9.4047,-9.4319,-9.5353,-9.7326,-9.7326,-9.775,-9.8596,-9.8596,-9.8981,-9.9596,-9.9604,-9.98,-10.0117,-10.0117,-9.9474,-9.8513,-9.835,-9.8148,-9.794,-9.7853,-9.8209,-9.8438,-9.6181,-9.5417,-9.5261,-9.4411,-9.474,-9.5611,-9.6228,-9.6336,-9.6076,-9.619,-9.7927,-9.9616,-9.922,-10.0777,-10.1651,-9.7721,-9.7178,-9.6444,-9.1929,-9.0429,-9.0459,-9.2224,-9.1117,-9.019,-9.1386,-9.016,-8.8322,-8.6288,-8.0794,-7.612,-7.4937,-7.4625,-7.4808,-7.5532,-8.0423,-8.4145,-8.4803,-8.4863,-8.4893,-8.5013,-7.9993,-7.8318,-8.1242,-7.7204,-7.2584,-6.7274,-7.3354,-7.5512,-7.3255,-7.3255,-7.3118,-7.2866,-7.2866,-7.2866,-7.2866,-7.2941,-7.3242,-7.372,-7.382,-7.4146,-7.4699,-7.5176,-7.5377,-7.5402,-7.5879,-7.6105,-7.5957,-7.3333,-7.0654,-6.8032,-9.3043,-9.2912,-9.215,-9.0797,-9.056,-9.0256,-8.9376,-8.9241,-8.9207,-8.9106,-8.9967,-9.1157,-9.2706,-9.364,-9.4771,-9.6425,-9.5468,-9.4662,-9.4153,-9.3345,-9.2905,-9.2905,-9.217,-9.2566,-9.4047,-9.5318,-9.6136,-9.648,-9.648,-9.6903,-9.7711,-9.7711,-9.8365,-9.9596,-9.9604,-9.9449,-9.9219,-9.9219,-9.8563,-9.7633,-9.8125,-9.8168,-9.8019,-9.8535,-9.8383,-9.7712,-9.6024,-9.5457,-9.5295,-9.3823,-9.4263,-9.5236,-9.3891,-9.4302,-9.5101,-9.4316,-9.6096,-9.8384,-9.9007,-10.0777,-10.162,-9.8157,-9.7498,-9.6666,-9.3108,-9.1776,-9.1566,-9.2434,-9.1476,-9.0728,-9.1476,-9.0908,-8.7669,-7.9645,-7.8162,-7.5461,-6.8662,-7.1962,-7.5616,-7.6702,-8.1483,-8.4833,-8.5492,-8.5551,-8.5761,-8.6329,-8.5496,-8.2927,-7.8228,-8.2164,-8.0798,-7.2927,-7.6823,-7.7957,-7.5695,-7.5695,-7.4903,-7.3468,-7.3468,-7.3468,-7.3468,-7.3946,-7.4197,-7.4322,-7.4774,-7.5301,-7.5804,-7.5904,-7.5929,-7.5929,-7.603,-7.6331,-7.6682,-7.5783,-7.4094,-7.1938,-9.3588,-9.2624,-9.1474,-9.0391,-9.0222,-8.9951,-8.9207,-8.9072,-8.9072,-8.9072,-9.025,-9.1499,-9.2802,-9.4034,-9.5301,-9.6608,-9.6355,-9.5988,-9.5621,-9.441,-9.3749,-9.3749,-9.3345,-9.361,-9.4688,-9.5763,-9.6288,-9.6288,-9.6288,-9.648,-9.6865,-9.6865,-9.7557,-9.8863,-9.8425,-9.8486,-9.8983,-9.886,-9.8435,-9.7944,-9.851,-9.8653,-9.8464,-9.8324,-9.8078,-9.7539,-9.5536,-9.511,-9.5327,-9.4153,-9.4358,-9.4938,-9.4253,-9.4327,-9.4634,-9.4699,-9.6582,-9.8916,-10.0506,-10.169,-10.1985,-9.9647,-9.8301,-9.6755,-9.4277,-9.261,-9.1716,-9.2015,-9.1297,-9.0848,-9.1506,-9.1087,-8.7901,-7.9848,-7.9016,-7.6503,-6.8786,-7.2717,-7.6507,-7.7064,-8.2008,-8.5492,-8.615,-8.621,-8.6359,-8.6659,-8.6359,-8.4971,-8.2517,-8.4723,-8.4433,-8.0798,-8.0049,-7.9192,-7.8135,-7.8135,-7.7071,-7.5058,-7.5058,-7.4362,-7.3142,-7.372,-7.4146,-7.4448,-7.5,-7.5552,-7.6055,-7.6055,-7.6055,-7.6055,-7.6055,-7.6205,-7.6431,-7.6482,-7.4904,-7.2251,-9.3977,-9.259,-9.1338,-9.0594,-9.0324,-9.0019,-8.9444,-8.9207,-8.9184,-8.9449,-9.0605,-9.1964,-9.3178,-9.4511,-9.5668,-9.6608,-9.6685,-9.6685,-9.6685,-9.5547,-9.4777,-9.4593,-9.4556,-9.4784,-9.5291,-9.5954,-9.6288,-9.6288,-9.648,-9.6596,-9.6596,-9.6865,-9.7556,-9.8592,-9.7767,-9.8095,-9.9254,-9.8591,-9.8411,-9.8634,-9.9043,-9.8998,-9.8592,-9.8176,-9.778,-9.727,-9.5111,-9.4923,-9.5621,-9.463,-9.4628,-9.5015,-9.506,-9.4732,-9.4543,-9.5535,-9.7495,-9.9829,-10.1927,-10.2502,-10.2247,-10.0833,-9.9382,-9.7775,-9.5868,-9.3962,-9.258,-9.2263,-9.151,-9.0968,-9.1327,-9.0968,-8.8196,-8.0813,-7.9884,-7.7942,-7.1676,-7.4599,-7.8091,-7.9757,-8.3423,-8.612,-8.6629,-8.6689,-8.6689,-8.6689,-8.621,-8.615,-8.6659,-8.621,-8.615,-8.6659,-8.3174,-8.1094,-8.058,-8.058,-7.9339,-7.7091,-7.6396,-7.5172,-7.3443,-7.3357,-7.3694,-7.4247,-7.4799,-7.5352,-7.5854,-7.5854,-7.5854,-7.5854,-7.5728,-7.5753,-7.5904,-7.6331,-7.5035,-7.2653,-9.4755,-9.3402,-9.2116,-9.1338,-9.0662,-9.0188,-9.0121,-8.9545,-8.9559,-9.071,-9.1964,-9.3271,-9.4511,-9.5749,-9.6608,-9.6685,-9.6685,-9.6685,-9.6685,-9.6575,-9.6208,-9.5437,-9.5268,-9.5273,-9.5309,-9.5954,-9.6288,-9.6288,-9.7057,-9.7403,-9.7442,-9.8518,-9.9172,-9.9516,-9.8859,-9.9203,-10.0115,-9.8259,-9.8287,-9.948,-9.9288,-9.8617,-9.7894,-9.8592,-9.8021,-9.6541,-9.485,-9.529,-9.6355,-9.4813,-9.4992,-9.5734,-9.5237,-9.4732,-9.4543,-9.5535,-9.7867,-10.0506,-10.2096,-10.2502,-10.2247,-10.0833,-10.0441,-9.9864,-9.8576,-9.662,-9.5099,-9.4481,-9.2802,-9.1386,-9.0818,-9.0668,-8.78,-7.923,-7.9127,-7.9381,-7.7216,-7.759,-8.0524,-8.7046,-8.7127,-8.6629,-8.6689,-8.6689,-8.6689,-8.6689,-8.6629,-8.6629,-8.6689,-8.6629,-8.6629,-8.6689,-8.634,-8.5097,-8.3007,-8.3007,-8.1774,-7.9339,-7.727,-7.6033,-7.5877,-7.3818,-7.3117,-7.3694,-7.4247,-7.4799,-7.5301,-7.5301,-7.5301,-7.5251,-7.4724,-7.4849,-7.5301,-7.5352,-7.5456,-7.541,-9.4079,-9.2793,-9.1643,-9.1338,-9.1068,-9.1002,-9.1343,-9.1108,-9.1228,-9.2098,-9.3271,-9.4248,-9.472,-9.5947,-9.6685,-9.6685,-9.6685,-9.6685,-9.6685,-9.6685,-9.6805,-9.6944,-9.6318,-9.6495,-9.7503,-9.7197,-9.7326,-9.7865,-9.8173,-9.8288,-9.8327,-9.8942,-9.9608,-10.0315,-9.9188,-9.9513,-10.0803,-9.9307,-9.9267,-10.0096,-10.0365,-10.0027,-9.9198,-9.9065,-9.838,-9.7095,-9.5037,-9.5327,-9.6539,-9.5437,-9.5228,-9.5485,-9.5755,-9.4878,-9.4168,-9.6044,-9.824,-10.0438,-10.1487,-10.2198,-10.244,-10.1821,-10.1145,-10.0267,-9.933,-9.7988,-9.6608,-9.5944,-9.4307,-9.269,-9.2445,-9.1372,-8.8078,-8.0499,-8.3381,-8.4772,-7.9403,-8.2116,-8.5492,-8.7814,-8.7257,-8.6689,-8.6689,-8.6689,-8.6689,-8.6689,-8.6689,-8.6689,-8.6689,-8.6689,-8.6689,-8.6689,-8.6689,-8.6311,-8.5449,-8.5449,-8.4223,-8.1774,-7.9513,-7.7601,-7.606,-7.4149,-7.3393,-7.3644,-7.4548,-7.505,-7.5251,-7.5251,-7.5251,-7.5176,-7.4623,-7.4749,-7.5276,-7.5628,-7.5879,-7.5857,-9.3943,-9.2895,-9.2015,-9.2015,-9.1609,-9.1523,-9.237,-9.2096,-9.2158,-9.3342,-9.4248,-9.4891,-9.5384,-9.6143,-9.6685,-9.6685,-9.6685,-9.6685,-9.6685,-9.6685,-9.7027,-9.7763,-9.7215,-9.7529,-9.884,-9.8242,-9.8211,-9.8788,-9.9058,-9.9211,-9.9211,-9.9865,-10.0504,-10.1195,-10.0005,-10.0311,-10.1481,-10.0006,-9.9955,-10.0788,-10.0904,-10.0617,-10.0136,-9.9291,-9.8529,-9.7509,-9.5442,-9.5694,-9.6942,-9.6171,-9.565,-9.556,-9.6189,-9.5357,-9.4586,-9.6108,-9.8307,-10.0337,-10.0878,-10.1724,-10.2502,-10.2502,-10.1821,-10.1012,-10.0481,-9.9297,-9.7996,-9.7544,-9.5976,-9.4337,-9.3747,-9.2415,-8.9801,-8.4326,-8.7489,-8.8766,-8.3266,-8.6021,-8.8454,-8.7796,-8.7107,-8.6689,-8.6689,-8.6689,-8.6689,-8.6689,-8.6689,-8.6689,-8.6689,-8.6689,-8.6689,-8.6689,-8.6689,-8.6689,-8.6689,-8.6689,-8.5961,-8.4223,-8.1094,-7.8841,-7.727,-7.455,-7.3318,-7.3368,-7.4322,-7.4824,-7.4975,-7.4799,-7.4824,-7.49,-7.4171,-7.4121,-7.4548,-7.5276,-7.5527,-7.5578,-9.4687,-9.4112,-9.3571,-9.3571,-9.2319,-9.1693,-9.2955,-9.1993,-9.1964,-9.4511,-9.4806,-9.5301,-9.6608,-9.6685,-9.6685,-9.6685,-9.6685,-9.6685,-9.6685,-9.6685,-9.7027,-9.7763,-9.7703,-9.8097,-9.8926,-9.8856,-9.8788,-9.8827,-9.9673,-10.0096,-10.0096,-10.1481,-10.2096,-10.2088,-10.1522,-10.1712,-10.2405,-10.0096,-10.0212,-10.1597,-10.0481,-10.008,-10.0098,-9.9291,-9.8529,-9.7583,-9.6068,-9.6539,-9.7787,-9.6979,-9.6567,-9.633,-9.633,-9.6086,-9.5804,-9.5804,-9.7901,-10.0235,-10.0235,-10.1318,-10.2502,-10.2502,-10.2502,-10.2502,-10.2502,-10.102,-9.9494,-9.9494,-9.8055,-9.5976,-9.4028,-9.3591,-9.2991,-9.0939,-9.0638,-9.0399,-8.9741,-8.9112,-8.8454,-8.7796,-8.7107,-8.6689,-8.6689,-8.6689,-8.6689,-8.6689,-8.6689,-8.6689,-8.6689,-8.6689,-8.6689,-8.6689,-8.6689,-8.6689,-8.6689,-8.6689,-8.6689,-8.6659,-8.1972,-7.9687,-7.9513,-7.4829,-7.274,-7.2765,-7.3343,-7.3895,-7.4372,-7.382,-7.392,-7.4297,-7.3167,-7.274,-7.2866,-7.3996,-7.4423,-7.4573,-9.3909,-9.374,-9.3571,-9.3571,-9.2759,-9.2611,-9.4312,-9.3665,-9.3817,-9.5822,-9.6143,-9.6301,-9.6685,-9.6685,-9.6685,-9.6685,-9.6685,-9.6685,-9.6685,-9.721,-9.783,-9.8591,-9.8061,-9.8576,-10.0467,-10.0018,-9.9981,-10.0596,-10.0789,-10.0981,-10.1212,-10.1789,-10.221,-10.2307,-10.16,-10.1597,-10.2097,-10.0712,-10.0635,-10.1404,-10.1096,-10.1018,-10.0765,-9.9509,-9.889,-9.8355,-9.6251,-9.6539,-9.786,-9.7603,-9.7585,-9.743,-9.6199,-9.5797,-9.5804,-9.5804,-9.7901,-10.0235,-10.0235,-10.1318,-10.2502,-10.2502,-10.2502,-10.2502,-10.2502,-10.2045,-10.1618,-10.1618,-9.9939,-9.8022,-9.6125,-9.4491,-9.2991,-9.0939,-9.0638,-9.0399,-8.9741,-8.9112,-8.8454,-8.7796,-8.7107,-8.6689,-8.6689,-8.6689,-8.6689,-8.6689,-8.6689,-8.6689,-8.6689,-8.6689,-8.6689,-8.6689,-8.6689,-8.6689,-8.6689,-8.6689,-8.5801,-8.4223,-8.1094,-7.8841,-7.7091,-7.414,-7.274,-7.2765,-7.3343,-7.3694,-7.382,-7.3669,-7.3694,-7.377,-7.3016,-7.2991,-7.3368,-7.372,-7.4096,-7.4473,-9.3571,-9.3571,-9.3571,-9.3571,-9.2928,-9.3074,-9.4813,-9.4464,-9.4658,-9.6411,-9.6685,-9.6685,-9.6685,-9.6685,-9.6685,-9.6685,-9.6685,-9.6685,-9.6685,-9.7351,-9.8188,-9.8969,-9.8799,-9.9515,-10.1288,-10.0789,-10.0789,-10.1289,-10.1404,-10.1481,-10.1712,-10.2097,-10.2328,-10.2518,-10.1807,-10.1809,-10.1981,-10.1096,-10.1019,-10.1289,-10.1289,-10.1289,-10.121,-9.9949,-9.9291,-9.8756,-9.7074,-9.7247,-9.8374,-9.8374,-9.819,-9.7671,-9.6065,-9.5458,-9.5364,-9.5364,-9.7461,-9.9762,-9.9762,-10.1115,-10.2502,-10.2502,-10.2502,-10.2502,-10.2502,-10.2502,-10.2502,-10.2502,-10.1452,-10.0109,-9.8055,-9.6125,-9.4183,-9.2124,-9.1074,-9.0399,-8.9741,-8.9112,-8.8454,-8.7796,-8.7107,-8.6689,-8.6689,-8.6689,-8.6689,-8.6689,-8.6689,-8.6689,-8.6689,-8.6689,-8.6689,-8.6689,-8.6689,-8.6311,-8.5288,-8.5288,-8.4579,-8.3174,-7.9861,-7.7601,-7.6033,-7.3767,-7.274,-7.274,-7.3092,-7.3368,-7.3569,-7.3343,-7.3393,-7.3544,-7.2966,-7.2941,-7.3268,-7.3519,-7.382,-7.4121,-9.3571,-9.3571,-9.3571,-9.3571,-9.2977,-9.3084,-9.4813,-9.4489,-9.4677,-9.649,-9.6685,-9.6685,-9.6685,-9.6685,-9.6685,-9.6685,-9.6685,-9.6685,-9.6685,-9.7492,-9.8215,-9.9007,-9.9809,-10.0589,-10.1327,-10.1289,-10.1289,-10.1289,-10.1597,-10.1674,-10.171,-10.2328,-10.2482,-10.2499,-10.2218,-10.2112,-10.2097,-10.1481,-10.1289,-10.1289,-10.1289,-10.1289,-10.1171,-10.0497,-9.9706,-9.889,-9.8124,-9.8353,-9.9145,-9.9292,-9.8519,-9.7299,-9.61,-9.5262,-9.4721,-9.4721,-9.6751,-9.8984,-9.8984,-10.0675,-10.2401,-10.2401,-10.2502,-10.2502,-10.2502,-10.2502,-10.2502,-10.2502,-10.2502,-10.1914,-9.9802,-9.8055,-9.6125,-9.3903,-9.2254,-9.0863,-8.9905,-8.9245,-8.8586,-8.7766,-8.7107,-8.6689,-8.6689,-8.6689,-8.6689,-8.6689,-8.6689,-8.6689,-8.6689,-8.6689,-8.6689,-8.6689,-8.6689,-8.564,-8.3535,-8.3174,-8.2841,-8.2477,-7.8312,-7.6033,-7.5877,-7.3656,-7.2791,-7.274,-7.2841,-7.3117,-7.3468,-7.2991,-7.3092,-7.3468,-7.2941,-7.274,-7.2791,-7.3318,-7.3519,-7.3594,-9.3571,-9.3571,-9.3571,-9.3571,-9.3236,-9.3448,-9.494,-9.4816,-9.5108,-9.6531,-9.6685,-9.6685,-9.6685,-9.6685,-9.6685,-9.6685,-9.6685,-9.6685,-9.6685,-9.7964,-9.8831,-9.9007,-10.029,-10.1093,-10.1289,-10.1289,-10.1289,-10.1289,-10.1597,-10.1804,-10.1992,-10.2311,-10.26,-10.2789,-10.2293,-10.2112,-10.2097,-10.1481,-10.1289,-10.1289,-10.1289,-10.1289,-10.1171,-10.0497,-9.9706,-9.889,-9.8124,-9.8353,-9.9292,-10.0576,-9.9423,-9.7399,-9.7098,-9.5972,-9.4721,-9.4721,-9.6379,-9.824,-9.824,-9.9897,-10.1589,-10.1589,-10.2096,-10.2502,-10.2502,-10.2502,-10.2502,-10.2502,-10.2502,-10.1914,-9.9802,-9.9216,-9.7736,-9.4183,-9.4491,-9.3964,-9.0202,-9.0411,-9.0153,-8.7926,-8.7107,-8.6689,-8.6689,-8.6689,-8.6689,-8.6689,-8.6689,-8.6689,-8.6689,-8.6689,-8.6689,-8.6689,-8.6689,-8.65,-8.5961,-8.2309,-7.9513,-7.7779,-7.6758,-7.5172,-7.3443,-7.3357,-7.3167,-7.2791,-7.3669,-7.3619,-7.2941,-7.3268,-7.3217,-7.2891,-7.2791,-7.274,-7.274,-7.2866,-7.2916,-7.2396,-9.3571,-9.3571,-9.3772,-9.4443,-9.4083,-9.4251,-9.5842,-9.5952,-9.6243,-9.7117,-9.7603,-9.786,-9.786,-9.7493,-9.7126,-9.6722,-9.6685,-9.6685,-9.6685,-9.8124,-9.9007,-9.9007,-10.0505,-10.1289,-10.1289,-10.1289,-10.1404,-10.1481,-10.1789,-10.1974,-10.2272,-10.2583,-10.2693,-10.2693,-10.2324,-10.1995,-10.1904,-10.1481,-10.1289,-10.1289,-10.1289,-10.1289,-10.1288,-10.0885,-9.9999,-9.8987,-9.898,-9.9229,-9.9879,-10.109,-10.0064,-9.8313,-9.7696,-9.6414,-9.4944,-9.4382,-9.5736,-9.7461,-9.7461,-9.9119,-10.0912,-10.1284,-10.169,-10.2096,-10.2401,-10.2502,-10.2502,-10.2502,-10.2502,-10.2209,-10.112,-10.0076,-9.8764,-9.6685,-9.6135,-9.4893,-9.1626,-9.1144,-9.0221,-8.8026,-8.7107,-8.6689,-8.6689,-8.6689,-8.6689,-8.6689,-8.6689,-8.6689,-8.6689,-8.6689,-8.6689,-8.6689,-8.6689,-8.6151,-8.5097,-8.2645,-8.0235,-7.7779,-7.5512,-7.3953,-7.274,-7.3318,-7.3418,-7.3192,-7.4046,-7.392,-7.3167,-7.3468,-7.3242,-7.274,-7.274,-7.274,-7.274,-7.274,-7.274,-7.2171,-9.3571,-9.3571,-9.3971,-9.5309,-9.4976,-9.5255,-9.7048,-9.7398,-9.7573,-9.8075,-9.8704,-9.9108,-9.9108,-9.8374,-9.7566,-9.6759,-9.6685,-9.6685,-9.6685,-9.8124,-9.9007,-9.9007,-10.0505,-10.1289,-10.1289,-10.1289,-10.1404,-10.1712,-10.2017,-10.221,-10.2521,-10.2815,-10.2801,-10.2521,-10.2173,-10.2,-10.1712,-10.1404,-10.1289,-10.1289,-10.1289,-10.1289,-10.1289,-10.1289,-10.029,-9.912,-9.995,-10.0202,-10.0393,-10.12,-10.0567,-9.9316,-9.8217,-9.693,-9.5635,-9.4556,-9.555,-9.6979,-9.6979,-9.8554,-10.0202,-10.0811,-10.1081,-10.1386,-10.1995,-10.2299,-10.2502,-10.2502,-10.2401,-10.2299,-10.2299,-10.0819,-9.9576,-9.9131,-9.7178,-9.503,-9.269,-9.1328,-8.9821,-8.7996,-8.7107,-8.6689,-8.6689,-8.6689,-8.6689,-8.6689,-8.6689,-8.6689,-8.6689,-8.6689,-8.6689,-8.6689,-8.6778,-8.592,-8.3865,-8.3455,-8.2423,-8.0235,-7.5877,-7.3953,-7.3979,-7.4669,-7.4925,-7.4874,-7.5615,-7.5399,-7.4433,-7.4433,-7.3749,-7.2866,-7.2765,-7.274,-7.274,-7.274,-7.2336,-7.1716,-9.3571,-9.3571,-9.3971,-9.5234,-9.5785,-9.6525,-9.7894,-9.8552,-9.8876,-9.8961,-9.9035,-9.9108,-9.9108,-9.8374,-9.7566,-9.6759,-9.6685,-9.6685,-9.6685,-9.8124,-9.9007,-9.9007,-10.0505,-10.1289,-10.1289,-10.1289,-10.1404,-10.1712,-10.198,-10.2212,-10.2521,-10.2815,-10.2801,-10.252,-10.2173,-10.2019,-10.1712,-10.1404,-10.1289,-10.1289,-10.1289,-10.1289,-10.1289,-10.1289,-10.029,-9.912,-9.995,-10.0202,-10.0393,-10.12,-10.0567,-9.9497,-9.928,-9.8313,-9.7234,-9.7032,-9.7286,-9.7685,-9.7685,-9.8513,-9.9254,-9.9356,-9.9897,-10.0405,-10.0506,-10.1521,-10.2502,-10.2502,-10.1995,-10.1487,-10.1487,-10.0852,-9.9508,-9.7919,-9.7381,-9.5901,-9.2159,-9.1049,-8.9821,-8.7996,-8.7107,-8.6689,-8.6689,-8.6689,-8.6689,-8.6689,-8.6689,-8.6689,-8.6689,-8.6689,-8.6689,-8.6689,-8.7257,-8.7097,-8.6151,-8.4806,-8.3582,-8.2645,-8.0034,-7.8841,-7.8868,-7.9988,-8.0234,-7.9852,-8.1463,-8.0263,-7.748,-7.748,-7.591,-7.3418,-7.2916,-7.274,-7.274,-7.274,-7.1309,-6.909,-9.3571,-9.3571,-9.3971,-9.5309,-9.5261,-9.587,-9.7947,-9.8527,-9.8891,-9.9689,-10.0209,-10.0283,-9.9805,-9.8631,-9.7566,-9.6759,-9.6685,-9.6877,-9.7317,-9.8342,-9.9179,-9.9653,-10.0722,-10.1289,-10.1289,-10.1404,-10.1712,-10.1904,-10.2009,-10.2303,-10.2707,-10.2783,-10.281,-10.2477,-10.2212,-10.1981,-10.1712,-10.1404,-10.1289,-10.1289,-10.1789,-10.1712,-10.1404,-10.1789,-10.1284,-10.0381,-10.0794,-10.0901,-10.098,-10.1384,-10.1095,-10.0482,-9.9712,-9.9098,-9.8503,-9.7696,-9.764,-9.7848,-9.7848,-9.8152,-9.8578,-9.8984,-9.9356,-9.9694,-10.0134,-10.0743,-10.1216,-10.1216,-10.1014,-10.0709,-10.0709,-9.957,-9.8354,-9.7487,-9.614,-9.4311,-9.1442,-9.0399,-8.9268,-8.7426,-8.6868,-8.6689,-8.6689,-8.6689,-8.6689,-8.6689,-8.6689,-8.6689,-8.6689,-8.6689,-8.6689,-8.6689,-8.6988,-8.6988,-8.6689,-8.5936,-8.5391,-8.5097,-8.4437,-8.2651,-7.9743,-8.0627,-8.1068,-8.1207,-8.2671,-8.2265,-8.0618,-8.0944,-7.8909,-7.5658,-7.5399,-7.4235,-7.274,-7.274,-7.1931,-7.0902]}]]